<?xml version="1.0" encoding="UTF-8" standalone="no" ?>
<gpx xmlns="http://www.topografix.com/GPX/1/1" xmlns:xsi="http://www.w3.org/2001/XMLSchema-instance" xsi:schemaLocation="http://www.topografix.com/GPX/1/1 http://www.topografix.com/GPX/1/1/gpx.xsd" version="1.1" creator="VisuGPX - https://www.visugpx.com">
  <metadata>
    <name>4 boucles faucogney</name>
  </metadata>
  <trk>
    <name><![CDATA[4 boucles faucogney]]></name>
    <trkseg>
      <trkpt lat="47.84165" lon="6.56182">
        <ele>361.48890751617</ele>
        <time>2021-04-01T09:17:15.000Z</time>
      </trkpt>
      <trkpt lat="47.84145" lon="6.56186">
        <ele>361.41126694149</ele>
        <time>2021-04-01T09:17:15.003Z</time>
      </trkpt>
      <trkpt lat="47.84136" lon="6.56188">
        <ele>361.39040514503</ele>
        <time>2021-04-01T09:17:15.008Z</time>
      </trkpt>
      <trkpt lat="47.84136" lon="6.56208">
        <ele>361.40873086524</ele>
        <time>2021-04-01T09:17:15.015Z</time>
      </trkpt>
      <trkpt lat="47.84136" lon="6.56208">
        <ele>361.51221209777</ele>
        <time>2021-04-01T09:17:15.022Z</time>
      </trkpt>
      <trkpt lat="47.84137" lon="6.56237">
        <ele>361.7411343669</ele>
        <time>2021-04-01T09:17:15.032Z</time>
      </trkpt>
      <trkpt lat="47.84097" lon="6.56275">
        <ele>362.14252006317</ele>
        <time>2021-04-01T09:17:15.050Z</time>
      </trkpt>
      <trkpt lat="47.84097" lon="6.56275">
        <ele>362.45862994084</ele>
        <time>2021-04-01T09:17:15.068Z</time>
      </trkpt>
      <trkpt lat="47.84046" lon="6.56322">
        <ele>363.05478889581</ele>
        <time>2021-04-01T09:17:15.095Z</time>
      </trkpt>
      <trkpt lat="47.84024" lon="6.56366">
        <ele>363.65846782553</ele>
        <time>2021-04-01T09:17:15.128Z</time>
      </trkpt>
      <trkpt lat="47.84019" lon="6.56389">
        <ele>364.03419236225</ele>
        <time>2021-04-01T09:17:15.164Z</time>
      </trkpt>
      <trkpt lat="47.84019" lon="6.56389">
        <ele>364.32429385621</ele>
        <time>2021-04-01T09:17:15.200Z</time>
      </trkpt>
      <trkpt lat="47.84019" lon="6.56389">
        <ele>364.03419236225</ele>
        <time>2021-04-01T09:17:15.236Z</time>
      </trkpt>
      <trkpt lat="47.83968" lon="6.56387">
        <ele>364.43156405976</ele>
        <time>2021-04-01T09:17:15.280Z</time>
      </trkpt>
      <trkpt lat="47.83941" lon="6.56422">
        <ele>364.61754727541</ele>
        <time>2021-04-01T09:17:15.330Z</time>
      </trkpt>
      <trkpt lat="47.83913" lon="6.56432">
        <ele>364.94395123079</ele>
        <time>2021-04-01T09:17:15.384Z</time>
      </trkpt>
      <trkpt lat="47.83836" lon="6.56425">
        <ele>365.16979036521</ele>
        <time>2021-04-01T09:17:15.451Z</time>
      </trkpt>
      <trkpt lat="47.8378" lon="6.56407">
        <ele>365.28667687796</ele>
        <time>2021-04-01T09:17:15.527Z</time>
      </trkpt>
      <trkpt lat="47.83761" lon="6.56395">
        <ele>365.40005246432</ele>
        <time>2021-04-01T09:17:15.606Z</time>
      </trkpt>
      <trkpt lat="47.83761" lon="6.56395">
        <ele>365.42382451892</ele>
        <time>2021-04-01T09:17:15.685Z</time>
      </trkpt>
      <trkpt lat="47.83748" lon="6.56387">
        <ele>365.43724378413</ele>
        <time>2021-04-01T09:17:15.766Z</time>
      </trkpt>
      <trkpt lat="47.83707" lon="6.56345">
        <ele>365.26021768264</ele>
        <time>2021-04-01T09:17:15.855Z</time>
      </trkpt>
      <trkpt lat="47.83667" lon="6.56288">
        <ele>364.79235421903</ele>
        <time>2021-04-01T09:17:15.953Z</time>
      </trkpt>
      <trkpt lat="47.83641" lon="6.56274">
        <ele>364.69878545295</ele>
        <time>2021-04-01T09:17:16.056Z</time>
      </trkpt>
      <trkpt lat="47.83625" lon="6.56275">
        <ele>364.79327606384</ele>
        <time>2021-04-01T09:17:16.161Z</time>
      </trkpt>
      <trkpt lat="47.83599" lon="6.56312">
        <ele>364.97808604089</ele>
        <time>2021-04-01T09:17:16.272Z</time>
      </trkpt>
      <trkpt lat="47.83593" lon="6.56431">
        <ele>365.48592395593</ele>
        <time>2021-04-01T09:17:16.396Z</time>
      </trkpt>
      <trkpt lat="47.83586" lon="6.56466">
        <ele>366.09122490927</ele>
        <time>2021-04-01T09:17:16.524Z</time>
      </trkpt>
      <trkpt lat="47.83577" lon="6.56478">
        <ele>366.83249725592</ele>
        <time>2021-04-01T09:17:16.654Z</time>
      </trkpt>
      <trkpt lat="47.83577" lon="6.56478">
        <ele>367.70650460397</ele>
        <time>2021-04-01T09:17:16.784Z</time>
      </trkpt>
      <trkpt lat="47.83544" lon="6.56519">
        <ele>368.75925748477</ele>
        <time>2021-04-01T09:17:16.921Z</time>
      </trkpt>
      <trkpt lat="47.83471" lon="6.56598">
        <ele>369.9262881711</ele>
        <time>2021-04-01T09:17:17.072Z</time>
      </trkpt>
      <trkpt lat="47.83438" lon="6.56668">
        <ele>371.38400301603</ele>
        <time>2021-04-01T09:17:17.232Z</time>
      </trkpt>
      <trkpt lat="47.83445" lon="6.56711">
        <ele>372.96710754093</ele>
        <time>2021-04-01T09:17:17.397Z</time>
      </trkpt>
      <trkpt lat="47.83487" lon="6.56776">
        <ele>375.22496121358</ele>
        <time>2021-04-01T09:17:17.572Z</time>
      </trkpt>
      <trkpt lat="47.83493" lon="6.56809">
        <ele>377.33951213203</ele>
        <time>2021-04-01T09:17:17.750Z</time>
      </trkpt>
      <trkpt lat="47.83485" lon="6.56841">
        <ele>379.61309470932</ele>
        <time>2021-04-01T09:17:17.932Z</time>
      </trkpt>
      <trkpt lat="47.83459" lon="6.56846">
        <ele>381.9939892916</ele>
        <time>2021-04-01T09:17:18.118Z</time>
      </trkpt>
      <trkpt lat="47.8341" lon="6.56823">
        <ele>383.80150595386</ele>
        <time>2021-04-01T09:17:18.313Z</time>
      </trkpt>
      <trkpt lat="47.8339" lon="6.56825">
        <ele>385.94576593726</ele>
        <time>2021-04-01T09:17:18.511Z</time>
      </trkpt>
      <trkpt lat="47.83352" lon="6.56871">
        <ele>388.37652415626</ele>
        <time>2021-04-01T09:17:18.717Z</time>
      </trkpt>
      <trkpt lat="47.8329" lon="6.56876">
        <ele>390.43939914264</ele>
        <time>2021-04-01T09:17:18.933Z</time>
      </trkpt>
      <trkpt lat="47.83277" lon="6.56906">
        <ele>392.89008809999</ele>
        <time>2021-04-01T09:17:19.152Z</time>
      </trkpt>
      <trkpt lat="47.83263" lon="6.57065">
        <ele>395.45610762203</ele>
        <time>2021-04-01T09:17:19.389Z</time>
      </trkpt>
      <trkpt lat="47.83235" lon="6.57102">
        <ele>397.58951657867</ele>
        <time>2021-04-01T09:17:19.632Z</time>
      </trkpt>
      <trkpt lat="47.83233" lon="6.57113">
        <ele>399.6847851549</ele>
        <time>2021-04-01T09:17:19.876Z</time>
      </trkpt>
      <trkpt lat="47.83233" lon="6.57129">
        <ele>401.72524403451</ele>
        <time>2021-04-01T09:17:20.122Z</time>
      </trkpt>
      <trkpt lat="47.83247" lon="6.57169">
        <ele>403.90535465195</ele>
        <time>2021-04-01T09:17:20.373Z</time>
      </trkpt>
      <trkpt lat="47.83247" lon="6.57205">
        <ele>406.05977093442</ele>
        <time>2021-04-01T09:17:20.627Z</time>
      </trkpt>
      <trkpt lat="47.83212" lon="6.57291">
        <ele>408.12811468552</ele>
        <time>2021-04-01T09:17:20.892Z</time>
      </trkpt>
      <trkpt lat="47.83207" lon="6.57335">
        <ele>410.04683214321</ele>
        <time>2021-04-01T09:17:21.162Z</time>
      </trkpt>
      <trkpt lat="47.83215" lon="6.57369">
        <ele>411.97254247951</ele>
        <time>2021-04-01T09:17:21.436Z</time>
      </trkpt>
      <trkpt lat="47.83215" lon="6.57369">
        <ele>413.87345506594</ele>
        <time>2021-04-01T09:17:21.710Z</time>
      </trkpt>
      <trkpt lat="47.83218" lon="6.57378">
        <ele>415.7616425683</ele>
        <time>2021-04-01T09:17:21.985Z</time>
      </trkpt>
      <trkpt lat="47.83262" lon="6.57476">
        <ele>418.55761762625</ele>
        <time>2021-04-01T09:17:22.273Z</time>
      </trkpt>
      <trkpt lat="47.83265" lon="6.57546">
        <ele>421.13736493861</ele>
        <time>2021-04-01T09:17:22.568Z</time>
      </trkpt>
      <trkpt lat="47.83255" lon="6.57571">
        <ele>423.22591485429</ele>
        <time>2021-04-01T09:17:22.866Z</time>
      </trkpt>
      <trkpt lat="47.83223" lon="6.57563">
        <ele>424.52975754501</ele>
        <time>2021-04-01T09:17:23.170Z</time>
      </trkpt>
      <trkpt lat="47.83205" lon="6.57569">
        <ele>426.13812361205</ele>
        <time>2021-04-01T09:17:23.477Z</time>
      </trkpt>
      <trkpt lat="47.83203" lon="6.57605">
        <ele>428.23654431777</ele>
        <time>2021-04-01T09:17:23.787Z</time>
      </trkpt>
      <trkpt lat="47.83228" lon="6.57647">
        <ele>430.70207601679</ele>
        <time>2021-04-01T09:17:24.104Z</time>
      </trkpt>
      <trkpt lat="47.83228" lon="6.57672">
        <ele>432.66708709891</ele>
        <time>2021-04-01T09:17:24.423Z</time>
      </trkpt>
      <trkpt lat="47.83217" lon="6.57684">
        <ele>434.26202320189</ele>
        <time>2021-04-01T09:17:24.745Z</time>
      </trkpt>
      <trkpt lat="47.83202" lon="6.57666">
        <ele>435.52115379072</ele>
        <time>2021-04-01T09:17:25.070Z</time>
      </trkpt>
      <trkpt lat="47.83189" lon="6.57665">
        <ele>436.86577087887</ele>
        <time>2021-04-01T09:17:25.397Z</time>
      </trkpt>
      <trkpt lat="47.8318" lon="6.57673">
        <ele>438.30219435379</ele>
        <time>2021-04-01T09:17:25.725Z</time>
      </trkpt>
      <trkpt lat="47.83173" lon="6.57703">
        <ele>439.89935472363</ele>
        <time>2021-04-01T09:17:26.057Z</time>
      </trkpt>
      <trkpt lat="47.83198" lon="6.57791">
        <ele>442.26379316476</ele>
        <time>2021-04-01T09:17:26.399Z</time>
      </trkpt>
      <trkpt lat="47.83203" lon="6.57832">
        <ele>444.12336244051</ele>
        <time>2021-04-01T09:17:26.746Z</time>
      </trkpt>
      <trkpt lat="47.83203" lon="6.57832">
        <ele>445.62930658326</ele>
        <time>2021-04-01T09:17:27.093Z</time>
      </trkpt>
      <trkpt lat="47.83196" lon="6.57886">
        <ele>447.15250276213</ele>
        <time>2021-04-01T09:17:27.446Z</time>
      </trkpt>
      <trkpt lat="47.83177" lon="6.57913">
        <ele>448.25766165345</ele>
        <time>2021-04-01T09:17:27.803Z</time>
      </trkpt>
      <trkpt lat="47.8317" lon="6.57941">
        <ele>449.64341625376</ele>
        <time>2021-04-01T09:17:28.163Z</time>
      </trkpt>
      <trkpt lat="47.83172" lon="6.57983">
        <ele>451.40434288997</ele>
        <time>2021-04-01T09:17:28.528Z</time>
      </trkpt>
      <trkpt lat="47.83181" lon="6.58033">
        <ele>453.41718058957</ele>
        <time>2021-04-01T09:17:28.898Z</time>
      </trkpt>
      <trkpt lat="47.83177" lon="6.58055">
        <ele>455.06698171229</ele>
        <time>2021-04-01T09:17:29.271Z</time>
      </trkpt>
      <trkpt lat="47.8315" lon="6.58076">
        <ele>456.54644683995</ele>
        <time>2021-04-01T09:17:29.649Z</time>
      </trkpt>
      <trkpt lat="47.83122" lon="6.58031">
        <ele>457.28219908966</ele>
        <time>2021-04-01T09:17:30.033Z</time>
      </trkpt>
      <trkpt lat="47.83109" lon="6.58023">
        <ele>458.61618171452</ele>
        <time>2021-04-01T09:17:30.419Z</time>
      </trkpt>
      <trkpt lat="47.8307" lon="6.58024">
        <ele>459.97005541464</ele>
        <time>2021-04-01T09:17:30.812Z</time>
      </trkpt>
      <trkpt lat="47.83063" lon="6.58031">
        <ele>461.40908873257</ele>
        <time>2021-04-01T09:17:31.206Z</time>
      </trkpt>
      <trkpt lat="47.83064" lon="6.58056">
        <ele>463.15869367666</ele>
        <time>2021-04-01T09:17:31.603Z</time>
      </trkpt>
      <trkpt lat="47.83091" lon="6.58099">
        <ele>465.51420335724</ele>
        <time>2021-04-01T09:17:32.006Z</time>
      </trkpt>
      <trkpt lat="47.83091" lon="6.58115">
        <ele>467.36355366374</ele>
        <time>2021-04-01T09:17:32.411Z</time>
      </trkpt>
      <trkpt lat="47.83028" lon="6.5807">
        <ele>467.91757621573</ele>
        <time>2021-04-01T09:17:32.827Z</time>
      </trkpt>
      <trkpt lat="47.83004" lon="6.58068">
        <ele>469.55993099922</ele>
        <time>2021-04-01T09:17:33.247Z</time>
      </trkpt>
      <trkpt lat="47.82996" lon="6.5808">
        <ele>471.47491205767</ele>
        <time>2021-04-01T09:17:33.669Z</time>
      </trkpt>
      <trkpt lat="47.82982" lon="6.58136">
        <ele>474.32429583032</ele>
        <time>2021-04-01T09:17:34.097Z</time>
      </trkpt>
      <trkpt lat="47.82968" lon="6.58151">
        <ele>476.45634315359</ele>
        <time>2021-04-01T09:17:34.528Z</time>
      </trkpt>
      <trkpt lat="47.82957" lon="6.58139">
        <ele>478.21568366638</ele>
        <time>2021-04-01T09:17:34.961Z</time>
      </trkpt>
      <trkpt lat="47.82945" lon="6.5807">
        <ele>479.38248806392</ele>
        <time>2021-04-01T09:17:35.402Z</time>
      </trkpt>
      <trkpt lat="47.8293" lon="6.58044">
        <ele>481.10577062808</ele>
        <time>2021-04-01T09:17:35.846Z</time>
      </trkpt>
      <trkpt lat="47.8291" lon="6.58032">
        <ele>482.98743158266</ele>
        <time>2021-04-01T09:17:36.294Z</time>
      </trkpt>
      <trkpt lat="47.82839" lon="6.5803">
        <ele>485.1744674798</ele>
        <time>2021-04-01T09:17:36.753Z</time>
      </trkpt>
      <trkpt lat="47.8283" lon="6.5802">
        <ele>487.15004813614</ele>
        <time>2021-04-01T09:17:37.214Z</time>
      </trkpt>
      <trkpt lat="47.82776" lon="6.58042">
        <ele>489.46624632986</ele>
        <time>2021-04-01T09:17:37.684Z</time>
      </trkpt>
      <trkpt lat="47.82734" lon="6.58038">
        <ele>492.01847594836</ele>
        <time>2021-04-01T09:17:38.161Z</time>
      </trkpt>
      <trkpt lat="47.82707" lon="6.58082">
        <ele>494.34388761285</ele>
        <time>2021-04-01T09:17:38.644Z</time>
      </trkpt>
      <trkpt lat="47.82707" lon="6.58082">
        <ele>496.5269845453</ele>
        <time>2021-04-01T09:17:39.127Z</time>
      </trkpt>
      <trkpt lat="47.82702" lon="6.58108">
        <ele>498.81271755034</ele>
        <time>2021-04-01T09:17:39.613Z</time>
      </trkpt>
      <trkpt lat="47.82677" lon="6.58227">
        <ele>500.95126952384</ele>
        <time>2021-04-01T09:17:40.112Z</time>
      </trkpt>
      <trkpt lat="47.82611" lon="6.58346">
        <ele>503.81683092264</ele>
        <time>2021-04-01T09:17:40.628Z</time>
      </trkpt>
      <trkpt lat="47.8258" lon="6.58386">
        <ele>506.19164906962</ele>
        <time>2021-04-01T09:17:41.151Z</time>
      </trkpt>
      <trkpt lat="47.82531" lon="6.58429">
        <ele>508.28731096101</ele>
        <time>2021-04-01T09:17:41.683Z</time>
      </trkpt>
      <trkpt lat="47.82489" lon="6.58505">
        <ele>510.27162860273</ele>
        <time>2021-04-01T09:17:42.225Z</time>
      </trkpt>
      <trkpt lat="47.82408" lon="6.58578">
        <ele>511.66235348372</ele>
        <time>2021-04-01T09:17:42.783Z</time>
      </trkpt>
      <trkpt lat="47.8238" lon="6.58608">
        <ele>513.33557393039</ele>
        <time>2021-04-01T09:17:43.346Z</time>
      </trkpt>
      <trkpt lat="47.82364" lon="6.58638">
        <ele>514.95203909469</ele>
        <time>2021-04-01T09:17:43.913Z</time>
      </trkpt>
      <trkpt lat="47.82351" lon="6.58728">
        <ele>516.53659776183</ele>
        <time>2021-04-01T09:17:44.490Z</time>
      </trkpt>
      <trkpt lat="47.82319" lon="6.58824">
        <ele>517.84437402968</ele>
        <time>2021-04-01T09:17:45.079Z</time>
      </trkpt>
      <trkpt lat="47.82319" lon="6.58824">
        <ele>518.86373540721</ele>
        <time>2021-04-01T09:17:45.668Z</time>
      </trkpt>
      <trkpt lat="47.82315" lon="6.58835">
        <ele>519.69413590198</ele>
        <time>2021-04-01T09:17:46.258Z</time>
      </trkpt>
      <trkpt lat="47.82287" lon="6.58859">
        <ele>520.32114956708</ele>
        <time>2021-04-01T09:17:46.853Z</time>
      </trkpt>
      <trkpt lat="47.82251" lon="6.58876">
        <ele>520.7060327721</ele>
        <time>2021-04-01T09:17:47.454Z</time>
      </trkpt>
      <trkpt lat="47.82212" lon="6.58978">
        <ele>521.11174470606</ele>
        <time>2021-04-01T09:17:48.068Z</time>
      </trkpt>
      <trkpt lat="47.82168" lon="6.59065">
        <ele>521.39724333277</ele>
        <time>2021-04-01T09:17:48.694Z</time>
      </trkpt>
      <trkpt lat="47.82125" lon="6.59197">
        <ele>521.33263920058</ele>
        <time>2021-04-01T09:17:49.335Z</time>
      </trkpt>
      <trkpt lat="47.82124" lon="6.59215">
        <ele>520.70810595715</ele>
        <time>2021-04-01T09:17:49.978Z</time>
      </trkpt>
      <trkpt lat="47.82124" lon="6.59215">
        <ele>519.82061322368</ele>
        <time>2021-04-01T09:17:50.621Z</time>
      </trkpt>
      <trkpt lat="47.82108" lon="6.59344">
        <ele>518.30366808671</ele>
        <time>2021-04-01T09:17:51.279Z</time>
      </trkpt>
      <trkpt lat="47.82083" lon="6.59439">
        <ele>516.38666930636</ele>
        <time>2021-04-01T09:17:51.948Z</time>
      </trkpt>
      <trkpt lat="47.82037" lon="6.59491">
        <ele>514.69622727773</ele>
        <time>2021-04-01T09:17:52.626Z</time>
      </trkpt>
      <trkpt lat="47.81998" lon="6.59564">
        <ele>513.20632935599</ele>
        <time>2021-04-01T09:17:53.314Z</time>
      </trkpt>
      <trkpt lat="47.81995" lon="6.59635">
        <ele>510.89921502626</ele>
        <time>2021-04-01T09:17:54.010Z</time>
      </trkpt>
      <trkpt lat="47.81971" lon="6.59724">
        <ele>508.33004271279</ele>
        <time>2021-04-01T09:17:54.716Z</time>
      </trkpt>
      <trkpt lat="47.81971" lon="6.59724">
        <ele>506.01018567996</ele>
        <time>2021-04-01T09:17:55.422Z</time>
      </trkpt>
      <trkpt lat="47.8197" lon="6.59726">
        <ele>503.58326262661</ele>
        <time>2021-04-01T09:17:56.128Z</time>
      </trkpt>
      <trkpt lat="47.8196" lon="6.59801">
        <ele>500.94156031704</ele>
        <time>2021-04-01T09:17:56.842Z</time>
      </trkpt>
      <trkpt lat="47.81937" lon="6.59902">
        <ele>498.52792172891</ele>
        <time>2021-04-01T09:17:57.568Z</time>
      </trkpt>
      <trkpt lat="47.81926" lon="6.59997">
        <ele>496.07398786077</ele>
        <time>2021-04-01T09:17:58.304Z</time>
      </trkpt>
      <trkpt lat="47.81903" lon="6.60066">
        <ele>493.59449668528</ele>
        <time>2021-04-01T09:17:59.049Z</time>
      </trkpt>
      <trkpt lat="47.81899" lon="6.60123">
        <ele>490.98010885021</ele>
        <time>2021-04-01T09:17:59.800Z</time>
      </trkpt>
      <trkpt lat="47.81821" lon="6.60294">
        <ele>487.4002062662</ele>
        <time>2021-04-01T09:18:00.573Z</time>
      </trkpt>
      <trkpt lat="47.81809" lon="6.60306">
        <ele>485.03152943997</ele>
        <time>2021-04-01T09:18:01.348Z</time>
      </trkpt>
      <trkpt lat="47.81748" lon="6.60284">
        <ele>482.6912637409</ele>
        <time>2021-04-01T09:18:02.133Z</time>
      </trkpt>
      <trkpt lat="47.81748" lon="6.60284">
        <ele>481.07290516145</ele>
        <time>2021-04-01T09:18:02.918Z</time>
      </trkpt>
      <trkpt lat="47.81668" lon="6.60357">
        <ele>479.42025401004</ele>
        <time>2021-04-01T09:18:03.718Z</time>
      </trkpt>
      <trkpt lat="47.81635" lon="6.60468">
        <ele>478.38732971414</ele>
        <time>2021-04-01T09:18:04.532Z</time>
      </trkpt>
      <trkpt lat="47.81623" lon="6.60463">
        <ele>477.73504008149</ele>
        <time>2021-04-01T09:18:05.348Z</time>
      </trkpt>
      <trkpt lat="47.81586" lon="6.60468">
        <ele>477.51025552863</ele>
        <time>2021-04-01T09:18:06.170Z</time>
      </trkpt>
      <trkpt lat="47.81539" lon="6.60539">
        <ele>477.89556483015</ele>
        <time>2021-04-01T09:18:07.002Z</time>
      </trkpt>
      <trkpt lat="47.81523" lon="6.60551">
        <ele>478.43495327717</ele>
        <time>2021-04-01T09:18:07.837Z</time>
      </trkpt>
      <trkpt lat="47.81497" lon="6.60539">
        <ele>479.31154227853</ele>
        <time>2021-04-01T09:18:08.677Z</time>
      </trkpt>
      <trkpt lat="47.81468" lon="6.60505">
        <ele>480.18914579858</ele>
        <time>2021-04-01T09:18:09.522Z</time>
      </trkpt>
      <trkpt lat="47.81453" lon="6.60503">
        <ele>481.32492685896</ele>
        <time>2021-04-01T09:18:10.370Z</time>
      </trkpt>
      <trkpt lat="47.81453" lon="6.60503">
        <ele>482.471453616</ele>
        <time>2021-04-01T09:18:11.218Z</time>
      </trkpt>
      <trkpt lat="47.81439" lon="6.60522">
        <ele>483.84354102855</ele>
        <time>2021-04-01T09:18:12.069Z</time>
      </trkpt>
      <trkpt lat="47.81431" lon="6.60554">
        <ele>485.28375129099</ele>
        <time>2021-04-01T09:18:12.924Z</time>
      </trkpt>
      <trkpt lat="47.81418" lon="6.60559">
        <ele>486.81551224185</ele>
        <time>2021-04-01T09:18:13.781Z</time>
      </trkpt>
      <trkpt lat="47.8135" lon="6.60513">
        <ele>488.47355920435</ele>
        <time>2021-04-01T09:18:14.650Z</time>
      </trkpt>
      <trkpt lat="47.8133" lon="6.60509">
        <ele>489.7770690348</ele>
        <time>2021-04-01T09:18:15.522Z</time>
      </trkpt>
      <trkpt lat="47.813" lon="6.60522">
        <ele>491.05348023506</ele>
        <time>2021-04-01T09:18:16.399Z</time>
      </trkpt>
      <trkpt lat="47.81253" lon="6.60562">
        <ele>492.68093331795</ele>
        <time>2021-04-01T09:18:17.285Z</time>
      </trkpt>
      <trkpt lat="47.81195" lon="6.6055">
        <ele>494.02203037267</ele>
        <time>2021-04-01T09:18:18.180Z</time>
      </trkpt>
      <trkpt lat="47.81131" lon="6.60524">
        <ele>495.41759618043</ele>
        <time>2021-04-01T09:18:19.086Z</time>
      </trkpt>
      <trkpt lat="47.81131" lon="6.60524">
        <ele>496.46320801182</ele>
        <time>2021-04-01T09:18:19.992Z</time>
      </trkpt>
      <trkpt lat="47.81092" lon="6.60501">
        <ele>497.48056540904</ele>
        <time>2021-04-01T09:18:20.904Z</time>
      </trkpt>
      <trkpt lat="47.8106" lon="6.60498">
        <ele>498.25553804258</ele>
        <time>2021-04-01T09:18:21.821Z</time>
      </trkpt>
      <trkpt lat="47.81052" lon="6.605">
        <ele>498.76374607978</ele>
        <time>2021-04-01T09:18:22.740Z</time>
      </trkpt>
      <trkpt lat="47.81052" lon="6.605">
        <ele>499.03660011971</ele>
        <time>2021-04-01T09:18:23.659Z</time>
      </trkpt>
      <trkpt lat="47.81017" lon="6.6051">
        <ele>499.16083348392</ele>
        <time>2021-04-01T09:18:24.583Z</time>
      </trkpt>
      <trkpt lat="47.80984" lon="6.60541">
        <ele>498.97562078089</ele>
        <time>2021-04-01T09:18:25.514Z</time>
      </trkpt>
      <trkpt lat="47.80966" lon="6.60538">
        <ele>498.51925642788</ele>
        <time>2021-04-01T09:18:26.448Z</time>
      </trkpt>
      <trkpt lat="47.80952" lon="6.60521">
        <ele>497.85041016131</ele>
        <time>2021-04-01T09:18:27.385Z</time>
      </trkpt>
      <trkpt lat="47.80914" lon="6.60439">
        <ele>496.72267659403</ele>
        <time>2021-04-01T09:18:28.332Z</time>
      </trkpt>
      <trkpt lat="47.80894" lon="6.60433">
        <ele>495.53310934138</ele>
        <time>2021-04-01T09:18:29.283Z</time>
      </trkpt>
      <trkpt lat="47.80821" lon="6.60449">
        <ele>494.07839481769</ele>
        <time>2021-04-01T09:18:30.245Z</time>
      </trkpt>
      <trkpt lat="47.80691" lon="6.60417">
        <ele>492.14969988899</ele>
        <time>2021-04-01T09:18:31.228Z</time>
      </trkpt>
      <trkpt lat="47.80656" lon="6.60376">
        <ele>490.43911246197</ele>
        <time>2021-04-01T09:18:32.219Z</time>
      </trkpt>
      <trkpt lat="47.80605" lon="6.60351">
        <ele>488.55437404119</ele>
        <time>2021-04-01T09:18:33.218Z</time>
      </trkpt>
      <trkpt lat="47.80588" lon="6.60354">
        <ele>486.69238638009</ele>
        <time>2021-04-01T09:18:34.220Z</time>
      </trkpt>
      <trkpt lat="47.8055" lon="6.60383">
        <ele>484.63160068406</ele>
        <time>2021-04-01T09:18:35.229Z</time>
      </trkpt>
      <trkpt lat="47.80526" lon="6.60363">
        <ele>482.690662276</ele>
        <time>2021-04-01T09:18:36.242Z</time>
      </trkpt>
      <trkpt lat="47.80476" lon="6.60298">
        <ele>480.64828897154</ele>
        <time>2021-04-01T09:18:37.266Z</time>
      </trkpt>
      <trkpt lat="47.80476" lon="6.60298">
        <ele>478.61872848865</ele>
        <time>2021-04-01T09:18:38.290Z</time>
      </trkpt>
      <trkpt lat="47.80422" lon="6.60271">
        <ele>476.47625458266</ele>
        <time>2021-04-01T09:18:39.323Z</time>
      </trkpt>
      <trkpt lat="47.80385" lon="6.60263">
        <ele>474.49924105745</ele>
        <time>2021-04-01T09:18:40.362Z</time>
      </trkpt>
      <trkpt lat="47.80338" lon="6.60272">
        <ele>472.22601254025</ele>
        <time>2021-04-01T09:18:41.409Z</time>
      </trkpt>
      <trkpt lat="47.80269" lon="6.60248">
        <ele>469.96020566513</ele>
        <time>2021-04-01T09:18:42.467Z</time>
      </trkpt>
      <trkpt lat="47.8025" lon="6.60247">
        <ele>467.8803789934</ele>
        <time>2021-04-01T09:18:43.528Z</time>
      </trkpt>
      <trkpt lat="47.80208" lon="6.6024">
        <ele>465.7337828719</ele>
        <time>2021-04-01T09:18:44.596Z</time>
      </trkpt>
      <trkpt lat="47.80173" lon="6.60267">
        <ele>463.53017951071</ele>
        <time>2021-04-01T09:18:45.670Z</time>
      </trkpt>
      <trkpt lat="47.80118" lon="6.60247">
        <ele>461.30430702714</ele>
        <time>2021-04-01T09:18:46.753Z</time>
      </trkpt>
      <trkpt lat="47.80061" lon="6.60171">
        <ele>459.15783718722</ele>
        <time>2021-04-01T09:18:47.848Z</time>
      </trkpt>
      <trkpt lat="47.80034" lon="6.6011">
        <ele>457.10838874396</ele>
        <time>2021-04-01T09:18:48.951Z</time>
      </trkpt>
      <trkpt lat="47.8" lon="6.60034">
        <ele>455.24313532557</ele>
        <time>2021-04-01T09:18:50.064Z</time>
      </trkpt>
      <trkpt lat="47.8" lon="6.60034">
        <ele>453.51168823829</ele>
        <time>2021-04-01T09:18:51.177Z</time>
      </trkpt>
      <trkpt lat="47.79967" lon="6.59943">
        <ele>451.65139591983</ele>
        <time>2021-04-01T09:18:52.301Z</time>
      </trkpt>
      <trkpt lat="47.8" lon="6.59896">
        <ele>449.96210365388</ele>
        <time>2021-04-01T09:18:53.433Z</time>
      </trkpt>
      <trkpt lat="47.80028" lon="6.59826">
        <ele>448.41395519695</ele>
        <time>2021-04-01T09:18:54.573Z</time>
      </trkpt>
      <trkpt lat="47.8006" lon="6.59703">
        <ele>446.96826845183</ele>
        <time>2021-04-01T09:18:55.728Z</time>
      </trkpt>
      <trkpt lat="47.80102" lon="6.59616">
        <ele>445.47685496506</ele>
        <time>2021-04-01T09:18:56.894Z</time>
      </trkpt>
      <trkpt lat="47.80121" lon="6.59426">
        <ele>443.91341788575</ele>
        <time>2021-04-01T09:18:58.081Z</time>
      </trkpt>
      <trkpt lat="47.80121" lon="6.59403">
        <ele>442.78862869532</ele>
        <time>2021-04-01T09:18:59.270Z</time>
      </trkpt>
      <trkpt lat="47.80121" lon="6.59386">
        <ele>439.70402024837</ele>
        <time>2021-04-01T09:19:00.461Z</time>
      </trkpt>
      <trkpt lat="47.8003" lon="6.59119">
        <ele>438.7084634763</ele>
        <time>2021-04-01T09:19:01.685Z</time>
      </trkpt>
      <trkpt lat="47.80026" lon="6.59085">
        <ele>437.68755660582</ele>
        <time>2021-04-01T09:19:02.912Z</time>
      </trkpt>
      <trkpt lat="47.80053" lon="6.58983">
        <ele>436.82126663392</ele>
        <time>2021-04-01T09:19:04.151Z</time>
      </trkpt>
      <trkpt lat="47.80096" lon="6.58916">
        <ele>435.95517493173</ele>
        <time>2021-04-01T09:19:05.400Z</time>
      </trkpt>
      <trkpt lat="47.80108" lon="6.58827">
        <ele>434.98699897745</ele>
        <time>2021-04-01T09:19:06.659Z</time>
      </trkpt>
      <trkpt lat="47.80132" lon="6.5874">
        <ele>434.05536352228</ele>
        <time>2021-04-01T09:19:07.928Z</time>
      </trkpt>
      <trkpt lat="47.80122" lon="6.58693">
        <ele>432.99206616305</ele>
        <time>2021-04-01T09:19:09.202Z</time>
      </trkpt>
      <trkpt lat="47.80095" lon="6.58617">
        <ele>431.85175488582</ele>
        <time>2021-04-01T09:19:10.486Z</time>
      </trkpt>
      <trkpt lat="47.80082" lon="6.58546">
        <ele>430.74618447232</ele>
        <time>2021-04-01T09:19:11.778Z</time>
      </trkpt>
      <trkpt lat="47.80044" lon="6.58429">
        <ele>429.35023949416</ele>
        <time>2021-04-01T09:19:13.084Z</time>
      </trkpt>
      <trkpt lat="47.80048" lon="6.5837">
        <ele>427.8634226686</ele>
        <time>2021-04-01T09:19:14.396Z</time>
      </trkpt>
      <trkpt lat="47.80044" lon="6.58315">
        <ele>426.30919595094</ele>
        <time>2021-04-01T09:19:15.714Z</time>
      </trkpt>
      <trkpt lat="47.80044" lon="6.58315">
        <ele>425.02794878905</ele>
        <time>2021-04-01T09:19:17.032Z</time>
      </trkpt>
      <trkpt lat="47.80039" lon="6.58242">
        <ele>423.3716830083</ele>
        <time>2021-04-01T09:19:18.358Z</time>
      </trkpt>
      <trkpt lat="47.80025" lon="6.58171">
        <ele>421.95355635688</ele>
        <time>2021-04-01T09:19:19.692Z</time>
      </trkpt>
      <trkpt lat="47.8" lon="6.58091">
        <ele>420.65428449115</ele>
        <time>2021-04-01T09:19:21.035Z</time>
      </trkpt>
      <trkpt lat="47.8" lon="6.58091">
        <ele>419.45047330155</ele>
        <time>2021-04-01T09:19:22.378Z</time>
      </trkpt>
      <trkpt lat="47.79999" lon="6.5805">
        <ele>418.29597763307</ele>
        <time>2021-04-01T09:19:23.726Z</time>
      </trkpt>
      <trkpt lat="47.8" lon="6.58042">
        <ele>417.19933494175</ele>
        <time>2021-04-01T09:19:25.074Z</time>
      </trkpt>
      <trkpt lat="47.8" lon="6.58042">
        <ele>416.16846860059</ele>
        <time>2021-04-01T09:19:26.422Z</time>
      </trkpt>
      <trkpt lat="47.80029" lon="6.57906">
        <ele>415.01046223334</ele>
        <time>2021-04-01T09:19:27.786Z</time>
      </trkpt>
      <trkpt lat="47.8003" lon="6.57888">
        <ele>414.12292386547</ele>
        <time>2021-04-01T09:19:29.152Z</time>
      </trkpt>
      <trkpt lat="47.80014" lon="6.57819">
        <ele>413.32053229552</ele>
        <time>2021-04-01T09:19:30.526Z</time>
      </trkpt>
      <trkpt lat="47.80019" lon="6.57773">
        <ele>412.5545016165</ele>
        <time>2021-04-01T09:19:31.905Z</time>
      </trkpt>
      <trkpt lat="47.80029" lon="6.57731">
        <ele>411.85335314537</ele>
        <time>2021-04-01T09:19:33.289Z</time>
      </trkpt>
      <trkpt lat="47.80045" lon="6.57695">
        <ele>411.354933764</ele>
        <time>2021-04-01T09:19:34.677Z</time>
      </trkpt>
      <trkpt lat="47.80079" lon="6.57662">
        <ele>411.09921649371</ele>
        <time>2021-04-01T09:19:36.072Z</time>
      </trkpt>
      <trkpt lat="47.80104" lon="6.57623">
        <ele>410.86958049126</ele>
        <time>2021-04-01T09:19:37.473Z</time>
      </trkpt>
      <trkpt lat="47.80141" lon="6.57526">
        <ele>410.83332663544</ele>
        <time>2021-04-01T09:19:38.885Z</time>
      </trkpt>
      <trkpt lat="47.80137" lon="6.57456">
        <ele>410.87709546336</ele>
        <time>2021-04-01T09:19:40.305Z</time>
      </trkpt>
      <trkpt lat="47.80146" lon="6.57405">
        <ele>411.11465568733</ele>
        <time>2021-04-01T09:19:41.731Z</time>
      </trkpt>
      <trkpt lat="47.80146" lon="6.57405">
        <ele>411.28665239488</ele>
        <time>2021-04-01T09:19:43.157Z</time>
      </trkpt>
      <trkpt lat="47.80131" lon="6.57332">
        <ele>411.47296623583</ele>
        <time>2021-04-01T09:19:44.591Z</time>
      </trkpt>
      <trkpt lat="47.80122" lon="6.57323">
        <ele>411.81965247331</ele>
        <time>2021-04-01T09:19:46.027Z</time>
      </trkpt>
      <trkpt lat="47.80082" lon="6.57327">
        <ele>412.15894889621</ele>
        <time>2021-04-01T09:19:47.469Z</time>
      </trkpt>
      <trkpt lat="47.80018" lon="6.57353">
        <ele>412.79378402205</ele>
        <time>2021-04-01T09:19:48.922Z</time>
      </trkpt>
      <trkpt lat="47.8" lon="6.57347">
        <ele>413.55772178678</ele>
        <time>2021-04-01T09:19:50.378Z</time>
      </trkpt>
      <trkpt lat="47.8" lon="6.57347">
        <ele>414.39494818815</ele>
        <time>2021-04-01T09:19:51.834Z</time>
      </trkpt>
      <trkpt lat="47.79948" lon="6.57318">
        <ele>415.13549449507</ele>
        <time>2021-04-01T09:19:53.299Z</time>
      </trkpt>
      <trkpt lat="47.79894" lon="6.573">
        <ele>416.09662247198</ele>
        <time>2021-04-01T09:19:54.773Z</time>
      </trkpt>
      <trkpt lat="47.79873" lon="6.57282">
        <ele>417.41353399344</ele>
        <time>2021-04-01T09:19:56.250Z</time>
      </trkpt>
      <trkpt lat="47.79856" lon="6.57259">
        <ele>418.86979053725</ele>
        <time>2021-04-01T09:19:57.731Z</time>
      </trkpt>
      <trkpt lat="47.79801" lon="6.57135">
        <ele>420.77111474259</ele>
        <time>2021-04-01T09:19:59.228Z</time>
      </trkpt>
      <trkpt lat="47.79783" lon="6.57093">
        <ele>422.25362419988</ele>
        <time>2021-04-01T09:20:00.730Z</time>
      </trkpt>
      <trkpt lat="47.79749" lon="6.57051">
        <ele>423.94538715314</ele>
        <time>2021-04-01T09:20:02.240Z</time>
      </trkpt>
      <trkpt lat="47.79704" lon="6.56964">
        <ele>425.45944011669</ele>
        <time>2021-04-01T09:20:03.761Z</time>
      </trkpt>
      <trkpt lat="47.79691" lon="6.56859">
        <ele>427.38920259349</ele>
        <time>2021-04-01T09:20:05.294Z</time>
      </trkpt>
      <trkpt lat="47.79687" lon="6.56847">
        <ele>429.08509449371</ele>
        <time>2021-04-01T09:20:06.828Z</time>
      </trkpt>
      <trkpt lat="47.79666" lon="6.56789">
        <ele>431.02497445863</ele>
        <time>2021-04-01T09:20:08.369Z</time>
      </trkpt>
      <trkpt lat="47.79639" lon="6.56757">
        <ele>432.84901696848</ele>
        <time>2021-04-01T09:20:09.916Z</time>
      </trkpt>
      <trkpt lat="47.79639" lon="6.56757">
        <ele>434.4409440253</ele>
        <time>2021-04-01T09:20:11.463Z</time>
      </trkpt>
      <trkpt lat="47.79633" lon="6.56752">
        <ele>436.01302396276</ele>
        <time>2021-04-01T09:20:13.011Z</time>
      </trkpt>
      <trkpt lat="47.79615" lon="6.56731">
        <ele>437.58538117454</ele>
        <time>2021-04-01T09:20:14.563Z</time>
      </trkpt>
      <trkpt lat="47.79599" lon="6.56725">
        <ele>439.03612697233</ele>
        <time>2021-04-01T09:20:16.117Z</time>
      </trkpt>
      <trkpt lat="47.79522" lon="6.56725">
        <ele>440.40597480764</ele>
        <time>2021-04-01T09:20:17.684Z</time>
      </trkpt>
      <trkpt lat="47.79483" lon="6.56697">
        <ele>441.83296077732</ele>
        <time>2021-04-01T09:20:19.258Z</time>
      </trkpt>
      <trkpt lat="47.79483" lon="6.56697">
        <ele>443.06372568624</ele>
        <time>2021-04-01T09:20:20.832Z</time>
      </trkpt>
      <trkpt lat="47.79475" lon="6.56692">
        <ele>444.23414229462</ele>
        <time>2021-04-01T09:20:22.407Z</time>
      </trkpt>
      <trkpt lat="47.79457" lon="6.56666">
        <ele>445.38372415519</ele>
        <time>2021-04-01T09:20:23.986Z</time>
      </trkpt>
      <trkpt lat="47.79421" lon="6.5661">
        <ele>446.57609348577</ele>
        <time>2021-04-01T09:20:25.573Z</time>
      </trkpt>
      <trkpt lat="47.79407" lon="6.56547">
        <ele>447.64619168276</ele>
        <time>2021-04-01T09:20:27.168Z</time>
      </trkpt>
      <trkpt lat="47.79409" lon="6.56523">
        <ele>448.53916141729</ele>
        <time>2021-04-01T09:20:28.765Z</time>
      </trkpt>
      <trkpt lat="47.79427" lon="6.56477">
        <ele>449.39623998145</ele>
        <time>2021-04-01T09:20:30.368Z</time>
      </trkpt>
      <trkpt lat="47.79429" lon="6.56412">
        <ele>450.17110986577</ele>
        <time>2021-04-01T09:20:31.978Z</time>
      </trkpt>
      <trkpt lat="47.79478" lon="6.56416">
        <ele>450.8768605837</ele>
        <time>2021-04-01T09:20:33.596Z</time>
      </trkpt>
      <trkpt lat="47.79529" lon="6.56379">
        <ele>451.55356161428</ele>
        <time>2021-04-01T09:20:35.223Z</time>
      </trkpt>
      <trkpt lat="47.79553" lon="6.56371">
        <ele>452.04092818237</ele>
        <time>2021-04-01T09:20:36.854Z</time>
      </trkpt>
      <trkpt lat="47.79625" lon="6.56352">
        <ele>452.35913494248</ele>
        <time>2021-04-01T09:20:38.496Z</time>
      </trkpt>
      <trkpt lat="47.79707" lon="6.56259">
        <ele>452.4752035718</ele>
        <time>2021-04-01T09:20:40.155Z</time>
      </trkpt>
      <trkpt lat="47.79732" lon="6.56242">
        <ele>452.89516486267</ele>
        <time>2021-04-01T09:20:41.818Z</time>
      </trkpt>
      <trkpt lat="47.7977" lon="6.56242">
        <ele>453.1834702409</ele>
        <time>2021-04-01T09:20:43.488Z</time>
      </trkpt>
      <trkpt lat="47.79774" lon="6.56243">
        <ele>453.58462107902</ele>
        <time>2021-04-01T09:20:45.158Z</time>
      </trkpt>
      <trkpt lat="47.79774" lon="6.56243">
        <ele>454.03389511778</ele>
        <time>2021-04-01T09:20:46.828Z</time>
      </trkpt>
      <trkpt lat="47.79839" lon="6.56268">
        <ele>454.46831473092</ele>
        <time>2021-04-01T09:20:48.509Z</time>
      </trkpt>
      <trkpt lat="47.79917" lon="6.56264">
        <ele>455.25877014759</ele>
        <time>2021-04-01T09:20:50.202Z</time>
      </trkpt>
      <trkpt lat="47.8" lon="6.56259">
        <ele>456.08148593808</ele>
        <time>2021-04-01T09:20:51.909Z</time>
      </trkpt>
      <trkpt lat="47.80064" lon="6.56255">
        <ele>456.61462538029</ele>
        <time>2021-04-01T09:20:53.626Z</time>
      </trkpt>
      <trkpt lat="47.80128" lon="6.56209">
        <ele>457.03037305448</ele>
        <time>2021-04-01T09:20:55.354Z</time>
      </trkpt>
      <trkpt lat="47.80142" lon="6.56187">
        <ele>457.79335173065</ele>
        <time>2021-04-01T09:20:57.086Z</time>
      </trkpt>
      <trkpt lat="47.80142" lon="6.56187">
        <ele>458.51835262068</ele>
        <time>2021-04-01T09:20:58.818Z</time>
      </trkpt>
      <trkpt lat="47.80201" lon="6.56013">
        <ele>459.3959027404</ele>
        <time>2021-04-01T09:21:00.571Z</time>
      </trkpt>
      <trkpt lat="47.80219" lon="6.55973">
        <ele>460.23988434616</ele>
        <time>2021-04-01T09:21:02.329Z</time>
      </trkpt>
      <trkpt lat="47.8025" lon="6.55955">
        <ele>461.47302929077</ele>
        <time>2021-04-01T09:21:04.092Z</time>
      </trkpt>
      <trkpt lat="47.80263" lon="6.55961">
        <ele>462.34239185848</ele>
        <time>2021-04-01T09:21:05.857Z</time>
      </trkpt>
      <trkpt lat="47.8037" lon="6.56116">
        <ele>463.00801714101</ele>
        <time>2021-04-01T09:21:07.646Z</time>
      </trkpt>
      <trkpt lat="47.80407" lon="6.56153">
        <ele>463.60479957311</ele>
        <time>2021-04-01T09:21:09.442Z</time>
      </trkpt>
      <trkpt lat="47.80427" lon="6.56164">
        <ele>464.17311491302</ele>
        <time>2021-04-01T09:21:11.242Z</time>
      </trkpt>
      <trkpt lat="47.80598" lon="6.56074">
        <ele>465.63689430593</ele>
        <time>2021-04-01T09:21:13.071Z</time>
      </trkpt>
      <trkpt lat="47.80706" lon="6.55944">
        <ele>465.55498006741</ele>
        <time>2021-04-01T09:21:14.922Z</time>
      </trkpt>
      <trkpt lat="47.80715" lon="6.55907">
        <ele>465.79782655434</ele>
        <time>2021-04-01T09:21:16.777Z</time>
      </trkpt>
      <trkpt lat="47.80707" lon="6.5582">
        <ele>465.67372832936</ele>
        <time>2021-04-01T09:21:18.642Z</time>
      </trkpt>
      <trkpt lat="47.80709" lon="6.55784">
        <ele>465.51279314697</ele>
        <time>2021-04-01T09:21:20.511Z</time>
      </trkpt>
      <trkpt lat="47.80722" lon="6.55758">
        <ele>465.28739713195</ele>
        <time>2021-04-01T09:21:22.383Z</time>
      </trkpt>
      <trkpt lat="47.80763" lon="6.55729">
        <ele>464.78166493291</ele>
        <time>2021-04-01T09:21:24.262Z</time>
      </trkpt>
      <trkpt lat="47.80795" lon="6.55691">
        <ele>464.45831553522</ele>
        <time>2021-04-01T09:21:26.148Z</time>
      </trkpt>
      <trkpt lat="47.80812" lon="6.55647">
        <ele>464.20479588526</ele>
        <time>2021-04-01T09:21:28.040Z</time>
      </trkpt>
      <trkpt lat="47.80812" lon="6.55647">
        <ele>463.8954565579</ele>
        <time>2021-04-01T09:21:29.932Z</time>
      </trkpt>
      <trkpt lat="47.80832" lon="6.55543">
        <ele>463.41826250078</ele>
        <time>2021-04-01T09:21:31.835Z</time>
      </trkpt>
      <trkpt lat="47.80874" lon="6.55481">
        <ele>463.0427054889</ele>
        <time>2021-04-01T09:21:33.748Z</time>
      </trkpt>
      <trkpt lat="47.80881" lon="6.5546">
        <ele>462.52478087127</ele>
        <time>2021-04-01T09:21:35.663Z</time>
      </trkpt>
      <trkpt lat="47.80878" lon="6.55396">
        <ele>462.24898521483</ele>
        <time>2021-04-01T09:21:37.585Z</time>
      </trkpt>
      <trkpt lat="47.80878" lon="6.55396">
        <ele>461.50267972538</ele>
        <time>2021-04-01T09:21:39.507Z</time>
      </trkpt>
      <trkpt lat="47.80876" lon="6.55352">
        <ele>460.87623967345</ele>
        <time>2021-04-01T09:21:41.434Z</time>
      </trkpt>
      <trkpt lat="47.80896" lon="6.55263">
        <ele>459.87830632831</ele>
        <time>2021-04-01T09:21:43.371Z</time>
      </trkpt>
      <trkpt lat="47.80957" lon="6.55118">
        <ele>458.38393717719</ele>
        <time>2021-04-01T09:21:45.327Z</time>
      </trkpt>
      <trkpt lat="47.81027" lon="6.5505">
        <ele>456.53891407267</ele>
        <time>2021-04-01T09:21:47.296Z</time>
      </trkpt>
      <trkpt lat="47.81062" lon="6.55036">
        <ele>454.81618448168</ele>
        <time>2021-04-01T09:21:49.271Z</time>
      </trkpt>
      <trkpt lat="47.81097" lon="6.55051">
        <ele>452.93863825908</ele>
        <time>2021-04-01T09:21:51.251Z</time>
      </trkpt>
      <trkpt lat="47.81141" lon="6.55104">
        <ele>451.20299216398</ele>
        <time>2021-04-01T09:21:53.240Z</time>
      </trkpt>
      <trkpt lat="47.81138" lon="6.5515">
        <ele>449.02992996039</ele>
        <time>2021-04-01T09:21:55.234Z</time>
      </trkpt>
      <trkpt lat="47.81149" lon="6.55196">
        <ele>446.56948381718</ele>
        <time>2021-04-01T09:21:57.234Z</time>
      </trkpt>
      <trkpt lat="47.81167" lon="6.55214">
        <ele>444.09409996147</ele>
        <time>2021-04-01T09:21:59.237Z</time>
      </trkpt>
      <trkpt lat="47.81208" lon="6.55218">
        <ele>441.66214932722</ele>
        <time>2021-04-01T09:22:01.247Z</time>
      </trkpt>
      <trkpt lat="47.81224" lon="6.55206">
        <ele>438.87192376401</ele>
        <time>2021-04-01T09:22:03.260Z</time>
      </trkpt>
      <trkpt lat="47.81234" lon="6.55186">
        <ele>435.82153515529</ele>
        <time>2021-04-01T09:22:05.275Z</time>
      </trkpt>
      <trkpt lat="47.81248" lon="6.55083">
        <ele>432.41436101565</ele>
        <time>2021-04-01T09:22:07.302Z</time>
      </trkpt>
      <trkpt lat="47.81255" lon="6.55064">
        <ele>428.83815484374</ele>
        <time>2021-04-01T09:22:09.331Z</time>
      </trkpt>
      <trkpt lat="47.81268" lon="6.55056">
        <ele>425.03462331237</ele>
        <time>2021-04-01T09:22:11.362Z</time>
      </trkpt>
      <trkpt lat="47.81292" lon="6.55064">
        <ele>421.0173610829</ele>
        <time>2021-04-01T09:22:13.397Z</time>
      </trkpt>
      <trkpt lat="47.81553" lon="6.55429">
        <ele>415.72925627849</ele>
        <time>2021-04-01T09:22:15.490Z</time>
      </trkpt>
      <trkpt lat="47.81591" lon="6.55448">
        <ele>411.66704779154</ele>
        <time>2021-04-01T09:22:17.589Z</time>
      </trkpt>
      <trkpt lat="47.81675" lon="6.55432">
        <ele>407.80246913576</ele>
        <time>2021-04-01T09:22:19.702Z</time>
      </trkpt>
      <trkpt lat="47.81698" lon="6.55418">
        <ele>403.77097011746</ele>
        <time>2021-04-01T09:22:21.819Z</time>
      </trkpt>
      <trkpt lat="47.81799" lon="6.55393">
        <ele>399.13938809042</ele>
        <time>2021-04-01T09:22:23.952Z</time>
      </trkpt>
      <trkpt lat="47.81944" lon="6.55406">
        <ele>394.74349112775</ele>
        <time>2021-04-01T09:22:26.108Z</time>
      </trkpt>
      <trkpt lat="47.81951" lon="6.55404">
        <ele>390.96717266641</ele>
        <time>2021-04-01T09:22:28.265Z</time>
      </trkpt>
      <trkpt lat="47.81951" lon="6.55404">
        <ele>387.313408543</ele>
        <time>2021-04-01T09:22:30.422Z</time>
      </trkpt>
      <trkpt lat="47.82083" lon="6.55349">
        <ele>384.01916354366</ele>
        <time>2021-04-01T09:22:32.601Z</time>
      </trkpt>
      <trkpt lat="47.82119" lon="6.55346">
        <ele>380.71335637659</ele>
        <time>2021-04-01T09:22:34.786Z</time>
      </trkpt>
      <trkpt lat="47.82154" lon="6.55363">
        <ele>376.97475236778</ele>
        <time>2021-04-01T09:22:36.977Z</time>
      </trkpt>
      <trkpt lat="47.82166" lon="6.55381">
        <ele>373.68561241056</ele>
        <time>2021-04-01T09:22:39.171Z</time>
      </trkpt>
      <trkpt lat="47.82239" lon="6.55558">
        <ele>370.29449812927</ele>
        <time>2021-04-01T09:22:41.387Z</time>
      </trkpt>
      <trkpt lat="47.82269" lon="6.5559">
        <ele>367.60069002311</ele>
        <time>2021-04-01T09:22:43.609Z</time>
      </trkpt>
      <trkpt lat="47.82269" lon="6.5559">
        <ele>365.25860432546</ele>
        <time>2021-04-01T09:22:45.831Z</time>
      </trkpt>
      <trkpt lat="47.82373" lon="6.55626">
        <ele>362.79087629534</ele>
        <time>2021-04-01T09:22:48.070Z</time>
      </trkpt>
      <trkpt lat="47.82436" lon="6.55627">
        <ele>361.03440236327</ele>
        <time>2021-04-01T09:22:50.319Z</time>
      </trkpt>
      <trkpt lat="47.82598" lon="6.55592">
        <ele>359.26210760145</ele>
        <time>2021-04-01T09:22:52.594Z</time>
      </trkpt>
      <trkpt lat="47.82598" lon="6.55592">
        <ele>357.91928589494</ele>
        <time>2021-04-01T09:22:54.869Z</time>
      </trkpt>
      <trkpt lat="47.82713" lon="6.55568">
        <ele>357.18902344958</ele>
        <time>2021-04-01T09:22:57.163Z</time>
      </trkpt>
      <trkpt lat="47.82769" lon="6.55536">
        <ele>356.43563624754</ele>
        <time>2021-04-01T09:22:59.467Z</time>
      </trkpt>
      <trkpt lat="47.82826" lon="6.55546">
        <ele>355.63749869006</ele>
        <time>2021-04-01T09:23:01.780Z</time>
      </trkpt>
      <trkpt lat="47.82946" lon="6.55501">
        <ele>354.79714524357</ele>
        <time>2021-04-01T09:23:04.113Z</time>
      </trkpt>
      <trkpt lat="47.82966" lon="6.55504">
        <ele>354.47426808006</ele>
        <time>2021-04-01T09:23:06.449Z</time>
      </trkpt>
      <trkpt lat="47.8331" lon="6.55831">
        <ele>354.25142095461</ele>
        <time>2021-04-01T09:23:08.850Z</time>
      </trkpt>
      <trkpt lat="47.8331" lon="6.55831">
        <ele>354.29021932895</ele>
        <time>2021-04-01T09:23:11.251Z</time>
      </trkpt>
      <trkpt lat="47.83418" lon="6.55934">
        <ele>354.34840209129</ele>
        <time>2021-04-01T09:23:13.673Z</time>
      </trkpt>
      <trkpt lat="47.83489" lon="6.55998">
        <ele>354.87109093183</ele>
        <time>2021-04-01T09:23:16.108Z</time>
      </trkpt>
      <trkpt lat="47.83564" lon="6.56051">
        <ele>355.25180991274</ele>
        <time>2021-04-01T09:23:18.556Z</time>
      </trkpt>
      <trkpt lat="47.83755" lon="6.56185">
        <ele>355.95337589799</ele>
        <time>2021-04-01T09:23:21.038Z</time>
      </trkpt>
      <trkpt lat="47.83885" lon="6.56302">
        <ele>356.5513065745</ele>
        <time>2021-04-01T09:23:23.544Z</time>
      </trkpt>
      <trkpt lat="47.83968" lon="6.56387">
        <ele>364.43156405976</ele>
        <time>2021-04-01T09:23:26.067Z</time>
      </trkpt>
      <trkpt lat="47.84019" lon="6.56389">
        <ele>364.03419236225</ele>
        <time>2021-04-01T09:23:28.598Z</time>
      </trkpt>
      <trkpt lat="47.84137" lon="6.56453">
        <ele>359.23117980247</ele>
        <time>2021-04-01T09:23:31.149Z</time>
      </trkpt>
      <trkpt lat="47.8415" lon="6.56458">
        <ele>359.86973937136</ele>
        <time>2021-04-01T09:23:33.702Z</time>
      </trkpt>
      <trkpt lat="47.84169" lon="6.56452">
        <ele>360.39818356817</ele>
        <time>2021-04-01T09:23:36.258Z</time>
      </trkpt>
      <trkpt lat="47.84186" lon="6.56429">
        <ele>360.9057812249</ele>
        <time>2021-04-01T09:23:38.818Z</time>
      </trkpt>
      <trkpt lat="47.84195" lon="6.5642">
        <ele>361.5521477465</ele>
        <time>2021-04-01T09:23:41.380Z</time>
      </trkpt>
      <trkpt lat="47.84197" lon="6.56418">
        <ele>362.1948555069</ele>
        <time>2021-04-01T09:23:43.942Z</time>
      </trkpt>
      <trkpt lat="47.84197" lon="6.56418">
        <ele>362.82502899966</ele>
        <time>2021-04-01T09:23:46.504Z</time>
      </trkpt>
      <trkpt lat="47.84228" lon="6.56385">
        <ele>363.47165151807</ele>
        <time>2021-04-01T09:23:49.072Z</time>
      </trkpt>
      <trkpt lat="47.84266" lon="6.56383">
        <ele>364.22803645021</ele>
        <time>2021-04-01T09:23:51.646Z</time>
      </trkpt>
      <trkpt lat="47.84274" lon="6.56383">
        <ele>364.84028803408</ele>
        <time>2021-04-01T09:23:54.222Z</time>
      </trkpt>
      <trkpt lat="47.84307" lon="6.56384">
        <ele>365.44028349473</ele>
        <time>2021-04-01T09:23:56.803Z</time>
      </trkpt>
      <trkpt lat="47.84374" lon="6.56412">
        <ele>365.91868856617</ele>
        <time>2021-04-01T09:23:59.395Z</time>
      </trkpt>
      <trkpt lat="47.844" lon="6.56425">
        <ele>366.36405017241</ele>
        <time>2021-04-01T09:24:01.991Z</time>
      </trkpt>
      <trkpt lat="47.844" lon="6.56425">
        <ele>366.89346063193</ele>
        <time>2021-04-01T09:24:04.587Z</time>
      </trkpt>
      <trkpt lat="47.84409" lon="6.56427">
        <ele>367.39289675654</ele>
        <time>2021-04-01T09:24:07.185Z</time>
      </trkpt>
      <trkpt lat="47.84423" lon="6.56415">
        <ele>367.84672520948</ele>
        <time>2021-04-01T09:24:09.785Z</time>
      </trkpt>
      <trkpt lat="47.84429" lon="6.56411">
        <ele>368.37826709274</ele>
        <time>2021-04-01T09:24:12.386Z</time>
      </trkpt>
      <trkpt lat="47.84432" lon="6.56416">
        <ele>368.96666956686</ele>
        <time>2021-04-01T09:24:14.988Z</time>
      </trkpt>
      <trkpt lat="47.84444" lon="6.56432">
        <ele>369.56845380182</ele>
        <time>2021-04-01T09:24:17.593Z</time>
      </trkpt>
      <trkpt lat="47.84484" lon="6.56487">
        <ele>370.18338603155</ele>
        <time>2021-04-01T09:24:20.206Z</time>
      </trkpt>
      <trkpt lat="47.84494" lon="6.56514">
        <ele>370.84017536151</ele>
        <time>2021-04-01T09:24:22.823Z</time>
      </trkpt>
      <trkpt lat="47.845" lon="6.56537">
        <ele>371.55031670766</ele>
        <time>2021-04-01T09:24:25.442Z</time>
      </trkpt>
      <trkpt lat="47.84499" lon="6.56537">
        <ele>372.19130526866</ele>
        <time>2021-04-01T09:24:28.061Z</time>
      </trkpt>
      <trkpt lat="47.8453" lon="6.56678">
        <ele>373.27602274784</ele>
        <time>2021-04-01T09:24:30.696Z</time>
      </trkpt>
      <trkpt lat="47.84564" lon="6.56797">
        <ele>373.95843996562</ele>
        <time>2021-04-01T09:24:33.345Z</time>
      </trkpt>
      <trkpt lat="47.846" lon="6.56821">
        <ele>374.53045087045</ele>
        <time>2021-04-01T09:24:36.001Z</time>
      </trkpt>
      <trkpt lat="47.84642" lon="6.56814">
        <ele>374.89121812321</ele>
        <time>2021-04-01T09:24:38.663Z</time>
      </trkpt>
      <trkpt lat="47.8467" lon="6.56821">
        <ele>375.35653565878</ele>
        <time>2021-04-01T09:24:41.330Z</time>
      </trkpt>
      <trkpt lat="47.84711" lon="6.56877">
        <ele>376.18517501137</ele>
        <time>2021-04-01T09:24:44.006Z</time>
      </trkpt>
      <trkpt lat="47.84776" lon="6.56929">
        <ele>376.2504710562</ele>
        <time>2021-04-01T09:24:46.694Z</time>
      </trkpt>
      <trkpt lat="47.84786" lon="6.5694">
        <ele>376.41799737579</ele>
        <time>2021-04-01T09:24:49.384Z</time>
      </trkpt>
      <trkpt lat="47.84872" lon="6.57121">
        <ele>376.74579402783</ele>
        <time>2021-04-01T09:24:52.098Z</time>
      </trkpt>
      <trkpt lat="47.84911" lon="6.57258">
        <ele>376.96052239589</ele>
        <time>2021-04-01T09:24:54.828Z</time>
      </trkpt>
      <trkpt lat="47.84921" lon="6.57334">
        <ele>377.03121441784</ele>
        <time>2021-04-01T09:24:57.566Z</time>
      </trkpt>
      <trkpt lat="47.84921" lon="6.57334">
        <ele>376.77630352051</ele>
        <time>2021-04-01T09:25:00.304Z</time>
      </trkpt>
      <trkpt lat="47.84913" lon="6.57495">
        <ele>376.29838716639</ele>
        <time>2021-04-01T09:25:03.059Z</time>
      </trkpt>
      <trkpt lat="47.84916" lon="6.57538">
        <ele>375.73472860052</ele>
        <time>2021-04-01T09:25:05.819Z</time>
      </trkpt>
      <trkpt lat="47.84936" lon="6.57626">
        <ele>374.62457231495</ele>
        <time>2021-04-01T09:25:08.589Z</time>
      </trkpt>
      <trkpt lat="47.84944" lon="6.57724">
        <ele>373.78431380004</ele>
        <time>2021-04-01T09:25:11.370Z</time>
      </trkpt>
      <trkpt lat="47.84993" lon="6.57833">
        <ele>373.20336868987</ele>
        <time>2021-04-01T09:25:14.165Z</time>
      </trkpt>
      <trkpt lat="47.85" lon="6.57862">
        <ele>372.56760458282</ele>
        <time>2021-04-01T09:25:16.963Z</time>
      </trkpt>
      <trkpt lat="47.84986" lon="6.58035">
        <ele>371.88167929714</ele>
        <time>2021-04-01T09:25:19.780Z</time>
      </trkpt>
      <trkpt lat="47.8499" lon="6.58093">
        <ele>371.29980421873</ele>
        <time>2021-04-01T09:25:22.603Z</time>
      </trkpt>
      <trkpt lat="47.85003" lon="6.58164">
        <ele>370.81307671871</ele>
        <time>2021-04-01T09:25:25.434Z</time>
      </trkpt>
      <trkpt lat="47.85008" lon="6.58259">
        <ele>370.29494855839</ele>
        <time>2021-04-01T09:25:28.275Z</time>
      </trkpt>
      <trkpt lat="47.85006" lon="6.58282">
        <ele>369.85194608607</ele>
        <time>2021-04-01T09:25:31.119Z</time>
      </trkpt>
      <trkpt lat="47.84976" lon="6.58381">
        <ele>369.47374954339</ele>
        <time>2021-04-01T09:25:33.975Z</time>
      </trkpt>
      <trkpt lat="47.84973" lon="6.58389">
        <ele>369.22142795662</ele>
        <time>2021-04-01T09:25:36.832Z</time>
      </trkpt>
      <trkpt lat="47.84973" lon="6.58389">
        <ele>369.10492439256</ele>
        <time>2021-04-01T09:25:39.689Z</time>
      </trkpt>
      <trkpt lat="47.8488" lon="6.58631">
        <ele>369.33756517786</ele>
        <time>2021-04-01T09:25:42.576Z</time>
      </trkpt>
      <trkpt lat="47.84839" lon="6.5872">
        <ele>369.70779232111</ele>
        <time>2021-04-01T09:25:45.474Z</time>
      </trkpt>
      <trkpt lat="47.84833" lon="6.58752">
        <ele>370.05718668907</ele>
        <time>2021-04-01T09:25:48.376Z</time>
      </trkpt>
      <trkpt lat="47.8484" lon="6.5881">
        <ele>370.45673856394</ele>
        <time>2021-04-01T09:25:51.284Z</time>
      </trkpt>
      <trkpt lat="47.8483" lon="6.58859">
        <ele>371.26121475979</ele>
        <time>2021-04-01T09:25:54.198Z</time>
      </trkpt>
      <trkpt lat="47.84827" lon="6.58873">
        <ele>372.24546171517</ele>
        <time>2021-04-01T09:25:57.113Z</time>
      </trkpt>
      <trkpt lat="47.84819" lon="6.58879">
        <ele>373.49840032646</ele>
        <time>2021-04-01T09:26:00.030Z</time>
      </trkpt>
      <trkpt lat="47.84791" lon="6.58858">
        <ele>374.95135804523</ele>
        <time>2021-04-01T09:26:02.952Z</time>
      </trkpt>
      <trkpt lat="47.84745" lon="6.58808">
        <ele>376.69997717116</ele>
        <time>2021-04-01T09:26:05.883Z</time>
      </trkpt>
      <trkpt lat="47.84735" lon="6.58801">
        <ele>378.65200347485</ele>
        <time>2021-04-01T09:26:08.816Z</time>
      </trkpt>
      <trkpt lat="47.8471" lon="6.58804">
        <ele>380.88685937537</ele>
        <time>2021-04-01T09:26:11.753Z</time>
      </trkpt>
      <trkpt lat="47.84695" lon="6.58816">
        <ele>383.34986203709</ele>
        <time>2021-04-01T09:26:14.692Z</time>
      </trkpt>
      <trkpt lat="47.84686" lon="6.58832">
        <ele>386.02064445984</ele>
        <time>2021-04-01T09:26:17.634Z</time>
      </trkpt>
      <trkpt lat="47.84681" lon="6.58876">
        <ele>389.04643139249</ele>
        <time>2021-04-01T09:26:20.580Z</time>
      </trkpt>
      <trkpt lat="47.84688" lon="6.58905">
        <ele>392.45687742019</ele>
        <time>2021-04-01T09:26:23.530Z</time>
      </trkpt>
      <trkpt lat="47.84802" lon="6.58984">
        <ele>397.08672273996</ele>
        <time>2021-04-01T09:26:26.500Z</time>
      </trkpt>
      <trkpt lat="47.84798" lon="6.58996">
        <ele>401.14412238745</ele>
        <time>2021-04-01T09:26:29.471Z</time>
      </trkpt>
      <trkpt lat="47.84743" lon="6.58987">
        <ele>404.89250657908</ele>
        <time>2021-04-01T09:26:32.451Z</time>
      </trkpt>
      <trkpt lat="47.8473" lon="6.58994">
        <ele>409.06525851456</ele>
        <time>2021-04-01T09:26:35.433Z</time>
      </trkpt>
      <trkpt lat="47.84727" lon="6.59027">
        <ele>413.86358922088</ele>
        <time>2021-04-01T09:26:38.419Z</time>
      </trkpt>
      <trkpt lat="47.84755" lon="6.59019">
        <ele>419.00099372488</ele>
        <time>2021-04-01T09:26:41.410Z</time>
      </trkpt>
      <trkpt lat="47.8477" lon="6.59031">
        <ele>424.26052183861</ele>
        <time>2021-04-01T09:26:44.403Z</time>
      </trkpt>
      <trkpt lat="47.84847" lon="6.59123">
        <ele>430.99560210823</ele>
        <time>2021-04-01T09:26:47.412Z</time>
      </trkpt>
      <trkpt lat="47.84927" lon="6.59175">
        <ele>436.28302565779</ele>
        <time>2021-04-01T09:26:50.435Z</time>
      </trkpt>
      <trkpt lat="47.84961" lon="6.59209">
        <ele>441.82970780655</ele>
        <time>2021-04-01T09:26:53.465Z</time>
      </trkpt>
      <trkpt lat="47.84963" lon="6.59314">
        <ele>448.09374237576</ele>
        <time>2021-04-01T09:26:56.506Z</time>
      </trkpt>
      <trkpt lat="47.84984" lon="6.59475">
        <ele>454.1222642027</ele>
        <time>2021-04-01T09:26:59.565Z</time>
      </trkpt>
      <trkpt lat="47.84984" lon="6.59475">
        <ele>459.57631760802</ele>
        <time>2021-04-01T09:27:02.624Z</time>
      </trkpt>
      <trkpt lat="47.84987" lon="6.59533">
        <ele>465.23163901838</ele>
        <time>2021-04-01T09:27:05.689Z</time>
      </trkpt>
      <trkpt lat="47.84995" lon="6.59556">
        <ele>470.79709497416</ele>
        <time>2021-04-01T09:27:08.757Z</time>
      </trkpt>
      <trkpt lat="47.84999" lon="6.59563">
        <ele>476.21599783457</ele>
        <time>2021-04-01T09:27:11.826Z</time>
      </trkpt>
      <trkpt lat="47.84999" lon="6.59563">
        <ele>481.53027370667</ele>
        <time>2021-04-01T09:27:14.895Z</time>
      </trkpt>
      <trkpt lat="47.85069" lon="6.59697">
        <ele>487.81560161912</ele>
        <time>2021-04-01T09:27:17.982Z</time>
      </trkpt>
      <trkpt lat="47.85107" lon="6.59742">
        <ele>493.56577608368</ele>
        <time>2021-04-01T09:27:21.077Z</time>
      </trkpt>
      <trkpt lat="47.85102" lon="6.59754">
        <ele>498.69649955542</ele>
        <time>2021-04-01T09:27:24.173Z</time>
      </trkpt>
      <trkpt lat="47.85054" lon="6.59769">
        <ele>503.46310572718</ele>
        <time>2021-04-01T09:27:27.277Z</time>
      </trkpt>
      <trkpt lat="47.85044" lon="6.59788">
        <ele>508.41878407601</ele>
        <time>2021-04-01T09:27:30.384Z</time>
      </trkpt>
      <trkpt lat="47.8503" lon="6.59846">
        <ele>513.08382562765</ele>
        <time>2021-04-01T09:27:33.497Z</time>
      </trkpt>
      <trkpt lat="47.85037" lon="6.5988">
        <ele>518.04497052789</ele>
        <time>2021-04-01T09:27:36.614Z</time>
      </trkpt>
      <trkpt lat="47.85096" lon="6.59994">
        <ele>524.0927341817</ele>
        <time>2021-04-01T09:27:39.747Z</time>
      </trkpt>
      <trkpt lat="47.8512" lon="6.60058">
        <ele>529.21063885616</ele>
        <time>2021-04-01T09:27:42.888Z</time>
      </trkpt>
      <trkpt lat="47.85121" lon="6.60102">
        <ele>534.05436979981</ele>
        <time>2021-04-01T09:27:46.033Z</time>
      </trkpt>
      <trkpt lat="47.85077" lon="6.60152">
        <ele>538.38795373189</ele>
        <time>2021-04-01T09:27:49.187Z</time>
      </trkpt>
      <trkpt lat="47.85065" lon="6.60191">
        <ele>542.46470791328</ele>
        <time>2021-04-01T09:27:52.346Z</time>
      </trkpt>
      <trkpt lat="47.85105" lon="6.60331">
        <ele>547.7524896357</ele>
        <time>2021-04-01T09:27:55.521Z</time>
      </trkpt>
      <trkpt lat="47.85105" lon="6.60331">
        <ele>551.69237988157</ele>
        <time>2021-04-01T09:27:58.696Z</time>
      </trkpt>
      <trkpt lat="47.85122" lon="6.6044">
        <ele>555.52279510342</ele>
        <time>2021-04-01T09:28:01.883Z</time>
      </trkpt>
      <trkpt lat="47.85137" lon="6.60527">
        <ele>559.66486591341</ele>
        <time>2021-04-01T09:28:05.080Z</time>
      </trkpt>
      <trkpt lat="47.85146" lon="6.60552">
        <ele>563.05920980028</ele>
        <time>2021-04-01T09:28:08.280Z</time>
      </trkpt>
      <trkpt lat="47.8518" lon="6.60609">
        <ele>566.31049652223</ele>
        <time>2021-04-01T09:28:11.488Z</time>
      </trkpt>
      <trkpt lat="47.85233" lon="6.60803">
        <ele>569.73433192799</ele>
        <time>2021-04-01T09:28:14.719Z</time>
      </trkpt>
      <trkpt lat="47.85248" lon="6.60882">
        <ele>572.57116454492</ele>
        <time>2021-04-01T09:28:17.959Z</time>
      </trkpt>
      <trkpt lat="47.85246" lon="6.6106">
        <ele>575.51052022347</ele>
        <time>2021-04-01T09:28:21.218Z</time>
      </trkpt>
      <trkpt lat="47.85246" lon="6.6106">
        <ele>577.78025846586</ele>
        <time>2021-04-01T09:28:24.477Z</time>
      </trkpt>
      <trkpt lat="47.85284" lon="6.61115">
        <ele>579.99810929689</ele>
        <time>2021-04-01T09:28:27.744Z</time>
      </trkpt>
      <trkpt lat="47.85297" lon="6.61189">
        <ele>581.88074398405</ele>
        <time>2021-04-01T09:28:31.020Z</time>
      </trkpt>
      <trkpt lat="47.85279" lon="6.61277">
        <ele>583.65591693097</ele>
        <time>2021-04-01T09:28:34.305Z</time>
      </trkpt>
      <trkpt lat="47.85238" lon="6.61333">
        <ele>585.01849494256</ele>
        <time>2021-04-01T09:28:37.599Z</time>
      </trkpt>
      <trkpt lat="47.85228" lon="6.61395">
        <ele>586.2937449673</ele>
        <time>2021-04-01T09:28:40.900Z</time>
      </trkpt>
      <trkpt lat="47.85233" lon="6.61447">
        <ele>587.33242798208</ele>
        <time>2021-04-01T09:28:44.207Z</time>
      </trkpt>
      <trkpt lat="47.85236" lon="6.61482">
        <ele>588.2125545787</ele>
        <time>2021-04-01T09:28:47.518Z</time>
      </trkpt>
      <trkpt lat="47.85255" lon="6.61525">
        <ele>589.0681083868</ele>
        <time>2021-04-01T09:28:50.834Z</time>
      </trkpt>
      <trkpt lat="47.85279" lon="6.61554">
        <ele>589.82548139015</ele>
        <time>2021-04-01T09:28:54.155Z</time>
      </trkpt>
      <trkpt lat="47.8529" lon="6.61586">
        <ele>590.53155523764</ele>
        <time>2021-04-01T09:28:57.480Z</time>
      </trkpt>
      <trkpt lat="47.85289" lon="6.616">
        <ele>591.06449123058</ele>
        <time>2021-04-01T09:29:00.807Z</time>
      </trkpt>
      <trkpt lat="47.85306" lon="6.61692">
        <ele>591.67071315377</ele>
        <time>2021-04-01T09:29:04.144Z</time>
      </trkpt>
      <trkpt lat="47.85315" lon="6.61713">
        <ele>592.14735660722</ele>
        <time>2021-04-01T09:29:07.484Z</time>
      </trkpt>
      <trkpt lat="47.85333" lon="6.61714">
        <ele>592.59674773487</ele>
        <time>2021-04-01T09:29:10.826Z</time>
      </trkpt>
      <trkpt lat="47.85354" lon="6.61715">
        <ele>593.03105793998</ele>
        <time>2021-04-01T09:29:14.172Z</time>
      </trkpt>
      <trkpt lat="47.85406" lon="6.61755">
        <ele>593.47077201947</ele>
        <time>2021-04-01T09:29:17.527Z</time>
      </trkpt>
      <trkpt lat="47.85406" lon="6.61755">
        <ele>593.7295220468</ele>
        <time>2021-04-01T09:29:20.882Z</time>
      </trkpt>
      <trkpt lat="47.85416" lon="6.61762">
        <ele>593.97195167215</ele>
        <time>2021-04-01T09:29:24.239Z</time>
      </trkpt>
      <trkpt lat="47.85464" lon="6.61784">
        <ele>594.34427775555</ele>
        <time>2021-04-01T09:29:27.604Z</time>
      </trkpt>
      <trkpt lat="47.85487" lon="6.61802">
        <ele>594.63619093579</ele>
        <time>2021-04-01T09:29:30.973Z</time>
      </trkpt>
      <trkpt lat="47.85542" lon="6.61839">
        <ele>594.78022436193</ele>
        <time>2021-04-01T09:29:34.352Z</time>
      </trkpt>
      <trkpt lat="47.85542" lon="6.61839">
        <ele>594.9933567583</ele>
        <time>2021-04-01T09:29:37.731Z</time>
      </trkpt>
      <trkpt lat="47.85561" lon="6.61851">
        <ele>595.20210248584</ele>
        <time>2021-04-01T09:29:41.113Z</time>
      </trkpt>
      <trkpt lat="47.85584" lon="6.61884">
        <ele>595.42466239508</ele>
        <time>2021-04-01T09:29:44.500Z</time>
      </trkpt>
      <trkpt lat="47.85601" lon="6.61931">
        <ele>595.68567252604</ele>
        <time>2021-04-01T09:29:47.893Z</time>
      </trkpt>
      <trkpt lat="47.85616" lon="6.61996">
        <ele>596.05561113725</ele>
        <time>2021-04-01T09:29:51.293Z</time>
      </trkpt>
      <trkpt lat="47.85627" lon="6.62014">
        <ele>596.37916597748</ele>
        <time>2021-04-01T09:29:54.696Z</time>
      </trkpt>
      <trkpt lat="47.85691" lon="6.62056">
        <ele>596.75149962494</ele>
        <time>2021-04-01T09:29:58.110Z</time>
      </trkpt>
      <trkpt lat="47.85745" lon="6.62116">
        <ele>597.37415201065</ele>
        <time>2021-04-01T09:30:01.535Z</time>
      </trkpt>
      <trkpt lat="47.85789" lon="6.62133">
        <ele>597.87906948285</ele>
        <time>2021-04-01T09:30:04.967Z</time>
      </trkpt>
      <trkpt lat="47.85828" lon="6.62118">
        <ele>598.32716342353</ele>
        <time>2021-04-01T09:30:08.406Z</time>
      </trkpt>
      <trkpt lat="47.85918" lon="6.62147">
        <ele>599.00516715603</ele>
        <time>2021-04-01T09:30:11.859Z</time>
      </trkpt>
      <trkpt lat="47.85962" lon="6.62148">
        <ele>599.7056203005</ele>
        <time>2021-04-01T09:30:15.320Z</time>
      </trkpt>
      <trkpt lat="47.8603" lon="6.62138">
        <ele>600.19633553238</ele>
        <time>2021-04-01T09:30:18.791Z</time>
      </trkpt>
      <trkpt lat="47.86103" lon="6.62155">
        <ele>601.05584967199</ele>
        <time>2021-04-01T09:30:22.274Z</time>
      </trkpt>
      <trkpt lat="47.86122" lon="6.62178">
        <ele>601.86793060886</ele>
        <time>2021-04-01T09:30:25.761Z</time>
      </trkpt>
      <trkpt lat="47.86122" lon="6.62178">
        <ele>602.63403023291</ele>
        <time>2021-04-01T09:30:29.248Z</time>
      </trkpt>
      <trkpt lat="47.86169" lon="6.62236">
        <ele>603.67594078194</ele>
        <time>2021-04-01T09:30:32.745Z</time>
      </trkpt>
      <trkpt lat="47.86217" lon="6.62276">
        <ele>604.63989457223</ele>
        <time>2021-04-01T09:30:36.251Z</time>
      </trkpt>
      <trkpt lat="47.86217" lon="6.62276">
        <ele>605.44412769775</ele>
        <time>2021-04-01T09:30:39.757Z</time>
      </trkpt>
      <trkpt lat="47.86288" lon="6.62313">
        <ele>606.40915859167</ele>
        <time>2021-04-01T09:30:43.275Z</time>
      </trkpt>
      <trkpt lat="47.86302" lon="6.62329">
        <ele>607.20439010752</ele>
        <time>2021-04-01T09:30:46.796Z</time>
      </trkpt>
      <trkpt lat="47.86378" lon="6.62471">
        <ele>608.34624958707</ele>
        <time>2021-04-01T09:30:50.336Z</time>
      </trkpt>
      <trkpt lat="47.86425" lon="6.62522">
        <ele>609.21692002515</ele>
        <time>2021-04-01T09:30:53.886Z</time>
      </trkpt>
      <trkpt lat="47.86425" lon="6.62522">
        <ele>609.94570229604</ele>
        <time>2021-04-01T09:30:57.436Z</time>
      </trkpt>
      <trkpt lat="47.86442" lon="6.62571">
        <ele>610.65426821032</ele>
        <time>2021-04-01T09:31:00.991Z</time>
      </trkpt>
      <trkpt lat="47.86466" lon="6.6278">
        <ele>611.35911353352</ele>
        <time>2021-04-01T09:31:04.569Z</time>
      </trkpt>
      <trkpt lat="47.86484" lon="6.62865">
        <ele>611.85095343841</ele>
        <time>2021-04-01T09:31:08.157Z</time>
      </trkpt>
      <trkpt lat="47.86594" lon="6.63043">
        <ele>612.39865051695</ele>
        <time>2021-04-01T09:31:11.771Z</time>
      </trkpt>
      <trkpt lat="47.8662" lon="6.63074">
        <ele>613.05213376932</ele>
        <time>2021-04-01T09:31:15.390Z</time>
      </trkpt>
      <trkpt lat="47.86657" lon="6.63098">
        <ele>613.85687237941</ele>
        <time>2021-04-01T09:31:19.016Z</time>
      </trkpt>
      <trkpt lat="47.86696" lon="6.63186">
        <ele>614.77941797219</ele>
        <time>2021-04-01T09:31:22.653Z</time>
      </trkpt>
      <trkpt lat="47.8674" lon="6.63226">
        <ele>615.69450897447</ele>
        <time>2021-04-01T09:31:26.298Z</time>
      </trkpt>
      <trkpt lat="47.86781" lon="6.6328">
        <ele>616.78753676035</ele>
        <time>2021-04-01T09:31:29.952Z</time>
      </trkpt>
      <trkpt lat="47.86829" lon="6.6331">
        <ele>617.92868001301</ele>
        <time>2021-04-01T09:31:33.615Z</time>
      </trkpt>
      <trkpt lat="47.86847" lon="6.63342">
        <ele>619.1571407333</ele>
        <time>2021-04-01T09:31:37.282Z</time>
      </trkpt>
      <trkpt lat="47.86858" lon="6.63394">
        <ele>620.47325370109</ele>
        <time>2021-04-01T09:31:40.955Z</time>
      </trkpt>
      <trkpt lat="47.86878" lon="6.63438">
        <ele>621.80477048702</ele>
        <time>2021-04-01T09:31:44.634Z</time>
      </trkpt>
      <trkpt lat="47.86885" lon="6.63448">
        <ele>623.14320544388</ele>
        <time>2021-04-01T09:31:48.314Z</time>
      </trkpt>
      <trkpt lat="47.86927" lon="6.63499">
        <ele>624.60079897868</ele>
        <time>2021-04-01T09:31:52.003Z</time>
      </trkpt>
      <trkpt lat="47.86966" lon="6.63557">
        <ele>626.30959042291</ele>
        <time>2021-04-01T09:31:55.701Z</time>
      </trkpt>
      <trkpt lat="47.86995" lon="6.63673">
        <ele>627.99518728835</ele>
        <time>2021-04-01T09:31:59.412Z</time>
      </trkpt>
      <trkpt lat="47.86995" lon="6.63673">
        <ele>629.64762024682</ele>
        <time>2021-04-01T09:32:03.123Z</time>
      </trkpt>
      <trkpt lat="47.87035" lon="6.6373">
        <ele>631.54283256645</ele>
        <time>2021-04-01T09:32:06.843Z</time>
      </trkpt>
      <trkpt lat="47.87111" lon="6.63772">
        <ele>633.88236677492</ele>
        <time>2021-04-01T09:32:10.576Z</time>
      </trkpt>
      <trkpt lat="47.87179" lon="6.63847">
        <ele>635.77082535539</ele>
        <time>2021-04-01T09:32:14.322Z</time>
      </trkpt>
      <trkpt lat="47.87184" lon="6.63869">
        <ele>637.63259381628</ele>
        <time>2021-04-01T09:32:18.071Z</time>
      </trkpt>
      <trkpt lat="47.8718" lon="6.63895">
        <ele>639.56317848521</ele>
        <time>2021-04-01T09:32:21.823Z</time>
      </trkpt>
      <trkpt lat="47.8718" lon="6.63895">
        <ele>641.46794512262</ele>
        <time>2021-04-01T09:32:25.575Z</time>
      </trkpt>
      <trkpt lat="47.87179" lon="6.63903">
        <ele>643.41205652766</ele>
        <time>2021-04-01T09:32:29.328Z</time>
      </trkpt>
      <trkpt lat="47.87136" lon="6.63927">
        <ele>645.62455500895</ele>
        <time>2021-04-01T09:32:33.088Z</time>
      </trkpt>
      <trkpt lat="47.8713" lon="6.63942">
        <ele>647.70267496597</ele>
        <time>2021-04-01T09:32:36.850Z</time>
      </trkpt>
      <trkpt lat="47.87136" lon="6.63997">
        <ele>649.79840329633</ele>
        <time>2021-04-01T09:32:40.618Z</time>
      </trkpt>
      <trkpt lat="47.87136" lon="6.63997">
        <ele>651.7628087143</ele>
        <time>2021-04-01T09:32:44.386Z</time>
      </trkpt>
      <trkpt lat="47.87163" lon="6.64052">
        <ele>653.71165472856</ele>
        <time>2021-04-01T09:32:48.161Z</time>
      </trkpt>
      <trkpt lat="47.87164" lon="6.64089">
        <ele>655.85387219213</ele>
        <time>2021-04-01T09:32:51.940Z</time>
      </trkpt>
      <trkpt lat="47.87129" lon="6.64173">
        <ele>657.94706531367</ele>
        <time>2021-04-01T09:32:55.730Z</time>
      </trkpt>
      <trkpt lat="47.87126" lon="6.64216">
        <ele>659.81370516749</ele>
        <time>2021-04-01T09:32:59.524Z</time>
      </trkpt>
      <trkpt lat="47.87171" lon="6.64357">
        <ele>661.88125923106</ele>
        <time>2021-04-01T09:33:03.335Z</time>
      </trkpt>
      <trkpt lat="47.87189" lon="6.64473">
        <ele>663.7912927425</ele>
        <time>2021-04-01T09:33:07.159Z</time>
      </trkpt>
      <trkpt lat="47.87205" lon="6.64521">
        <ele>665.64715996441</ele>
        <time>2021-04-01T09:33:10.989Z</time>
      </trkpt>
      <trkpt lat="47.8723" lon="6.64567">
        <ele>667.61574144719</ele>
        <time>2021-04-01T09:33:14.825Z</time>
      </trkpt>
      <trkpt lat="47.87284" lon="6.64628">
        <ele>669.5751043947</ele>
        <time>2021-04-01T09:33:18.672Z</time>
      </trkpt>
      <trkpt lat="47.8729" lon="6.64647">
        <ele>671.19167292103</ele>
        <time>2021-04-01T09:33:22.521Z</time>
      </trkpt>
      <trkpt lat="47.8729" lon="6.64647">
        <ele>672.7270334078</ele>
        <time>2021-04-01T09:33:26.370Z</time>
      </trkpt>
      <trkpt lat="47.87288" lon="6.64718">
        <ele>674.40808457645</ele>
        <time>2021-04-01T09:33:30.227Z</time>
      </trkpt>
      <trkpt lat="47.87261" lon="6.64755">
        <ele>676.02706686019</ele>
        <time>2021-04-01T09:33:34.090Z</time>
      </trkpt>
      <trkpt lat="47.87226" lon="6.64774">
        <ele>677.18415292151</ele>
        <time>2021-04-01T09:33:37.959Z</time>
      </trkpt>
      <trkpt lat="47.87211" lon="6.64808">
        <ele>678.16133937367</ele>
        <time>2021-04-01T09:33:41.832Z</time>
      </trkpt>
      <trkpt lat="47.87209" lon="6.64841">
        <ele>679.02297642319</ele>
        <time>2021-04-01T09:33:45.709Z</time>
      </trkpt>
      <trkpt lat="47.87221" lon="6.64978">
        <ele>679.80703159436</ele>
        <time>2021-04-01T09:33:49.601Z</time>
      </trkpt>
      <trkpt lat="47.87221" lon="6.64978">
        <ele>680.35038017619</ele>
        <time>2021-04-01T09:33:53.493Z</time>
      </trkpt>
      <trkpt lat="47.87166" lon="6.651">
        <ele>680.53858482985</ele>
        <time>2021-04-01T09:33:57.400Z</time>
      </trkpt>
      <trkpt lat="47.8708" lon="6.65266">
        <ele>680.76419572825</ele>
        <time>2021-04-01T09:34:01.330Z</time>
      </trkpt>
      <trkpt lat="47.87068" lon="6.65303">
        <ele>680.72861139282</ele>
        <time>2021-04-01T09:34:05.264Z</time>
      </trkpt>
      <trkpt lat="47.87058" lon="6.65435">
        <ele>680.61642557718</ele>
        <time>2021-04-01T09:34:09.213Z</time>
      </trkpt>
      <trkpt lat="47.87005" lon="6.65753">
        <ele>680.06092553604</ele>
        <time>2021-04-01T09:34:13.197Z</time>
      </trkpt>
      <trkpt lat="47.87005" lon="6.65753">
        <ele>679.45422918644</ele>
        <time>2021-04-01T09:34:17.181Z</time>
      </trkpt>
      <trkpt lat="47.87" lon="6.65866">
        <ele>678.70659906616</ele>
        <time>2021-04-01T09:34:21.177Z</time>
      </trkpt>
      <trkpt lat="47.87004" lon="6.659">
        <ele>677.88215039356</ele>
        <time>2021-04-01T09:34:25.177Z</time>
      </trkpt>
      <trkpt lat="47.87022" lon="6.65967">
        <ele>676.67763747934</ele>
        <time>2021-04-01T09:34:29.185Z</time>
      </trkpt>
      <trkpt lat="47.87024" lon="6.66032">
        <ele>675.11657760183</ele>
        <time>2021-04-01T09:34:33.200Z</time>
      </trkpt>
      <trkpt lat="47.87018" lon="6.6619">
        <ele>673.51227306088</ele>
        <time>2021-04-01T09:34:37.232Z</time>
      </trkpt>
      <trkpt lat="47.87039" lon="6.6636">
        <ele>671.44043785547</ele>
        <time>2021-04-01T09:34:41.282Z</time>
      </trkpt>
      <trkpt lat="47.87039" lon="6.6636">
        <ele>669.26669160145</ele>
        <time>2021-04-01T09:34:45.332Z</time>
      </trkpt>
      <trkpt lat="47.87048" lon="6.6643">
        <ele>666.90781861527</ele>
        <time>2021-04-01T09:34:49.390Z</time>
      </trkpt>
      <trkpt lat="47.87125" lon="6.66174">
        <ele>663.95982165367</ele>
        <time>2021-04-01T09:34:53.478Z</time>
      </trkpt>
      <trkpt lat="47.87151" lon="6.66145">
        <ele>661.00111186561</ele>
        <time>2021-04-01T09:34:57.572Z</time>
      </trkpt>
      <trkpt lat="47.87197" lon="6.66059">
        <ele>657.8642720037</ele>
        <time>2021-04-01T09:35:01.677Z</time>
      </trkpt>
      <trkpt lat="47.87299" lon="6.65953">
        <ele>654.16740468458</ele>
        <time>2021-04-01T09:35:05.802Z</time>
      </trkpt>
      <trkpt lat="47.87347" lon="6.65886">
        <ele>650.95817152706</ele>
        <time>2021-04-01T09:35:09.938Z</time>
      </trkpt>
      <trkpt lat="47.87371" lon="6.65874">
        <ele>647.98281393362</ele>
        <time>2021-04-01T09:35:14.078Z</time>
      </trkpt>
      <trkpt lat="47.87443" lon="6.65918">
        <ele>644.38043496621</ele>
        <time>2021-04-01T09:35:18.230Z</time>
      </trkpt>
      <trkpt lat="47.87451" lon="6.65955">
        <ele>641.17708179217</ele>
        <time>2021-04-01T09:35:22.387Z</time>
      </trkpt>
      <trkpt lat="47.87459" lon="6.65957">
        <ele>638.37669554554</ele>
        <time>2021-04-01T09:35:26.545Z</time>
      </trkpt>
      <trkpt lat="47.87479" lon="6.65942">
        <ele>635.68864356328</ele>
        <time>2021-04-01T09:35:30.706Z</time>
      </trkpt>
      <trkpt lat="47.87504" lon="6.65947">
        <ele>632.98992106176</ele>
        <time>2021-04-01T09:35:34.871Z</time>
      </trkpt>
      <trkpt lat="47.8751" lon="6.65981">
        <ele>630.39622664477</ele>
        <time>2021-04-01T09:35:39.040Z</time>
      </trkpt>
      <trkpt lat="47.87509" lon="6.66061">
        <ele>627.97549162278</ele>
        <time>2021-04-01T09:35:43.218Z</time>
      </trkpt>
      <trkpt lat="47.87509" lon="6.66061">
        <ele>625.93107844874</ele>
        <time>2021-04-01T09:35:47.396Z</time>
      </trkpt>
      <trkpt lat="47.87511" lon="6.6607">
        <ele>623.97135787406</ele>
        <time>2021-04-01T09:35:51.575Z</time>
      </trkpt>
      <trkpt lat="47.87549" lon="6.66171">
        <ele>622.20448209738</ele>
        <time>2021-04-01T09:35:55.766Z</time>
      </trkpt>
      <trkpt lat="47.87581" lon="6.66239">
        <ele>620.86928126632</ele>
        <time>2021-04-01T09:35:59.966Z</time>
      </trkpt>
      <trkpt lat="47.87586" lon="6.6625">
        <ele>619.25061252615</ele>
        <time>2021-04-01T09:36:04.168Z</time>
      </trkpt>
      <trkpt lat="47.8761" lon="6.66261">
        <ele>617.5798842687</ele>
        <time>2021-04-01T09:36:08.374Z</time>
      </trkpt>
      <trkpt lat="47.87643" lon="6.66258">
        <ele>615.77701728056</ele>
        <time>2021-04-01T09:36:12.585Z</time>
      </trkpt>
      <trkpt lat="47.87726" lon="6.66156">
        <ele>613.96272130716</ele>
        <time>2021-04-01T09:36:16.813Z</time>
      </trkpt>
      <trkpt lat="47.87736" lon="6.66119">
        <ele>611.94579568061</ele>
        <time>2021-04-01T09:36:21.045Z</time>
      </trkpt>
      <trkpt lat="47.87736" lon="6.66119">
        <ele>609.99132233391</ele>
        <time>2021-04-01T09:36:25.277Z</time>
      </trkpt>
      <trkpt lat="47.8775" lon="6.66069">
        <ele>607.46591851079</ele>
        <time>2021-04-01T09:36:29.515Z</time>
      </trkpt>
      <trkpt lat="47.87762" lon="6.66052">
        <ele>605.1143993849</ele>
        <time>2021-04-01T09:36:33.756Z</time>
      </trkpt>
      <trkpt lat="47.87835" lon="6.66008">
        <ele>602.66532427282</ele>
        <time>2021-04-01T09:36:38.010Z</time>
      </trkpt>
      <trkpt lat="47.87936" lon="6.65869">
        <ele>599.6653227726</ele>
        <time>2021-04-01T09:36:42.286Z</time>
      </trkpt>
      <trkpt lat="47.88028" lon="6.65828">
        <ele>596.51247643231</ele>
        <time>2021-04-01T09:36:46.577Z</time>
      </trkpt>
      <trkpt lat="47.88055" lon="6.65799">
        <ele>593.64129861211</ele>
        <time>2021-04-01T09:36:50.873Z</time>
      </trkpt>
      <trkpt lat="47.88084" lon="6.65788">
        <ele>590.68947119426</ele>
        <time>2021-04-01T09:36:55.174Z</time>
      </trkpt>
      <trkpt lat="47.88139" lon="6.65727">
        <ele>587.0112728293</ele>
        <time>2021-04-01T09:36:59.486Z</time>
      </trkpt>
      <trkpt lat="47.8817" lon="6.65705">
        <ele>583.4823348238</ele>
        <time>2021-04-01T09:37:03.804Z</time>
      </trkpt>
      <trkpt lat="47.88196" lon="6.65663">
        <ele>579.81506215832</ele>
        <time>2021-04-01T09:37:08.128Z</time>
      </trkpt>
      <trkpt lat="47.88204" lon="6.65619">
        <ele>575.63403095236</ele>
        <time>2021-04-01T09:37:12.457Z</time>
      </trkpt>
      <trkpt lat="47.88233" lon="6.65577">
        <ele>571.39076953471</ele>
        <time>2021-04-01T09:37:16.792Z</time>
      </trkpt>
      <trkpt lat="47.88296" lon="6.65455">
        <ele>566.43949737843</ele>
        <time>2021-04-01T09:37:21.144Z</time>
      </trkpt>
      <trkpt lat="47.88314" lon="6.65439">
        <ele>561.96466872794</ele>
        <time>2021-04-01T09:37:25.499Z</time>
      </trkpt>
      <trkpt lat="47.88354" lon="6.65424">
        <ele>557.40927981648</ele>
        <time>2021-04-01T09:37:29.861Z</time>
      </trkpt>
      <trkpt lat="47.88399" lon="6.65324">
        <ele>552.77610930122</ele>
        <time>2021-04-01T09:37:34.235Z</time>
      </trkpt>
      <trkpt lat="47.88399" lon="6.65324">
        <ele>548.30983862711</ele>
        <time>2021-04-01T09:37:38.609Z</time>
      </trkpt>
      <trkpt lat="47.88497" lon="6.65125">
        <ele>543.06885316425</ele>
        <time>2021-04-01T09:37:43.010Z</time>
      </trkpt>
      <trkpt lat="47.88507" lon="6.6509">
        <ele>538.43767288848</ele>
        <time>2021-04-01T09:37:47.415Z</time>
      </trkpt>
      <trkpt lat="47.88532" lon="6.64879">
        <ele>533.86345564711</ele>
        <time>2021-04-01T09:37:51.843Z</time>
      </trkpt>
      <trkpt lat="47.88554" lon="6.64849">
        <ele>529.21342876143</ele>
        <time>2021-04-01T09:37:56.276Z</time>
      </trkpt>
      <trkpt lat="47.88613" lon="6.64797">
        <ele>524.41243859394</ele>
        <time>2021-04-01T09:38:00.720Z</time>
      </trkpt>
      <trkpt lat="47.88642" lon="6.64751">
        <ele>519.60851354361</ele>
        <time>2021-04-01T09:38:05.171Z</time>
      </trkpt>
      <trkpt lat="47.88714" lon="6.6448">
        <ele>514.4764852356</ele>
        <time>2021-04-01T09:38:09.653Z</time>
      </trkpt>
      <trkpt lat="47.88714" lon="6.6448">
        <ele>510.34714630623</ele>
        <time>2021-04-01T09:38:14.135Z</time>
      </trkpt>
      <trkpt lat="47.8872" lon="6.64438">
        <ele>506.3108223867</ele>
        <time>2021-04-01T09:38:18.622Z</time>
      </trkpt>
      <trkpt lat="47.8872" lon="6.64438">
        <ele>502.4654055021</ele>
        <time>2021-04-01T09:38:23.109Z</time>
      </trkpt>
      <trkpt lat="47.88729" lon="6.64379">
        <ele>498.65330979176</ele>
        <time>2021-04-01T09:38:27.602Z</time>
      </trkpt>
      <trkpt lat="47.88802" lon="6.64244">
        <ele>494.55681191788</ele>
        <time>2021-04-01T09:38:32.114Z</time>
      </trkpt>
      <trkpt lat="47.88831" lon="6.64166">
        <ele>491.08935221439</ele>
        <time>2021-04-01T09:38:36.636Z</time>
      </trkpt>
      <trkpt lat="47.88848" lon="6.64139">
        <ele>487.9078520604</ele>
        <time>2021-04-01T09:38:41.162Z</time>
      </trkpt>
      <trkpt lat="47.88859" lon="6.64104">
        <ele>484.82501443971</ele>
        <time>2021-04-01T09:38:45.692Z</time>
      </trkpt>
      <trkpt lat="47.88864" lon="6.64023">
        <ele>481.83314845773</ele>
        <time>2021-04-01T09:38:50.231Z</time>
      </trkpt>
      <trkpt lat="47.88888" lon="6.6397">
        <ele>479.17691718631</ele>
        <time>2021-04-01T09:38:54.776Z</time>
      </trkpt>
      <trkpt lat="47.88903" lon="6.63871">
        <ele>476.67645352511</ele>
        <time>2021-04-01T09:38:59.332Z</time>
      </trkpt>
      <trkpt lat="47.88907" lon="6.63861">
        <ele>474.26021909391</ele>
        <time>2021-04-01T09:39:03.890Z</time>
      </trkpt>
      <trkpt lat="47.88926" lon="6.63825">
        <ele>471.85906599163</ele>
        <time>2021-04-01T09:39:08.453Z</time>
      </trkpt>
      <trkpt lat="47.88974" lon="6.63796">
        <ele>469.43629618807</ele>
        <time>2021-04-01T09:39:13.024Z</time>
      </trkpt>
      <trkpt lat="47.89075" lon="6.63761">
        <ele>467.2573401141</ele>
        <time>2021-04-01T09:39:17.611Z</time>
      </trkpt>
      <trkpt lat="47.89156" lon="6.63721">
        <ele>465.34501889562</ele>
        <time>2021-04-01T09:39:22.212Z</time>
      </trkpt>
      <trkpt lat="47.89225" lon="6.63647">
        <ele>463.43694693559</ele>
        <time>2021-04-01T09:39:26.827Z</time>
      </trkpt>
      <trkpt lat="47.89237" lon="6.63625">
        <ele>462.1063440495</ele>
        <time>2021-04-01T09:39:31.445Z</time>
      </trkpt>
      <trkpt lat="47.89244" lon="6.63587">
        <ele>461.00440482493</ele>
        <time>2021-04-01T09:39:36.067Z</time>
      </trkpt>
      <trkpt lat="47.8927" lon="6.63429">
        <ele>460.29526325955</ele>
        <time>2021-04-01T09:39:40.706Z</time>
      </trkpt>
      <trkpt lat="47.89277" lon="6.63352">
        <ele>459.78378248842</ele>
        <time>2021-04-01T09:39:45.354Z</time>
      </trkpt>
      <trkpt lat="47.89288" lon="6.63311">
        <ele>459.55661470752</ele>
        <time>2021-04-01T09:39:50.006Z</time>
      </trkpt>
      <trkpt lat="47.89299" lon="6.633">
        <ele>459.61797767596</ele>
        <time>2021-04-01T09:39:54.661Z</time>
      </trkpt>
      <trkpt lat="47.8934" lon="6.63288">
        <ele>459.99796612246</ele>
        <time>2021-04-01T09:39:59.322Z</time>
      </trkpt>
      <trkpt lat="47.89349" lon="6.63276">
        <ele>460.65205596623</ele>
        <time>2021-04-01T09:40:03.985Z</time>
      </trkpt>
      <trkpt lat="47.89416" lon="6.63136">
        <ele>461.61269776637</ele>
        <time>2021-04-01T09:40:08.667Z</time>
      </trkpt>
      <trkpt lat="47.89458" lon="6.63105">
        <ele>462.80218007307</ele>
        <time>2021-04-01T09:40:13.356Z</time>
      </trkpt>
      <trkpt lat="47.89464" lon="6.63103">
        <ele>464.20251332009</ele>
        <time>2021-04-01T09:40:18.046Z</time>
      </trkpt>
      <trkpt lat="47.89464" lon="6.63103">
        <ele>465.81523387095</ele>
        <time>2021-04-01T09:40:22.736Z</time>
      </trkpt>
      <trkpt lat="47.89504" lon="6.63087">
        <ele>467.77853746161</ele>
        <time>2021-04-01T09:40:27.433Z</time>
      </trkpt>
      <trkpt lat="47.89543" lon="6.63052">
        <ele>469.94154102475</ele>
        <time>2021-04-01T09:40:32.137Z</time>
      </trkpt>
      <trkpt lat="47.89587" lon="6.62961">
        <ele>472.9684778461</ele>
        <time>2021-04-01T09:40:36.853Z</time>
      </trkpt>
      <trkpt lat="47.89606" lon="6.63032">
        <ele>475.49607150148</ele>
        <time>2021-04-01T09:40:41.578Z</time>
      </trkpt>
      <trkpt lat="47.89612" lon="6.63103">
        <ele>477.98240181095</ele>
        <time>2021-04-01T09:40:46.310Z</time>
      </trkpt>
      <trkpt lat="47.89607" lon="6.6313">
        <ele>480.4408485551</ele>
        <time>2021-04-01T09:40:51.045Z</time>
      </trkpt>
      <trkpt lat="47.89585" lon="6.63163">
        <ele>482.90572383812</ele>
        <time>2021-04-01T09:40:55.785Z</time>
      </trkpt>
      <trkpt lat="47.89531" lon="6.63215">
        <ele>485.62868464815</ele>
        <time>2021-04-01T09:41:00.536Z</time>
      </trkpt>
      <trkpt lat="47.89498" lon="6.63258">
        <ele>488.49754490942</ele>
        <time>2021-04-01T09:41:05.294Z</time>
      </trkpt>
      <trkpt lat="47.89487" lon="6.63286">
        <ele>491.15914196501</ele>
        <time>2021-04-01T09:41:10.055Z</time>
      </trkpt>
      <trkpt lat="47.89506" lon="6.6343">
        <ele>494.53567590684</ele>
        <time>2021-04-01T09:41:14.832Z</time>
      </trkpt>
      <trkpt lat="47.89513" lon="6.63448">
        <ele>497.39225312922</ele>
        <time>2021-04-01T09:41:19.611Z</time>
      </trkpt>
      <trkpt lat="47.89531" lon="6.63448">
        <ele>500.45869428383</ele>
        <time>2021-04-01T09:41:24.393Z</time>
      </trkpt>
      <trkpt lat="47.89551" lon="6.63365">
        <ele>503.40666077685</ele>
        <time>2021-04-01T09:41:29.184Z</time>
      </trkpt>
      <trkpt lat="47.89572" lon="6.63321">
        <ele>506.06549736811</ele>
        <time>2021-04-01T09:41:33.981Z</time>
      </trkpt>
      <trkpt lat="47.89609" lon="6.63282">
        <ele>508.73488405151</ele>
        <time>2021-04-01T09:41:38.785Z</time>
      </trkpt>
      <trkpt lat="47.89623" lon="6.63283">
        <ele>511.40021207012</ele>
        <time>2021-04-01T09:41:43.592Z</time>
      </trkpt>
      <trkpt lat="47.89631" lon="6.63295">
        <ele>513.97426863231</ele>
        <time>2021-04-01T09:41:48.401Z</time>
      </trkpt>
      <trkpt lat="47.89628" lon="6.63334">
        <ele>516.57984481844</ele>
        <time>2021-04-01T09:41:53.214Z</time>
      </trkpt>
      <trkpt lat="47.89605" lon="6.63385">
        <ele>518.83419331245</ele>
        <time>2021-04-01T09:41:58.033Z</time>
      </trkpt>
      <trkpt lat="47.896" lon="6.6341">
        <ele>521.10536804447</ele>
        <time>2021-04-01T09:42:02.855Z</time>
      </trkpt>
      <trkpt lat="47.89599" lon="6.63577">
        <ele>523.34539368606</ele>
        <time>2021-04-01T09:42:07.695Z</time>
      </trkpt>
      <trkpt lat="47.89603" lon="6.63596">
        <ele>525.47855888705</ele>
        <time>2021-04-01T09:42:12.537Z</time>
      </trkpt>
      <trkpt lat="47.89623" lon="6.63606">
        <ele>527.72702345547</ele>
        <time>2021-04-01T09:42:17.383Z</time>
      </trkpt>
      <trkpt lat="47.89636" lon="6.63587">
        <ele>530.03709059737</ele>
        <time>2021-04-01T09:42:22.232Z</time>
      </trkpt>
      <trkpt lat="47.89637" lon="6.63515">
        <ele>532.37328401119</ele>
        <time>2021-04-01T09:42:27.088Z</time>
      </trkpt>
      <trkpt lat="47.89647" lon="6.63465">
        <ele>534.51651838476</ele>
        <time>2021-04-01T09:42:31.950Z</time>
      </trkpt>
      <trkpt lat="47.89664" lon="6.63438">
        <ele>536.48370624094</ele>
        <time>2021-04-01T09:42:36.816Z</time>
      </trkpt>
      <trkpt lat="47.89733" lon="6.63368">
        <ele>539.08025236018</ele>
        <time>2021-04-01T09:42:41.695Z</time>
      </trkpt>
      <trkpt lat="47.89742" lon="6.63348">
        <ele>541.03584824006</ele>
        <time>2021-04-01T09:42:46.577Z</time>
      </trkpt>
      <trkpt lat="47.89749" lon="6.63291">
        <ele>542.94752159707</ele>
        <time>2021-04-01T09:42:51.465Z</time>
      </trkpt>
      <trkpt lat="47.89758" lon="6.63282">
        <ele>544.99373112781</ele>
        <time>2021-04-01T09:42:56.355Z</time>
      </trkpt>
      <trkpt lat="47.89782" lon="6.63288">
        <ele>547.12250340318</ele>
        <time>2021-04-01T09:43:01.249Z</time>
      </trkpt>
      <trkpt lat="47.89788" lon="6.633">
        <ele>549.19997788717</ele>
        <time>2021-04-01T09:43:06.144Z</time>
      </trkpt>
      <trkpt lat="47.89783" lon="6.63391">
        <ele>551.55016945648</ele>
        <time>2021-04-01T09:43:11.049Z</time>
      </trkpt>
      <trkpt lat="47.89793" lon="6.63513">
        <ele>554.09507683108</ele>
        <time>2021-04-01T09:43:15.967Z</time>
      </trkpt>
      <trkpt lat="47.89779" lon="6.63651">
        <ele>556.45784222505</ele>
        <time>2021-04-01T09:43:20.900Z</time>
      </trkpt>
      <trkpt lat="47.89785" lon="6.63676">
        <ele>558.68799265235</ele>
        <time>2021-04-01T09:43:25.836Z</time>
      </trkpt>
      <trkpt lat="47.89794" lon="6.63685">
        <ele>561.04983360815</ele>
        <time>2021-04-01T09:43:30.774Z</time>
      </trkpt>
      <trkpt lat="47.89809" lon="6.63675">
        <ele>563.56212174241</ele>
        <time>2021-04-01T09:43:35.715Z</time>
      </trkpt>
      <trkpt lat="47.89816" lon="6.63625">
        <ele>566.06026338733</ele>
        <time>2021-04-01T09:43:40.661Z</time>
      </trkpt>
      <trkpt lat="47.89824" lon="6.63614">
        <ele>568.75295864583</ele>
        <time>2021-04-01T09:43:45.609Z</time>
      </trkpt>
      <trkpt lat="47.89838" lon="6.63618">
        <ele>571.68214392054</ele>
        <time>2021-04-01T09:43:50.559Z</time>
      </trkpt>
      <trkpt lat="47.89846" lon="6.63646">
        <ele>574.70852885515</ele>
        <time>2021-04-01T09:43:55.512Z</time>
      </trkpt>
      <trkpt lat="47.89848" lon="6.63718">
        <ele>577.65137078639</ele>
        <time>2021-04-01T09:44:00.473Z</time>
      </trkpt>
      <trkpt lat="47.89858" lon="6.63743">
        <ele>580.79793971281</ele>
        <time>2021-04-01T09:44:05.437Z</time>
      </trkpt>
      <trkpt lat="47.89917" lon="6.63804">
        <ele>584.5338325507</ele>
        <time>2021-04-01T09:44:10.413Z</time>
      </trkpt>
      <trkpt lat="47.89944" lon="6.63832">
        <ele>588.26662571606</ele>
        <time>2021-04-01T09:44:15.394Z</time>
      </trkpt>
      <trkpt lat="47.89944" lon="6.63832">
        <ele>591.8040388214</ele>
        <time>2021-04-01T09:44:20.375Z</time>
      </trkpt>
      <trkpt lat="47.89958" lon="6.63846">
        <ele>595.5927771679</ele>
        <time>2021-04-01T09:44:25.359Z</time>
      </trkpt>
      <trkpt lat="47.89991" lon="6.63899">
        <ele>599.36276946763</ele>
        <time>2021-04-01T09:44:30.351Z</time>
      </trkpt>
      <trkpt lat="47.90247" lon="6.64386">
        <ele>604.9230322857</ele>
        <time>2021-04-01T09:44:35.409Z</time>
      </trkpt>
      <trkpt lat="47.90287" lon="6.64427">
        <ele>609.2455559383</ele>
        <time>2021-04-01T09:44:40.475Z</time>
      </trkpt>
      <trkpt lat="47.90329" lon="6.64452">
        <ele>613.48682373328</ele>
        <time>2021-04-01T09:44:45.548Z</time>
      </trkpt>
      <trkpt lat="47.90275" lon="6.64503">
        <ele>617.05133360687</ele>
        <time>2021-04-01T09:44:50.631Z</time>
      </trkpt>
      <trkpt lat="47.90273" lon="6.64525">
        <ele>620.930018565</ele>
        <time>2021-04-01T09:44:55.717Z</time>
      </trkpt>
      <trkpt lat="47.90273" lon="6.64525">
        <ele>624.64658967661</ele>
        <time>2021-04-01T09:45:00.803Z</time>
      </trkpt>
      <trkpt lat="47.9027" lon="6.64557">
        <ele>628.51694855326</ele>
        <time>2021-04-01T09:45:05.892Z</time>
      </trkpt>
      <trkpt lat="47.90263" lon="6.64576">
        <ele>632.18035470918</ele>
        <time>2021-04-01T09:45:10.984Z</time>
      </trkpt>
      <trkpt lat="47.90248" lon="6.64587">
        <ele>635.78833885117</ele>
        <time>2021-04-01T09:45:16.078Z</time>
      </trkpt>
      <trkpt lat="47.90189" lon="6.64598">
        <ele>639.54743139644</ele>
        <time>2021-04-01T09:45:21.182Z</time>
      </trkpt>
      <trkpt lat="47.90143" lon="6.64586">
        <ele>643.3942419403</ele>
        <time>2021-04-01T09:45:26.293Z</time>
      </trkpt>
      <trkpt lat="47.90066" lon="6.64546">
        <ele>646.76944658399</ele>
        <time>2021-04-01T09:45:31.417Z</time>
      </trkpt>
      <trkpt lat="47.90043" lon="6.64544">
        <ele>650.39826697936</ele>
        <time>2021-04-01T09:45:36.545Z</time>
      </trkpt>
      <trkpt lat="47.90008" lon="6.64561">
        <ele>654.05912157845</ele>
        <time>2021-04-01T09:45:41.679Z</time>
      </trkpt>
      <trkpt lat="47.89938" lon="6.64604">
        <ele>657.5955102813</ele>
        <time>2021-04-01T09:45:46.825Z</time>
      </trkpt>
      <trkpt lat="47.89907" lon="6.64673">
        <ele>661.01535390025</ele>
        <time>2021-04-01T09:45:51.980Z</time>
      </trkpt>
      <trkpt lat="47.89889" lon="6.64746">
        <ele>664.23736834605</ele>
        <time>2021-04-01T09:45:57.143Z</time>
      </trkpt>
      <trkpt lat="47.89889" lon="6.64746">
        <ele>667.39214061139</ele>
        <time>2021-04-01T09:46:02.306Z</time>
      </trkpt>
      <trkpt lat="47.89887" lon="6.64847">
        <ele>670.59220645639</ele>
        <time>2021-04-01T09:46:07.480Z</time>
      </trkpt>
      <trkpt lat="47.89897" lon="6.64912">
        <ele>673.73740091938</ele>
        <time>2021-04-01T09:46:12.661Z</time>
      </trkpt>
      <trkpt lat="47.89947" lon="6.65098">
        <ele>677.15554871455</ele>
        <time>2021-04-01T09:46:17.864Z</time>
      </trkpt>
      <trkpt lat="47.89952" lon="6.65143">
        <ele>680.17776414332</ele>
        <time>2021-04-01T09:46:23.072Z</time>
      </trkpt>
      <trkpt lat="47.89945" lon="6.65211">
        <ele>683.11530212269</ele>
        <time>2021-04-01T09:46:28.287Z</time>
      </trkpt>
      <trkpt lat="47.89949" lon="6.65234">
        <ele>685.84049833557</ele>
        <time>2021-04-01T09:46:33.505Z</time>
      </trkpt>
      <trkpt lat="47.89974" lon="6.65284">
        <ele>688.56989086461</ele>
        <time>2021-04-01T09:46:38.730Z</time>
      </trkpt>
      <trkpt lat="47.89994" lon="6.65356">
        <ele>690.97870673566</ele>
        <time>2021-04-01T09:46:43.963Z</time>
      </trkpt>
      <trkpt lat="47.89998" lon="6.6548">
        <ele>693.26797924322</ele>
        <time>2021-04-01T09:46:49.209Z</time>
      </trkpt>
      <trkpt lat="47.89998" lon="6.6548">
        <ele>696.11994421715</ele>
        <time>2021-04-01T09:46:54.455Z</time>
      </trkpt>
      <trkpt lat="47.90002" lon="6.65606">
        <ele>696.92468685281</ele>
        <time>2021-04-01T09:46:59.715Z</time>
      </trkpt>
      <trkpt lat="47.89996" lon="6.65634">
        <ele>697.60104596861</ele>
        <time>2021-04-01T09:47:04.978Z</time>
      </trkpt>
      <trkpt lat="47.89978" lon="6.65674">
        <ele>698.03021319934</ele>
        <time>2021-04-01T09:47:10.246Z</time>
      </trkpt>
      <trkpt lat="47.89956" lon="6.65711">
        <ele>698.04823467511</ele>
        <time>2021-04-01T09:47:15.519Z</time>
      </trkpt>
      <trkpt lat="47.89858" lon="6.65826">
        <ele>698.10218410275</ele>
        <time>2021-04-01T09:47:20.813Z</time>
      </trkpt>
      <trkpt lat="47.89813" lon="6.65906">
        <ele>697.86861575557</ele>
        <time>2021-04-01T09:47:26.118Z</time>
      </trkpt>
      <trkpt lat="47.89779" lon="6.65985">
        <ele>697.48778101945</ele>
        <time>2021-04-01T09:47:31.433Z</time>
      </trkpt>
      <trkpt lat="47.89764" lon="6.66001">
        <ele>696.78691410482</ele>
        <time>2021-04-01T09:47:36.751Z</time>
      </trkpt>
      <trkpt lat="47.89757" lon="6.66004">
        <ele>695.93583610584</ele>
        <time>2021-04-01T09:47:42.070Z</time>
      </trkpt>
      <trkpt lat="47.89727" lon="6.65977">
        <ele>694.60781325627</ele>
        <time>2021-04-01T09:47:47.395Z</time>
      </trkpt>
      <trkpt lat="47.89716" lon="6.6598">
        <ele>693.35241239968</ele>
        <time>2021-04-01T09:47:52.721Z</time>
      </trkpt>
      <trkpt lat="47.89689" lon="6.6602">
        <ele>692.2752896833</ele>
        <time>2021-04-01T09:47:58.053Z</time>
      </trkpt>
      <trkpt lat="47.89644" lon="6.66013">
        <ele>690.57279540661</ele>
        <time>2021-04-01T09:48:03.393Z</time>
      </trkpt>
      <trkpt lat="47.89609" lon="6.66089">
        <ele>689.84402158141</ele>
        <time>2021-04-01T09:48:08.743Z</time>
      </trkpt>
      <trkpt lat="47.89539" lon="6.6609">
        <ele>687.81492434468</ele>
        <time>2021-04-01T09:48:14.104Z</time>
      </trkpt>
      <trkpt lat="47.89508" lon="6.66122">
        <ele>686.27026734137</ele>
        <time>2021-04-01T09:48:19.471Z</time>
      </trkpt>
      <trkpt lat="47.89464" lon="6.66108">
        <ele>684.5020617737</ele>
        <time>2021-04-01T09:48:24.845Z</time>
      </trkpt>
      <trkpt lat="47.89436" lon="6.66068">
        <ele>682.14743612021</ele>
        <time>2021-04-01T09:48:30.225Z</time>
      </trkpt>
      <trkpt lat="47.89424" lon="6.66061">
        <ele>680.21008260124</ele>
        <time>2021-04-01T09:48:35.607Z</time>
      </trkpt>
      <trkpt lat="47.89361" lon="6.66077">
        <ele>678.66412752264</ele>
        <time>2021-04-01T09:48:41.000Z</time>
      </trkpt>
      <trkpt lat="47.89361" lon="6.66077">
        <ele>676.69345079549</ele>
        <time>2021-04-01T09:48:46.393Z</time>
      </trkpt>
      <trkpt lat="47.8933" lon="6.66085">
        <ele>674.60266981579</ele>
        <time>2021-04-01T09:48:51.791Z</time>
      </trkpt>
      <trkpt lat="47.89301" lon="6.66085">
        <ele>672.37531897328</ele>
        <time>2021-04-01T09:48:57.193Z</time>
      </trkpt>
      <trkpt lat="47.89267" lon="6.66127">
        <ele>670.73266670806</ele>
        <time>2021-04-01T09:49:02.603Z</time>
      </trkpt>
      <trkpt lat="47.89234" lon="6.66208">
        <ele>668.67483139161</ele>
        <time>2021-04-01T09:49:08.023Z</time>
      </trkpt>
      <trkpt lat="47.89234" lon="6.66208">
        <ele>666.74298366425</ele>
        <time>2021-04-01T09:49:13.443Z</time>
      </trkpt>
      <trkpt lat="47.89187" lon="6.66309">
        <ele>664.21591294251</ele>
        <time>2021-04-01T09:49:18.876Z</time>
      </trkpt>
      <trkpt lat="47.89178" lon="6.66335">
        <ele>662.28290445817</ele>
        <time>2021-04-01T09:49:24.312Z</time>
      </trkpt>
      <trkpt lat="47.89178" lon="6.6636">
        <ele>660.52600133776</ele>
        <time>2021-04-01T09:49:29.751Z</time>
      </trkpt>
      <trkpt lat="47.89204" lon="6.66473">
        <ele>658.80935705718</ele>
        <time>2021-04-01T09:49:35.203Z</time>
      </trkpt>
      <trkpt lat="47.89202" lon="6.66604">
        <ele>657.39128494141</ele>
        <time>2021-04-01T09:49:40.669Z</time>
      </trkpt>
      <trkpt lat="47.89187" lon="6.667">
        <ele>656.28778139054</ele>
        <time>2021-04-01T09:49:46.145Z</time>
      </trkpt>
      <trkpt lat="47.89207" lon="6.6679">
        <ele>656.13659044019</ele>
        <time>2021-04-01T09:49:51.632Z</time>
      </trkpt>
      <trkpt lat="47.89209" lon="6.6684">
        <ele>655.7101445145</ele>
        <time>2021-04-01T09:49:57.124Z</time>
      </trkpt>
      <trkpt lat="47.89234" lon="6.66923">
        <ele>655.31761517003</ele>
        <time>2021-04-01T09:50:02.626Z</time>
      </trkpt>
      <trkpt lat="47.89258" lon="6.67047">
        <ele>655.46742994473</ele>
        <time>2021-04-01T09:50:08.142Z</time>
      </trkpt>
      <trkpt lat="47.89247" lon="6.67207">
        <ele>656.31922909615</ele>
        <time>2021-04-01T09:50:13.675Z</time>
      </trkpt>
      <trkpt lat="47.8924" lon="6.67224">
        <ele>657.34999988501</ele>
        <time>2021-04-01T09:50:19.210Z</time>
      </trkpt>
      <trkpt lat="47.8924" lon="6.67224">
        <ele>658.5878442327</ele>
        <time>2021-04-01T09:50:24.745Z</time>
      </trkpt>
      <trkpt lat="47.89229" lon="6.67239">
        <ele>660.42435672727</ele>
        <time>2021-04-01T09:50:30.283Z</time>
      </trkpt>
      <trkpt lat="47.89214" lon="6.67239">
        <ele>662.7773413241</ele>
        <time>2021-04-01T09:50:35.823Z</time>
      </trkpt>
      <trkpt lat="47.89201" lon="6.67215">
        <ele>665.13326109183</ele>
        <time>2021-04-01T09:50:41.366Z</time>
      </trkpt>
      <trkpt lat="47.89161" lon="6.6705">
        <ele>667.17185560694</ele>
        <time>2021-04-01T09:50:46.928Z</time>
      </trkpt>
      <trkpt lat="47.89151" lon="6.67041">
        <ele>670.27095292782</ele>
        <time>2021-04-01T09:50:52.492Z</time>
      </trkpt>
      <trkpt lat="47.89141" lon="6.67043">
        <ele>673.64823196868</ele>
        <time>2021-04-01T09:50:58.058Z</time>
      </trkpt>
      <trkpt lat="47.89137" lon="6.67071">
        <ele>677.33621151101</ele>
        <time>2021-04-01T09:51:03.627Z</time>
      </trkpt>
      <trkpt lat="47.89152" lon="6.67087">
        <ele>680.85370270754</ele>
        <time>2021-04-01T09:51:09.199Z</time>
      </trkpt>
      <trkpt lat="47.89161" lon="6.67132">
        <ele>685.07199651961</ele>
        <time>2021-04-01T09:51:14.776Z</time>
      </trkpt>
      <trkpt lat="47.89166" lon="6.67209">
        <ele>689.61985258815</ele>
        <time>2021-04-01T09:51:20.361Z</time>
      </trkpt>
      <trkpt lat="47.89161" lon="6.67237">
        <ele>694.12037369174</ele>
        <time>2021-04-01T09:51:25.949Z</time>
      </trkpt>
      <trkpt lat="47.89112" lon="6.67348">
        <ele>699.18446902082</ele>
        <time>2021-04-01T09:51:31.552Z</time>
      </trkpt>
      <trkpt lat="47.89071" lon="6.67405">
        <ele>703.96988796339</ele>
        <time>2021-04-01T09:51:37.164Z</time>
      </trkpt>
      <trkpt lat="47.89038" lon="6.67547">
        <ele>708.77102336103</ele>
        <time>2021-04-01T09:51:42.792Z</time>
      </trkpt>
      <trkpt lat="47.89027" lon="6.67621">
        <ele>713.78425536749</ele>
        <time>2021-04-01T09:51:48.428Z</time>
      </trkpt>
      <trkpt lat="47.89023" lon="6.67866">
        <ele>719.42511625285</ele>
        <time>2021-04-01T09:51:54.090Z</time>
      </trkpt>
      <trkpt lat="47.89023" lon="6.67866">
        <ele>723.97997084223</ele>
        <time>2021-04-01T09:51:59.752Z</time>
      </trkpt>
      <trkpt lat="47.89022" lon="6.67927">
        <ele>728.48419525724</ele>
        <time>2021-04-01T09:52:05.421Z</time>
      </trkpt>
      <trkpt lat="47.89031" lon="6.68283">
        <ele>733.52519981458</ele>
        <time>2021-04-01T09:52:11.128Z</time>
      </trkpt>
      <trkpt lat="47.89066" lon="6.68439">
        <ele>737.73452907665</ele>
        <time>2021-04-01T09:52:16.853Z</time>
      </trkpt>
      <trkpt lat="47.89067" lon="6.68481">
        <ele>741.56585860227</ele>
        <time>2021-04-01T09:52:22.582Z</time>
      </trkpt>
      <trkpt lat="47.8906" lon="6.68512">
        <ele>745.21018794388</ele>
        <time>2021-04-01T09:52:28.315Z</time>
      </trkpt>
      <trkpt lat="47.89023" lon="6.68607">
        <ele>748.9946250167</ele>
        <time>2021-04-01T09:52:34.060Z</time>
      </trkpt>
      <trkpt lat="47.88996" lon="6.68615">
        <ele>752.14068020776</ele>
        <time>2021-04-01T09:52:39.809Z</time>
      </trkpt>
      <trkpt lat="47.88904" lon="6.68591">
        <ele>754.95426628357</ele>
        <time>2021-04-01T09:52:45.573Z</time>
      </trkpt>
      <trkpt lat="47.88886" lon="6.6861">
        <ele>757.30647867299</ele>
        <time>2021-04-01T09:52:51.341Z</time>
      </trkpt>
      <trkpt lat="47.88852" lon="6.68684">
        <ele>759.30219384376</ele>
        <time>2021-04-01T09:52:57.118Z</time>
      </trkpt>
      <trkpt lat="47.88769" lon="6.68914">
        <ele>760.19813169023</ele>
        <time>2021-04-01T09:53:02.923Z</time>
      </trkpt>
      <trkpt lat="47.88744" lon="6.68941">
        <ele>761.31038468402</ele>
        <time>2021-04-01T09:53:08.733Z</time>
      </trkpt>
      <trkpt lat="47.88672" lon="6.68952">
        <ele>762.1467427346</ele>
        <time>2021-04-01T09:53:14.555Z</time>
      </trkpt>
      <trkpt lat="47.88645" lon="6.68964">
        <ele>762.78160813259</ele>
        <time>2021-04-01T09:53:20.381Z</time>
      </trkpt>
      <trkpt lat="47.88568" lon="6.69256">
        <ele>762.52214866673</ele>
        <time>2021-04-01T09:53:26.241Z</time>
      </trkpt>
      <trkpt lat="47.88555" lon="6.69273">
        <ele>762.84745264877</ele>
        <time>2021-04-01T09:53:32.104Z</time>
      </trkpt>
      <trkpt lat="47.88492" lon="6.693">
        <ele>763.23318502666</ele>
        <time>2021-04-01T09:53:37.978Z</time>
      </trkpt>
      <trkpt lat="47.88476" lon="6.69317">
        <ele>763.4163940619</ele>
        <time>2021-04-01T09:53:43.855Z</time>
      </trkpt>
      <trkpt lat="47.88376" lon="6.69534">
        <ele>763.05649992073</ele>
        <time>2021-04-01T09:53:49.760Z</time>
      </trkpt>
      <trkpt lat="47.88297" lon="6.69664">
        <ele>762.98639139165</ele>
        <time>2021-04-01T09:53:55.684Z</time>
      </trkpt>
      <trkpt lat="47.88283" lon="6.69688">
        <ele>763.12522971454</ele>
        <time>2021-04-01T09:54:01.611Z</time>
      </trkpt>
      <trkpt lat="47.88241" lon="6.69745">
        <ele>763.35366637715</ele>
        <time>2021-04-01T09:54:07.547Z</time>
      </trkpt>
      <trkpt lat="47.88208" lon="6.69754">
        <ele>763.49625994725</ele>
        <time>2021-04-01T09:54:13.489Z</time>
      </trkpt>
      <trkpt lat="47.88192" lon="6.69775">
        <ele>763.64468582383</ele>
        <time>2021-04-01T09:54:19.434Z</time>
      </trkpt>
      <trkpt lat="47.88175" lon="6.69832">
        <ele>763.8709820441</ele>
        <time>2021-04-01T09:54:25.386Z</time>
      </trkpt>
      <trkpt lat="47.88164" lon="6.69917">
        <ele>763.8640475986</ele>
        <time>2021-04-01T09:54:31.347Z</time>
      </trkpt>
      <trkpt lat="47.88118" lon="6.70043">
        <ele>764.67036920452</ele>
        <time>2021-04-01T09:54:37.324Z</time>
      </trkpt>
      <trkpt lat="47.88118" lon="6.70043">
        <ele>764.7672508718</ele>
        <time>2021-04-01T09:54:43.301Z</time>
      </trkpt>
      <trkpt lat="47.88019" lon="6.70274">
        <ele>765.05363081199</ele>
        <time>2021-04-01T09:54:49.307Z</time>
      </trkpt>
      <trkpt lat="47.88011" lon="6.70326">
        <ele>765.00125661952</ele>
        <time>2021-04-01T09:54:55.319Z</time>
      </trkpt>
      <trkpt lat="47.88016" lon="6.70406">
        <ele>764.77072939856</ele>
        <time>2021-04-01T09:55:01.340Z</time>
      </trkpt>
      <trkpt lat="47.88016" lon="6.70406">
        <ele>764.59985332095</ele>
        <time>2021-04-01T09:55:07.361Z</time>
      </trkpt>
      <trkpt lat="47.8802" lon="6.70474">
        <ele>763.96215418625</ele>
        <time>2021-04-01T09:55:13.389Z</time>
      </trkpt>
      <trkpt lat="47.88015" lon="6.70501">
        <ele>763.49583830202</ele>
        <time>2021-04-01T09:55:19.420Z</time>
      </trkpt>
      <trkpt lat="47.87954" lon="6.70573">
        <ele>762.60638949539</ele>
        <time>2021-04-01T09:55:25.463Z</time>
      </trkpt>
      <trkpt lat="47.87954" lon="6.70573">
        <ele>761.97003796245</ele>
        <time>2021-04-01T09:55:31.506Z</time>
      </trkpt>
      <trkpt lat="47.87918" lon="6.70596">
        <ele>760.88109528309</ele>
        <time>2021-04-01T09:55:37.556Z</time>
      </trkpt>
      <trkpt lat="47.87834" lon="6.70632">
        <ele>760.52572938435</ele>
        <time>2021-04-01T09:55:43.620Z</time>
      </trkpt>
      <trkpt lat="47.87859" lon="6.70678">
        <ele>759.21324169107</ele>
        <time>2021-04-01T09:55:49.690Z</time>
      </trkpt>
      <trkpt lat="47.87901" lon="6.7072">
        <ele>757.57804446215</ele>
        <time>2021-04-01T09:55:55.768Z</time>
      </trkpt>
      <trkpt lat="47.87942" lon="6.70823">
        <ele>755.98041273991</ele>
        <time>2021-04-01T09:56:01.859Z</time>
      </trkpt>
      <trkpt lat="47.8798" lon="6.70913">
        <ele>753.99149314687</ele>
        <time>2021-04-01T09:56:07.961Z</time>
      </trkpt>
      <trkpt lat="47.87988" lon="6.71016">
        <ele>752.44194853452</ele>
        <time>2021-04-01T09:56:14.075Z</time>
      </trkpt>
      <trkpt lat="47.87988" lon="6.71016">
        <ele>749.97109513901</ele>
        <time>2021-04-01T09:56:20.189Z</time>
      </trkpt>
      <trkpt lat="47.87989" lon="6.7106">
        <ele>747.16728246746</ele>
        <time>2021-04-01T09:56:26.307Z</time>
      </trkpt>
      <trkpt lat="47.87979" lon="6.71098">
        <ele>743.91065272445</ele>
        <time>2021-04-01T09:56:32.430Z</time>
      </trkpt>
      <trkpt lat="47.87964" lon="6.71128">
        <ele>740.13435259157</ele>
        <time>2021-04-01T09:56:38.557Z</time>
      </trkpt>
      <trkpt lat="47.87887" lon="6.71162">
        <ele>736.02567749275</ele>
        <time>2021-04-01T09:56:44.697Z</time>
      </trkpt>
      <trkpt lat="47.87844" lon="6.71224">
        <ele>731.46527560529</ele>
        <time>2021-04-01T09:56:50.846Z</time>
      </trkpt>
      <trkpt lat="47.87848" lon="6.71243">
        <ele>726.88366296741</ele>
        <time>2021-04-01T09:56:56.997Z</time>
      </trkpt>
      <trkpt lat="47.88009" lon="6.71305">
        <ele>720.52801840714</ele>
        <time>2021-04-01T09:57:03.175Z</time>
      </trkpt>
      <trkpt lat="47.88062" lon="6.71297">
        <ele>715.27697400861</ele>
        <time>2021-04-01T09:57:09.362Z</time>
      </trkpt>
      <trkpt lat="47.88062" lon="6.71297">
        <ele>710.259190169</ele>
        <time>2021-04-01T09:57:15.549Z</time>
      </trkpt>
      <trkpt lat="47.88122" lon="6.71287">
        <ele>704.68338542728</ele>
        <time>2021-04-01T09:57:21.745Z</time>
      </trkpt>
      <trkpt lat="47.88153" lon="6.71315">
        <ele>699.20133082286</ele>
        <time>2021-04-01T09:57:27.947Z</time>
      </trkpt>
      <trkpt lat="47.88223" lon="6.71401">
        <ele>692.92262087415</ele>
        <time>2021-04-01T09:57:34.164Z</time>
      </trkpt>
      <trkpt lat="47.88284" lon="6.71437">
        <ele>687.4314495795</ele>
        <time>2021-04-01T09:57:40.391Z</time>
      </trkpt>
      <trkpt lat="47.88315" lon="6.71442">
        <ele>681.96110229241</ele>
        <time>2021-04-01T09:57:46.623Z</time>
      </trkpt>
      <trkpt lat="47.8835" lon="6.71436">
        <ele>676.78408063984</ele>
        <time>2021-04-01T09:57:52.861Z</time>
      </trkpt>
      <trkpt lat="47.88359" lon="6.71438">
        <ele>671.41998568589</ele>
        <time>2021-04-01T09:57:59.100Z</time>
      </trkpt>
      <trkpt lat="47.88362" lon="6.71452">
        <ele>665.81954059519</ele>
        <time>2021-04-01T09:58:05.341Z</time>
      </trkpt>
      <trkpt lat="47.88359" lon="6.71463">
        <ele>660.30441545126</ele>
        <time>2021-04-01T09:58:11.583Z</time>
      </trkpt>
      <trkpt lat="47.88298" lon="6.71517">
        <ele>654.27127780384</ele>
        <time>2021-04-01T09:58:17.836Z</time>
      </trkpt>
      <trkpt lat="47.88262" lon="6.71564">
        <ele>648.66545608146</ele>
        <time>2021-04-01T09:58:24.097Z</time>
      </trkpt>
      <trkpt lat="47.88227" lon="6.71582">
        <ele>643.1926725562</ele>
        <time>2021-04-01T09:58:30.364Z</time>
      </trkpt>
      <trkpt lat="47.88216" lon="6.71615">
        <ele>637.77044987558</ele>
        <time>2021-04-01T09:58:36.635Z</time>
      </trkpt>
      <trkpt lat="47.88208" lon="6.71691">
        <ele>632.17969947038</ele>
        <time>2021-04-01T09:58:42.914Z</time>
      </trkpt>
      <trkpt lat="47.88219" lon="6.71707">
        <ele>626.98713207206</ele>
        <time>2021-04-01T09:58:49.196Z</time>
      </trkpt>
      <trkpt lat="47.88242" lon="6.71702">
        <ele>622.01843772353</ele>
        <time>2021-04-01T09:58:55.481Z</time>
      </trkpt>
      <trkpt lat="47.88249" lon="6.71721">
        <ele>616.88522209215</ele>
        <time>2021-04-01T09:59:01.769Z</time>
      </trkpt>
      <trkpt lat="47.88249" lon="6.71753">
        <ele>611.74406180013</ele>
        <time>2021-04-01T09:59:08.060Z</time>
      </trkpt>
      <trkpt lat="47.88228" lon="6.71821">
        <ele>606.16884126508</ele>
        <time>2021-04-01T09:59:14.359Z</time>
      </trkpt>
      <trkpt lat="47.88229" lon="6.7184">
        <ele>601.31947473253</ele>
        <time>2021-04-01T09:59:20.660Z</time>
      </trkpt>
      <trkpt lat="47.88259" lon="6.71856">
        <ele>596.83485293239</ele>
        <time>2021-04-01T09:59:26.966Z</time>
      </trkpt>
      <trkpt lat="47.88256" lon="6.71874">
        <ele>592.08854489471</ele>
        <time>2021-04-01T09:59:33.274Z</time>
      </trkpt>
      <trkpt lat="47.88236" lon="6.71883">
        <ele>587.40072239614</ele>
        <time>2021-04-01T09:59:39.586Z</time>
      </trkpt>
      <trkpt lat="47.88172" lon="6.71852">
        <ele>582.69652119351</ele>
        <time>2021-04-01T09:59:45.908Z</time>
      </trkpt>
      <trkpt lat="47.88166" lon="6.71863">
        <ele>578.23797760055</ele>
        <time>2021-04-01T09:59:52.232Z</time>
      </trkpt>
      <trkpt lat="47.88171" lon="6.71892">
        <ele>573.83005119336</ele>
        <time>2021-04-01T09:59:58.559Z</time>
      </trkpt>
      <trkpt lat="47.88312" lon="6.72094">
        <ele>568.50158378841</ele>
        <time>2021-04-01T10:00:04.918Z</time>
      </trkpt>
      <trkpt lat="47.88315" lon="6.72099">
        <ele>564.48697566793</ele>
        <time>2021-04-01T10:00:11.277Z</time>
      </trkpt>
      <trkpt lat="47.88329" lon="6.72128">
        <ele>560.42708861438</ele>
        <time>2021-04-01T10:00:17.640Z</time>
      </trkpt>
      <trkpt lat="47.88354" lon="6.72156">
        <ele>556.42209436147</ele>
        <time>2021-04-01T10:00:24.008Z</time>
      </trkpt>
      <trkpt lat="47.88399" lon="6.72162">
        <ele>552.50621695788</ele>
        <time>2021-04-01T10:00:30.383Z</time>
      </trkpt>
      <trkpt lat="47.88451" lon="6.72144">
        <ele>548.94448075028</ele>
        <time>2021-04-01T10:00:36.767Z</time>
      </trkpt>
      <trkpt lat="47.88463" lon="6.72153">
        <ele>545.44507170315</ele>
        <time>2021-04-01T10:00:43.153Z</time>
      </trkpt>
      <trkpt lat="47.88468" lon="6.72178">
        <ele>541.88995808721</ele>
        <time>2021-04-01T10:00:49.542Z</time>
      </trkpt>
      <trkpt lat="47.88472" lon="6.72235">
        <ele>538.34700432</ele>
        <time>2021-04-01T10:00:55.937Z</time>
      </trkpt>
      <trkpt lat="47.88477" lon="6.72247">
        <ele>535.14739700383</ele>
        <time>2021-04-01T10:01:02.334Z</time>
      </trkpt>
      <trkpt lat="47.88512" lon="6.72259">
        <ele>531.91041414583</ele>
        <time>2021-04-01T10:01:08.737Z</time>
      </trkpt>
      <trkpt lat="47.88536" lon="6.72285">
        <ele>528.73460266646</ele>
        <time>2021-04-01T10:01:15.144Z</time>
      </trkpt>
      <trkpt lat="47.88555" lon="6.72317">
        <ele>525.68081747578</ele>
        <time>2021-04-01T10:01:21.556Z</time>
      </trkpt>
      <trkpt lat="47.88566" lon="6.72329">
        <ele>522.80552291725</ele>
        <time>2021-04-01T10:01:27.970Z</time>
      </trkpt>
      <trkpt lat="47.88598" lon="6.72336">
        <ele>519.91412298492</ele>
        <time>2021-04-01T10:01:34.389Z</time>
      </trkpt>
      <trkpt lat="47.88614" lon="6.72341">
        <ele>517.19097861703</ele>
        <time>2021-04-01T10:01:40.811Z</time>
      </trkpt>
      <trkpt lat="47.88614" lon="6.72341">
        <ele>514.47591321096</ele>
        <time>2021-04-01T10:01:47.233Z</time>
      </trkpt>
      <trkpt lat="47.88639" lon="6.72347">
        <ele>511.78219812544</ele>
        <time>2021-04-01T10:01:53.659Z</time>
      </trkpt>
      <trkpt lat="47.88695" lon="6.72376">
        <ele>509.06237956904</ele>
        <time>2021-04-01T10:02:00.094Z</time>
      </trkpt>
      <trkpt lat="47.88816" lon="6.72413">
        <ele>505.90534962492</ele>
        <time>2021-04-01T10:02:06.549Z</time>
      </trkpt>
      <trkpt lat="47.88887" lon="6.72476">
        <ele>502.78757901561</ele>
        <time>2021-04-01T10:02:13.017Z</time>
      </trkpt>
      <trkpt lat="47.88911" lon="6.72513">
        <ele>499.97067964477</ele>
        <time>2021-04-01T10:02:19.491Z</time>
      </trkpt>
      <trkpt lat="47.88944" lon="6.7259">
        <ele>496.97578722912</ele>
        <time>2021-04-01T10:02:25.975Z</time>
      </trkpt>
      <trkpt lat="47.88953" lon="6.72624">
        <ele>494.61961549244</ele>
        <time>2021-04-01T10:02:32.463Z</time>
      </trkpt>
      <trkpt lat="47.88959" lon="6.72687">
        <ele>492.11851878828</ele>
        <time>2021-04-01T10:02:38.958Z</time>
      </trkpt>
      <trkpt lat="47.88936" lon="6.72797">
        <ele>489.6025097363</ele>
        <time>2021-04-01T10:02:45.465Z</time>
      </trkpt>
      <trkpt lat="47.88901" lon="6.72876">
        <ele>487.68895205374</ele>
        <time>2021-04-01T10:02:51.982Z</time>
      </trkpt>
      <trkpt lat="47.88894" lon="6.72902">
        <ele>485.71642451707</ele>
        <time>2021-04-01T10:02:58.502Z</time>
      </trkpt>
      <trkpt lat="47.88892" lon="6.72945">
        <ele>483.8327938779</ele>
        <time>2021-04-01T10:03:05.027Z</time>
      </trkpt>
      <trkpt lat="47.88898" lon="6.7298">
        <ele>482.03337554021</ele>
        <time>2021-04-01T10:03:11.556Z</time>
      </trkpt>
      <trkpt lat="47.88962" lon="6.7311">
        <ele>480.07607251644</ele>
        <time>2021-04-01T10:03:18.102Z</time>
      </trkpt>
      <trkpt lat="47.88945" lon="6.73152">
        <ele>478.95771834166</ele>
        <time>2021-04-01T10:03:24.653Z</time>
      </trkpt>
      <trkpt lat="47.88946" lon="6.73207">
        <ele>477.91859616319</ele>
        <time>2021-04-01T10:03:31.210Z</time>
      </trkpt>
      <trkpt lat="47.88938" lon="6.73266">
        <ele>476.94404737472</ele>
        <time>2021-04-01T10:03:37.774Z</time>
      </trkpt>
      <trkpt lat="47.88916" lon="6.7335">
        <ele>476.19642307407</ele>
        <time>2021-04-01T10:03:44.347Z</time>
      </trkpt>
      <trkpt lat="47.88916" lon="6.7335">
        <ele>475.51986710348</ele>
        <time>2021-04-01T10:03:50.920Z</time>
      </trkpt>
      <trkpt lat="47.889" lon="6.73418">
        <ele>475.18575306624</ele>
        <time>2021-04-01T10:03:57.501Z</time>
      </trkpt>
      <trkpt lat="47.88873" lon="6.73496">
        <ele>474.74173641128</ele>
        <time>2021-04-01T10:04:04.092Z</time>
      </trkpt>
      <trkpt lat="47.88877" lon="6.73526">
        <ele>474.39061644283</ele>
        <time>2021-04-01T10:04:10.686Z</time>
      </trkpt>
      <trkpt lat="47.88903" lon="6.73587">
        <ele>474.09748766221</ele>
        <time>2021-04-01T10:04:17.288Z</time>
      </trkpt>
      <trkpt lat="47.88865" lon="6.73674">
        <ele>473.7521020594</ele>
        <time>2021-04-01T10:04:23.901Z</time>
      </trkpt>
      <trkpt lat="47.88812" lon="6.73712">
        <ele>473.5959034016</ele>
        <time>2021-04-01T10:04:30.523Z</time>
      </trkpt>
      <trkpt lat="47.88802" lon="6.73719">
        <ele>473.58179193733</ele>
        <time>2021-04-01T10:04:37.147Z</time>
      </trkpt>
      <trkpt lat="47.88722" lon="6.73829">
        <ele>473.54014994234</ele>
        <time>2021-04-01T10:04:43.789Z</time>
      </trkpt>
      <trkpt lat="47.88722" lon="6.73829">
        <ele>473.68349104094</ele>
        <time>2021-04-01T10:04:50.431Z</time>
      </trkpt>
      <trkpt lat="47.88709" lon="6.73847">
        <ele>473.88632198134</ele>
        <time>2021-04-01T10:04:57.075Z</time>
      </trkpt>
      <trkpt lat="47.88677" lon="6.73918">
        <ele>474.22015070483</ele>
        <time>2021-04-01T10:05:03.729Z</time>
      </trkpt>
      <trkpt lat="47.88677" lon="6.73918">
        <ele>474.55108691796</ele>
        <time>2021-04-01T10:05:10.383Z</time>
      </trkpt>
      <trkpt lat="47.88654" lon="6.73983">
        <ele>474.94414286641</ele>
        <time>2021-04-01T10:05:17.045Z</time>
      </trkpt>
      <trkpt lat="47.88651" lon="6.73991">
        <ele>475.37415816195</ele>
        <time>2021-04-01T10:05:23.708Z</time>
      </trkpt>
      <trkpt lat="47.8863" lon="6.74055">
        <ele>475.86530001818</ele>
        <time>2021-04-01T10:05:30.378Z</time>
      </trkpt>
      <trkpt lat="47.88585" lon="6.74164">
        <ele>476.49904489223</ele>
        <time>2021-04-01T10:05:37.062Z</time>
      </trkpt>
      <trkpt lat="47.88585" lon="6.74164">
        <ele>477.03772306746</ele>
        <time>2021-04-01T10:05:43.746Z</time>
      </trkpt>
      <trkpt lat="47.8856" lon="6.74225">
        <ele>477.71104717131</ele>
        <time>2021-04-01T10:05:50.438Z</time>
      </trkpt>
      <trkpt lat="47.88533" lon="6.74315">
        <ele>478.28872365023</ele>
        <time>2021-04-01T10:05:57.140Z</time>
      </trkpt>
      <trkpt lat="47.88536" lon="6.74326">
        <ele>478.88816100497</ele>
        <time>2021-04-01T10:06:03.844Z</time>
      </trkpt>
      <trkpt lat="47.88435" lon="6.74512">
        <ele>479.4891464274</ele>
        <time>2021-04-01T10:06:10.573Z</time>
      </trkpt>
      <trkpt lat="47.88416" lon="6.74527">
        <ele>480.15213897898</ele>
        <time>2021-04-01T10:06:17.306Z</time>
      </trkpt>
      <trkpt lat="47.88354" lon="6.74548">
        <ele>480.90626743705</ele>
        <time>2021-04-01T10:06:24.049Z</time>
      </trkpt>
      <trkpt lat="47.88324" lon="6.74562">
        <ele>481.52575700874</ele>
        <time>2021-04-01T10:06:30.797Z</time>
      </trkpt>
      <trkpt lat="47.8829" lon="6.74596">
        <ele>482.17245945811</ele>
        <time>2021-04-01T10:06:37.552Z</time>
      </trkpt>
      <trkpt lat="47.88259" lon="6.74687">
        <ele>483.01702967923</ele>
        <time>2021-04-01T10:06:44.318Z</time>
      </trkpt>
      <trkpt lat="47.88259" lon="6.74687">
        <ele>483.6715761399</ele>
        <time>2021-04-01T10:06:51.084Z</time>
      </trkpt>
      <trkpt lat="47.88256" lon="6.74698">
        <ele>484.34375218441</ele>
        <time>2021-04-01T10:06:57.851Z</time>
      </trkpt>
      <trkpt lat="47.8824" lon="6.74755">
        <ele>485.13520426474</ele>
        <time>2021-04-01T10:07:04.624Z</time>
      </trkpt>
      <trkpt lat="47.88217" lon="6.74813">
        <ele>485.81876616305</ele>
        <time>2021-04-01T10:07:11.405Z</time>
      </trkpt>
      <trkpt lat="47.88171" lon="6.74862">
        <ele>486.54232713319</ele>
        <time>2021-04-01T10:07:18.195Z</time>
      </trkpt>
      <trkpt lat="47.88171" lon="6.74862">
        <ele>487.22962492599</ele>
        <time>2021-04-01T10:07:24.985Z</time>
      </trkpt>
      <trkpt lat="47.88119" lon="6.74918">
        <ele>487.79574273449</ele>
        <time>2021-04-01T10:07:31.785Z</time>
      </trkpt>
      <trkpt lat="47.88059" lon="6.75044">
        <ele>488.67305919401</ele>
        <time>2021-04-01T10:07:38.602Z</time>
      </trkpt>
      <trkpt lat="47.88053" lon="6.75083">
        <ele>489.49407678575</ele>
        <time>2021-04-01T10:07:45.423Z</time>
      </trkpt>
      <trkpt lat="47.88038" lon="6.75088">
        <ele>490.35920681653</ele>
        <time>2021-04-01T10:07:52.247Z</time>
      </trkpt>
      <trkpt lat="47.8802" lon="6.75115">
        <ele>491.2200941454</ele>
        <time>2021-04-01T10:07:59.075Z</time>
      </trkpt>
      <trkpt lat="47.87984" lon="6.75143">
        <ele>492.1082788472</ele>
        <time>2021-04-01T10:08:05.909Z</time>
      </trkpt>
      <trkpt lat="47.87984" lon="6.75143">
        <ele>493.01274830034</ele>
        <time>2021-04-01T10:08:12.743Z</time>
      </trkpt>
      <trkpt lat="47.87951" lon="6.75164">
        <ele>494.02120297713</ele>
        <time>2021-04-01T10:08:19.583Z</time>
      </trkpt>
      <trkpt lat="47.87886" lon="6.7526">
        <ele>495.33747619986</ele>
        <time>2021-04-01T10:08:26.438Z</time>
      </trkpt>
      <trkpt lat="47.87862" lon="6.75284">
        <ele>496.50054463562</ele>
        <time>2021-04-01T10:08:33.297Z</time>
      </trkpt>
      <trkpt lat="47.87817" lon="6.75334">
        <ele>497.62170589107</ele>
        <time>2021-04-01T10:08:40.165Z</time>
      </trkpt>
      <trkpt lat="47.87785" lon="6.75354">
        <ele>499.01153319581</ele>
        <time>2021-04-01T10:08:47.039Z</time>
      </trkpt>
      <trkpt lat="47.87735" lon="6.75483">
        <ele>500.02188390787</ele>
        <time>2021-04-01T10:08:53.929Z</time>
      </trkpt>
      <trkpt lat="47.87735" lon="6.75483">
        <ele>501.29644559206</ele>
        <time>2021-04-01T10:09:00.819Z</time>
      </trkpt>
      <trkpt lat="47.87732" lon="6.75489">
        <ele>502.62333946637</ele>
        <time>2021-04-01T10:09:07.709Z</time>
      </trkpt>
      <trkpt lat="47.87732" lon="6.75489">
        <ele>504.04156154836</ele>
        <time>2021-04-01T10:09:14.599Z</time>
      </trkpt>
      <trkpt lat="47.877" lon="6.75548">
        <ele>505.59146760785</ele>
        <time>2021-04-01T10:09:21.498Z</time>
      </trkpt>
      <trkpt lat="47.87692" lon="6.75566">
        <ele>507.1633557472</ele>
        <time>2021-04-01T10:09:28.399Z</time>
      </trkpt>
      <trkpt lat="47.87701" lon="6.75612">
        <ele>508.59809261537</ele>
        <time>2021-04-01T10:09:35.305Z</time>
      </trkpt>
      <trkpt lat="47.87679" lon="6.75616">
        <ele>510.45938868897</ele>
        <time>2021-04-01T10:09:42.215Z</time>
      </trkpt>
      <trkpt lat="47.87638" lon="6.75568">
        <ele>512.54824584933</ele>
        <time>2021-04-01T10:09:49.133Z</time>
      </trkpt>
      <trkpt lat="47.87614" lon="6.75471">
        <ele>514.94569512612</ele>
        <time>2021-04-01T10:09:56.062Z</time>
      </trkpt>
      <trkpt lat="47.87607" lon="6.75465">
        <ele>516.90802165381</ele>
        <time>2021-04-01T10:10:02.993Z</time>
      </trkpt>
      <trkpt lat="47.8751" lon="6.75459">
        <ele>519.26748243379</ele>
        <time>2021-04-01T10:10:09.939Z</time>
      </trkpt>
      <trkpt lat="47.87451" lon="6.75497">
        <ele>520.88543449415</ele>
        <time>2021-04-01T10:10:16.896Z</time>
      </trkpt>
      <trkpt lat="47.87417" lon="6.75486">
        <ele>522.83755904691</ele>
        <time>2021-04-01T10:10:23.858Z</time>
      </trkpt>
      <trkpt lat="47.87334" lon="6.75443">
        <ele>524.9804145012</ele>
        <time>2021-04-01T10:10:30.834Z</time>
      </trkpt>
      <trkpt lat="47.87334" lon="6.75443">
        <ele>526.6680092711</ele>
        <time>2021-04-01T10:10:37.810Z</time>
      </trkpt>
      <trkpt lat="47.87275" lon="6.75412">
        <ele>528.17373440156</ele>
        <time>2021-04-01T10:10:44.796Z</time>
      </trkpt>
      <trkpt lat="47.87242" lon="6.75337">
        <ele>530.22135869022</ele>
        <time>2021-04-01T10:10:51.792Z</time>
      </trkpt>
      <trkpt lat="47.87242" lon="6.75337">
        <ele>531.64906756263</ele>
        <time>2021-04-01T10:10:58.788Z</time>
      </trkpt>
      <trkpt lat="47.8723" lon="6.75312">
        <ele>532.97948918498</ele>
        <time>2021-04-01T10:11:05.787Z</time>
      </trkpt>
      <trkpt lat="47.87216" lon="6.75294">
        <ele>534.11667177734</ele>
        <time>2021-04-01T10:11:12.789Z</time>
      </trkpt>
      <trkpt lat="47.87181" lon="6.75245">
        <ele>535.2828408425</ele>
        <time>2021-04-01T10:11:19.799Z</time>
      </trkpt>
      <trkpt lat="47.87156" lon="6.7522">
        <ele>536.52107260378</ele>
        <time>2021-04-01T10:11:26.814Z</time>
      </trkpt>
      <trkpt lat="47.87147" lon="6.7522">
        <ele>537.52232977901</ele>
        <time>2021-04-01T10:11:33.830Z</time>
      </trkpt>
      <trkpt lat="47.87096" lon="6.75235">
        <ele>538.51729162981</ele>
        <time>2021-04-01T10:11:40.854Z</time>
      </trkpt>
      <trkpt lat="47.87074" lon="6.75235">
        <ele>539.17587823866</ele>
        <time>2021-04-01T10:11:47.882Z</time>
      </trkpt>
      <trkpt lat="47.87035" lon="6.7526">
        <ele>539.85892356645</ele>
        <time>2021-04-01T10:11:54.917Z</time>
      </trkpt>
      <trkpt lat="47.87008" lon="6.75261">
        <ele>540.66408487155</ele>
        <time>2021-04-01T10:12:01.956Z</time>
      </trkpt>
      <trkpt lat="47.86957" lon="6.75261">
        <ele>541.43285081494</ele>
        <time>2021-04-01T10:12:09.003Z</time>
      </trkpt>
      <trkpt lat="47.86927" lon="6.75285">
        <ele>542.10308352529</ele>
        <time>2021-04-01T10:12:16.056Z</time>
      </trkpt>
      <trkpt lat="47.86876" lon="6.75288">
        <ele>542.62541279083</ele>
        <time>2021-04-01T10:12:23.117Z</time>
      </trkpt>
      <trkpt lat="47.86807" lon="6.75353">
        <ele>543.3363763915</ele>
        <time>2021-04-01T10:12:30.191Z</time>
      </trkpt>
      <trkpt lat="47.86807" lon="6.75353">
        <ele>544.03180202145</ele>
        <time>2021-04-01T10:12:37.265Z</time>
      </trkpt>
      <trkpt lat="47.86797" lon="6.75362">
        <ele>544.8157862839</ele>
        <time>2021-04-01T10:12:44.341Z</time>
      </trkpt>
      <trkpt lat="47.86738" lon="6.75385">
        <ele>545.86062680426</ele>
        <time>2021-04-01T10:12:51.427Z</time>
      </trkpt>
      <trkpt lat="47.86734" lon="6.75404">
        <ele>546.77185936151</ele>
        <time>2021-04-01T10:12:58.515Z</time>
      </trkpt>
      <trkpt lat="47.86769" lon="6.7542">
        <ele>547.54978254049</ele>
        <time>2021-04-01T10:13:05.609Z</time>
      </trkpt>
      <trkpt lat="47.86767" lon="6.75446">
        <ele>548.67307547662</ele>
        <time>2021-04-01T10:13:12.705Z</time>
      </trkpt>
      <trkpt lat="47.86737" lon="6.7545">
        <ele>549.9976986932</ele>
        <time>2021-04-01T10:13:19.806Z</time>
      </trkpt>
      <trkpt lat="47.86737" lon="6.7545">
        <ele>551.21096879384</ele>
        <time>2021-04-01T10:13:26.907Z</time>
      </trkpt>
      <trkpt lat="47.86695" lon="6.75469">
        <ele>552.86969966066</ele>
        <time>2021-04-01T10:13:34.015Z</time>
      </trkpt>
      <trkpt lat="47.86676" lon="6.75493">
        <ele>554.40146124294</ele>
        <time>2021-04-01T10:13:41.127Z</time>
      </trkpt>
      <trkpt lat="47.86666" lon="6.75548">
        <ele>555.9878362065</ele>
        <time>2021-04-01T10:13:48.245Z</time>
      </trkpt>
      <trkpt lat="47.86676" lon="6.75624">
        <ele>557.67019356354</ele>
        <time>2021-04-01T10:13:55.372Z</time>
      </trkpt>
      <trkpt lat="47.86674" lon="6.75657">
        <ele>559.44687677347</ele>
        <time>2021-04-01T10:14:02.502Z</time>
      </trkpt>
      <trkpt lat="47.86655" lon="6.7571">
        <ele>561.61490916136</ele>
        <time>2021-04-01T10:14:09.639Z</time>
      </trkpt>
      <trkpt lat="47.86638" lon="6.75724">
        <ele>563.56731321386</ele>
        <time>2021-04-01T10:14:16.779Z</time>
      </trkpt>
      <trkpt lat="47.86625" lon="6.75722">
        <ele>565.55394821447</ele>
        <time>2021-04-01T10:14:23.921Z</time>
      </trkpt>
      <trkpt lat="47.86591" lon="6.75695">
        <ele>567.57058113299</ele>
        <time>2021-04-01T10:14:31.069Z</time>
      </trkpt>
      <trkpt lat="47.86554" lon="6.75681">
        <ele>569.81681615723</ele>
        <time>2021-04-01T10:14:38.223Z</time>
      </trkpt>
      <trkpt lat="47.86522" lon="6.75631">
        <ele>572.20442610664</ele>
        <time>2021-04-01T10:14:45.385Z</time>
      </trkpt>
      <trkpt lat="47.86499" lon="6.75578">
        <ele>574.82811407522</ele>
        <time>2021-04-01T10:14:52.554Z</time>
      </trkpt>
      <trkpt lat="47.86495" lon="6.75548">
        <ele>577.27054291777</ele>
        <time>2021-04-01T10:14:59.726Z</time>
      </trkpt>
      <trkpt lat="47.86502" lon="6.75494">
        <ele>579.30172455947</ele>
        <time>2021-04-01T10:15:06.904Z</time>
      </trkpt>
      <trkpt lat="47.86491" lon="6.75467">
        <ele>581.82538219706</ele>
        <time>2021-04-01T10:15:14.085Z</time>
      </trkpt>
      <trkpt lat="47.86452" lon="6.75442">
        <ele>584.76909051662</ele>
        <time>2021-04-01T10:15:21.273Z</time>
      </trkpt>
      <trkpt lat="47.86452" lon="6.75442">
        <ele>590.25637048498</ele>
        <time>2021-04-01T10:15:28.461Z</time>
      </trkpt>
      <trkpt lat="47.86447" lon="6.75438">
        <ele>593.18054105804</ele>
        <time>2021-04-01T10:15:35.650Z</time>
      </trkpt>
      <trkpt lat="47.86386" lon="6.75421">
        <ele>596.37111031812</ele>
        <time>2021-04-01T10:15:42.849Z</time>
      </trkpt>
      <trkpt lat="47.86366" lon="6.75416">
        <ele>599.6135610977</ele>
        <time>2021-04-01T10:15:50.051Z</time>
      </trkpt>
      <trkpt lat="47.86314" lon="6.75423">
        <ele>603.32383555639</ele>
        <time>2021-04-01T10:15:57.261Z</time>
      </trkpt>
      <trkpt lat="47.86295" lon="6.75415">
        <ele>607.05409729001</ele>
        <time>2021-04-01T10:16:04.475Z</time>
      </trkpt>
      <trkpt lat="47.86256" lon="6.75365">
        <ele>611.09177559146</ele>
        <time>2021-04-01T10:16:11.697Z</time>
      </trkpt>
      <trkpt lat="47.86195" lon="6.75307">
        <ele>615.84539908209</ele>
        <time>2021-04-01T10:16:18.930Z</time>
      </trkpt>
      <trkpt lat="47.86166" lon="6.75259">
        <ele>619.84991662006</ele>
        <time>2021-04-01T10:16:26.170Z</time>
      </trkpt>
      <trkpt lat="47.86142" lon="6.75197">
        <ele>623.42076137892</ele>
        <time>2021-04-01T10:16:33.418Z</time>
      </trkpt>
      <trkpt lat="47.86136" lon="6.75164">
        <ele>627.41498726046</ele>
        <time>2021-04-01T10:16:40.670Z</time>
      </trkpt>
      <trkpt lat="47.86142" lon="6.75062">
        <ele>630.74225678259</ele>
        <time>2021-04-01T10:16:47.933Z</time>
      </trkpt>
      <trkpt lat="47.86139" lon="6.7502">
        <ele>634.55162194946</ele>
        <time>2021-04-01T10:16:55.200Z</time>
      </trkpt>
      <trkpt lat="47.86129" lon="6.74988">
        <ele>638.596887338</ele>
        <time>2021-04-01T10:17:02.471Z</time>
      </trkpt>
      <trkpt lat="47.86094" lon="6.74924">
        <ele>643.59199565082</ele>
        <time>2021-04-01T10:17:09.751Z</time>
      </trkpt>
      <trkpt lat="47.86089" lon="6.74868">
        <ele>647.9983829759</ele>
        <time>2021-04-01T10:17:17.037Z</time>
      </trkpt>
      <trkpt lat="47.86097" lon="6.74833">
        <ele>652.09140080897</ele>
        <time>2021-04-01T10:17:24.327Z</time>
      </trkpt>
      <trkpt lat="47.86163" lon="6.74724">
        <ele>656.27702254806</ele>
        <time>2021-04-01T10:17:31.633Z</time>
      </trkpt>
      <trkpt lat="47.86169" lon="6.74704">
        <ele>660.16048039572</ele>
        <time>2021-04-01T10:17:38.941Z</time>
      </trkpt>
      <trkpt lat="47.86169" lon="6.74704">
        <ele>663.80999450175</ele>
        <time>2021-04-01T10:17:46.249Z</time>
      </trkpt>
      <trkpt lat="47.86196" lon="6.74609">
        <ele>667.1911211239</ele>
        <time>2021-04-01T10:17:53.568Z</time>
      </trkpt>
      <trkpt lat="47.86212" lon="6.7432">
        <ele>671.80069560047</ele>
        <time>2021-04-01T10:18:00.919Z</time>
      </trkpt>
      <trkpt lat="47.86205" lon="6.74316">
        <ele>675.14309973395</ele>
        <time>2021-04-01T10:18:08.271Z</time>
      </trkpt>
      <trkpt lat="47.86196" lon="6.74325">
        <ele>678.33685571728</ele>
        <time>2021-04-01T10:18:15.625Z</time>
      </trkpt>
      <trkpt lat="47.86185" lon="6.74405">
        <ele>681.08452281184</ele>
        <time>2021-04-01T10:18:22.987Z</time>
      </trkpt>
      <trkpt lat="47.86155" lon="6.74556">
        <ele>684.09458553709</ele>
        <time>2021-04-01T10:18:30.366Z</time>
      </trkpt>
      <trkpt lat="47.8611" lon="6.74653">
        <ele>687.2545726064</ele>
        <time>2021-04-01T10:18:37.758Z</time>
      </trkpt>
      <trkpt lat="47.86097" lon="6.74673">
        <ele>689.54365075555</ele>
        <time>2021-04-01T10:18:45.153Z</time>
      </trkpt>
      <trkpt lat="47.86061" lon="6.74697">
        <ele>691.33511890404</ele>
        <time>2021-04-01T10:18:52.554Z</time>
      </trkpt>
      <trkpt lat="47.86002" lon="6.7471">
        <ele>692.99405344204</ele>
        <time>2021-04-01T10:18:59.965Z</time>
      </trkpt>
      <trkpt lat="47.86009" lon="6.74695">
        <ele>694.84278086959</ele>
        <time>2021-04-01T10:19:07.378Z</time>
      </trkpt>
      <trkpt lat="47.86074" lon="6.74657">
        <ele>697.15294374802</ele>
        <time>2021-04-01T10:19:14.802Z</time>
      </trkpt>
      <trkpt lat="47.86106" lon="6.74585">
        <ele>698.84104209497</ele>
        <time>2021-04-01T10:19:22.235Z</time>
      </trkpt>
      <trkpt lat="47.86117" lon="6.74511">
        <ele>700.02631702601</ele>
        <time>2021-04-01T10:19:29.677Z</time>
      </trkpt>
      <trkpt lat="47.8612" lon="6.74431">
        <ele>700.91092599582</ele>
        <time>2021-04-01T10:19:37.127Z</time>
      </trkpt>
      <trkpt lat="47.8612" lon="6.74431">
        <ele>701.84766927739</ele>
        <time>2021-04-01T10:19:44.577Z</time>
      </trkpt>
      <trkpt lat="47.86123" lon="6.74336">
        <ele>702.26435817919</ele>
        <time>2021-04-01T10:19:52.037Z</time>
      </trkpt>
      <trkpt lat="47.86144" lon="6.74252">
        <ele>702.98690660271</ele>
        <time>2021-04-01T10:19:59.507Z</time>
      </trkpt>
      <trkpt lat="47.86145" lon="6.74252">
        <ele>703.84602338786</ele>
        <time>2021-04-01T10:20:06.977Z</time>
      </trkpt>
      <trkpt lat="47.86184" lon="6.7412">
        <ele>704.35328665135</ele>
        <time>2021-04-01T10:20:14.463Z</time>
      </trkpt>
      <trkpt lat="47.86188" lon="6.74084">
        <ele>705.68142843747</ele>
        <time>2021-04-01T10:20:21.953Z</time>
      </trkpt>
      <trkpt lat="47.8618" lon="6.74048">
        <ele>707.32675105596</ele>
        <time>2021-04-01T10:20:29.447Z</time>
      </trkpt>
      <trkpt lat="47.86135" lon="6.74011">
        <ele>708.17426361587</ele>
        <time>2021-04-01T10:20:36.949Z</time>
      </trkpt>
      <trkpt lat="47.86121" lon="6.73981">
        <ele>709.58365021553</ele>
        <time>2021-04-01T10:20:44.455Z</time>
      </trkpt>
      <trkpt lat="47.86132" lon="6.73931">
        <ele>711.60939152063</ele>
        <time>2021-04-01T10:20:51.967Z</time>
      </trkpt>
      <trkpt lat="47.86132" lon="6.73833">
        <ele>713.6843980993</ele>
        <time>2021-04-01T10:20:59.489Z</time>
      </trkpt>
      <trkpt lat="47.86098" lon="6.73748">
        <ele>715.23066596857</ele>
        <time>2021-04-01T10:21:07.022Z</time>
      </trkpt>
      <trkpt lat="47.86101" lon="6.73723">
        <ele>717.11029100154</ele>
        <time>2021-04-01T10:21:14.558Z</time>
      </trkpt>
      <trkpt lat="47.86105" lon="6.73715">
        <ele>719.22083700538</ele>
        <time>2021-04-01T10:21:22.095Z</time>
      </trkpt>
      <trkpt lat="47.86118" lon="6.73714">
        <ele>721.54387162125</ele>
        <time>2021-04-01T10:21:29.634Z</time>
      </trkpt>
      <trkpt lat="47.86172" lon="6.73786">
        <ele>724.72407268663</ele>
        <time>2021-04-01T10:21:37.184Z</time>
      </trkpt>
      <trkpt lat="47.86213" lon="6.73763">
        <ele>727.43650001745</ele>
        <time>2021-04-01T10:21:44.741Z</time>
      </trkpt>
      <trkpt lat="47.86257" lon="6.73761">
        <ele>730.21275707188</ele>
        <time>2021-04-01T10:21:52.305Z</time>
      </trkpt>
      <trkpt lat="47.86314" lon="6.7371">
        <ele>733.26325916936</ele>
        <time>2021-04-01T10:21:59.880Z</time>
      </trkpt>
      <trkpt lat="47.86314" lon="6.7371">
        <ele>735.97831222285</ele>
        <time>2021-04-01T10:22:07.455Z</time>
      </trkpt>
      <trkpt lat="47.86332" lon="6.73705">
        <ele>738.88045270413</ele>
        <time>2021-04-01T10:22:15.033Z</time>
      </trkpt>
      <trkpt lat="47.86404" lon="6.73688">
        <ele>744.8779078081</ele>
        <time>2021-04-01T10:22:22.623Z</time>
      </trkpt>
      <trkpt lat="47.86489" lon="6.73717">
        <ele>747.74524392404</ele>
        <time>2021-04-01T10:22:30.227Z</time>
      </trkpt>
      <trkpt lat="47.86489" lon="6.73717">
        <ele>750.31060955981</ele>
        <time>2021-04-01T10:22:37.831Z</time>
      </trkpt>
      <trkpt lat="47.86544" lon="6.73735">
        <ele>752.79669759393</ele>
        <time>2021-04-01T10:22:45.444Z</time>
      </trkpt>
      <trkpt lat="47.86551" lon="6.73729">
        <ele>755.18989483463</ele>
        <time>2021-04-01T10:22:53.058Z</time>
      </trkpt>
      <trkpt lat="47.86563" lon="6.7369">
        <ele>757.63446085768</ele>
        <time>2021-04-01T10:23:00.676Z</time>
      </trkpt>
      <trkpt lat="47.86559" lon="6.73656">
        <ele>759.94241676525</ele>
        <time>2021-04-01T10:23:08.298Z</time>
      </trkpt>
      <trkpt lat="47.86514" lon="6.7358">
        <ele>762.13161957924</ele>
        <time>2021-04-01T10:23:15.931Z</time>
      </trkpt>
      <trkpt lat="47.86503" lon="6.73554">
        <ele>763.77943341411</ele>
        <time>2021-04-01T10:23:23.567Z</time>
      </trkpt>
      <trkpt lat="47.86505" lon="6.73535">
        <ele>765.33154246292</ele>
        <time>2021-04-01T10:23:31.206Z</time>
      </trkpt>
      <trkpt lat="47.8652" lon="6.73482">
        <ele>766.76974462365</ele>
        <time>2021-04-01T10:23:38.851Z</time>
      </trkpt>
      <trkpt lat="47.86536" lon="6.73293">
        <ele>767.8744601385</ele>
        <time>2021-04-01T10:23:46.516Z</time>
      </trkpt>
      <trkpt lat="47.86594" lon="6.73155">
        <ele>769.28077463539</ele>
        <time>2021-04-01T10:23:54.199Z</time>
      </trkpt>
      <trkpt lat="47.86611" lon="6.73077">
        <ele>770.19266189666</ele>
        <time>2021-04-01T10:24:01.891Z</time>
      </trkpt>
      <trkpt lat="47.86611" lon="6.73077">
        <ele>770.73813905045</ele>
        <time>2021-04-01T10:24:09.583Z</time>
      </trkpt>
      <trkpt lat="47.86622" lon="6.7306">
        <ele>771.13909144394</ele>
        <time>2021-04-01T10:24:17.277Z</time>
      </trkpt>
      <trkpt lat="47.86665" lon="6.73051">
        <ele>771.10937615932</ele>
        <time>2021-04-01T10:24:24.978Z</time>
      </trkpt>
      <trkpt lat="47.86693" lon="6.73046">
        <ele>770.95706124052</ele>
        <time>2021-04-01T10:24:32.684Z</time>
      </trkpt>
      <trkpt lat="47.86793" lon="6.73023">
        <ele>770.56717831471</ele>
        <time>2021-04-01T10:24:40.406Z</time>
      </trkpt>
      <trkpt lat="47.86858" lon="6.72959">
        <ele>770.41501022107</ele>
        <time>2021-04-01T10:24:48.140Z</time>
      </trkpt>
      <trkpt lat="47.86884" lon="6.72923">
        <ele>770.1067513813</ele>
        <time>2021-04-01T10:24:55.880Z</time>
      </trkpt>
      <trkpt lat="47.86887" lon="6.72907">
        <ele>769.73964544334</ele>
        <time>2021-04-01T10:25:03.622Z</time>
      </trkpt>
      <trkpt lat="47.86898" lon="6.7277">
        <ele>769.10358383636</ele>
        <time>2021-04-01T10:25:11.379Z</time>
      </trkpt>
      <trkpt lat="47.86905" lon="6.72756">
        <ele>768.61801420663</ele>
        <time>2021-04-01T10:25:19.138Z</time>
      </trkpt>
      <trkpt lat="47.86941" lon="6.72736">
        <ele>768.27748225676</ele>
        <time>2021-04-01T10:25:26.903Z</time>
      </trkpt>
      <trkpt lat="47.86952" lon="6.72708">
        <ele>767.82701790149</ele>
        <time>2021-04-01T10:25:34.671Z</time>
      </trkpt>
      <trkpt lat="47.86951" lon="6.72679">
        <ele>767.37456360523</ele>
        <time>2021-04-01T10:25:42.442Z</time>
      </trkpt>
      <trkpt lat="47.86947" lon="6.72544">
        <ele>766.39252855812</ele>
        <time>2021-04-01T10:25:50.228Z</time>
      </trkpt>
      <trkpt lat="47.86953" lon="6.72509">
        <ele>766.01650662946</ele>
        <time>2021-04-01T10:25:58.018Z</time>
      </trkpt>
      <trkpt lat="47.86991" lon="6.72412">
        <ele>766.16003886999</ele>
        <time>2021-04-01T10:26:05.820Z</time>
      </trkpt>
      <trkpt lat="47.87032" lon="6.72358">
        <ele>765.8901010098</ele>
        <time>2021-04-01T10:26:13.631Z</time>
      </trkpt>
      <trkpt lat="47.87032" lon="6.72358">
        <ele>765.68147914568</ele>
        <time>2021-04-01T10:26:21.442Z</time>
      </trkpt>
      <trkpt lat="47.87062" lon="6.72327">
        <ele>765.79497616644</ele>
        <time>2021-04-01T10:26:29.258Z</time>
      </trkpt>
      <trkpt lat="47.87062" lon="6.72327">
        <ele>765.63829676667</ele>
        <time>2021-04-01T10:26:37.074Z</time>
      </trkpt>
      <trkpt lat="47.87143" lon="6.7229">
        <ele>765.65999443604</ele>
        <time>2021-04-01T10:26:44.904Z</time>
      </trkpt>
      <trkpt lat="47.87159" lon="6.72274">
        <ele>765.5042161975</ele>
        <time>2021-04-01T10:26:52.737Z</time>
      </trkpt>
      <trkpt lat="47.87216" lon="6.72086">
        <ele>765.77712802567</ele>
        <time>2021-04-01T10:27:00.592Z</time>
      </trkpt>
      <trkpt lat="47.87259" lon="6.72001">
        <ele>765.51831701067</ele>
        <time>2021-04-01T10:27:08.459Z</time>
      </trkpt>
      <trkpt lat="47.87284" lon="6.71847">
        <ele>765.0556046506</ele>
        <time>2021-04-01T10:27:16.343Z</time>
      </trkpt>
      <trkpt lat="47.8732" lon="6.71721">
        <ele>764.70422435621</ele>
        <time>2021-04-01T10:27:24.242Z</time>
      </trkpt>
      <trkpt lat="47.87329" lon="6.71613">
        <ele>764.28441120932</ele>
        <time>2021-04-01T10:27:32.152Z</time>
      </trkpt>
      <trkpt lat="47.87306" lon="6.71464">
        <ele>764.00089767289</ele>
        <time>2021-04-01T10:27:40.079Z</time>
      </trkpt>
      <trkpt lat="47.87308" lon="6.71432">
        <ele>763.45234910513</ele>
        <time>2021-04-01T10:27:48.009Z</time>
      </trkpt>
      <trkpt lat="47.87336" lon="6.71409">
        <ele>762.7613525555</ele>
        <time>2021-04-01T10:27:55.945Z</time>
      </trkpt>
      <trkpt lat="47.87437" lon="6.71385">
        <ele>762.01246928025</ele>
        <time>2021-04-01T10:28:03.897Z</time>
      </trkpt>
      <trkpt lat="47.87447" lon="6.71374">
        <ele>761.5436578356</ele>
        <time>2021-04-01T10:28:11.851Z</time>
      </trkpt>
      <trkpt lat="47.87474" lon="6.71282">
        <ele>761.00482873652</ele>
        <time>2021-04-01T10:28:19.816Z</time>
      </trkpt>
      <trkpt lat="47.87474" lon="6.71282">
        <ele>760.55208071656</ele>
        <time>2021-04-01T10:28:27.781Z</time>
      </trkpt>
      <trkpt lat="47.87534" lon="6.71084">
        <ele>760.01331600072</ele>
        <time>2021-04-01T10:28:35.769Z</time>
      </trkpt>
      <trkpt lat="47.87534" lon="6.71084">
        <ele>759.56051892781</ele>
        <time>2021-04-01T10:28:43.757Z</time>
      </trkpt>
      <trkpt lat="47.87537" lon="6.71074">
        <ele>759.12462670667</ele>
        <time>2021-04-01T10:28:51.746Z</time>
      </trkpt>
      <trkpt lat="47.87636" lon="6.71009">
        <ele>758.84928468233</ele>
        <time>2021-04-01T10:28:59.753Z</time>
      </trkpt>
      <trkpt lat="47.87683" lon="6.70967">
        <ele>758.35967554398</ele>
        <time>2021-04-01T10:29:07.768Z</time>
      </trkpt>
      <trkpt lat="47.87685" lon="6.70932">
        <ele>757.93193040351</ele>
        <time>2021-04-01T10:29:15.787Z</time>
      </trkpt>
      <trkpt lat="47.87647" lon="6.70809">
        <ele>757.43730313093</ele>
        <time>2021-04-01T10:29:23.821Z</time>
      </trkpt>
      <trkpt lat="47.87651" lon="6.70776">
        <ele>756.76593997165</ele>
        <time>2021-04-01T10:29:31.858Z</time>
      </trkpt>
      <trkpt lat="47.87704" lon="6.70682">
        <ele>755.73753700375</ele>
        <time>2021-04-01T10:29:39.909Z</time>
      </trkpt>
      <trkpt lat="47.87774" lon="6.70604">
        <ele>755.25789308802</ele>
        <time>2021-04-01T10:29:47.974Z</time>
      </trkpt>
      <trkpt lat="47.87788" lon="6.70598">
        <ele>754.47297668952</ele>
        <time>2021-04-01T10:29:56.041Z</time>
      </trkpt>
      <trkpt lat="47.87834" lon="6.70632">
        <ele>760.52572938435</ele>
        <time>2021-04-01T10:30:04.116Z</time>
      </trkpt>
      <trkpt lat="47.87794" lon="6.70498">
        <ele>751.07368513376</ele>
        <time>2021-04-01T10:30:12.207Z</time>
      </trkpt>
      <trkpt lat="47.87804" lon="6.70402">
        <ele>749.9419573291</ele>
        <time>2021-04-01T10:30:20.308Z</time>
      </trkpt>
      <trkpt lat="47.8776" lon="6.70256">
        <ele>748.72453203129</ele>
        <time>2021-04-01T10:30:28.427Z</time>
      </trkpt>
      <trkpt lat="47.87721" lon="6.70206">
        <ele>747.63820111734</ele>
        <time>2021-04-01T10:30:36.554Z</time>
      </trkpt>
      <trkpt lat="47.8766" lon="6.70149">
        <ele>746.55334584781</ele>
        <time>2021-04-01T10:30:44.692Z</time>
      </trkpt>
      <trkpt lat="47.8766" lon="6.70149">
        <ele>745.30392295521</ele>
        <time>2021-04-01T10:30:52.830Z</time>
      </trkpt>
      <trkpt lat="47.8765" lon="6.7014">
        <ele>743.97222272117</ele>
        <time>2021-04-01T10:31:00.970Z</time>
      </trkpt>
      <trkpt lat="47.87611" lon="6.70086">
        <ele>742.41151132366</ele>
        <time>2021-04-01T10:31:09.119Z</time>
      </trkpt>
      <trkpt lat="47.87504" lon="6.69981">
        <ele>740.90699862159</ele>
        <time>2021-04-01T10:31:17.288Z</time>
      </trkpt>
      <trkpt lat="47.87463" lon="6.69903">
        <ele>739.3438098458</ele>
        <time>2021-04-01T10:31:25.468Z</time>
      </trkpt>
      <trkpt lat="47.87363" lon="6.69667">
        <ele>737.72144102553</ele>
        <time>2021-04-01T10:31:33.678Z</time>
      </trkpt>
      <trkpt lat="47.8735" lon="6.69453">
        <ele>735.99112797644</ele>
        <time>2021-04-01T10:31:41.911Z</time>
      </trkpt>
      <trkpt lat="47.8735" lon="6.69453">
        <ele>734.17497679</ele>
        <time>2021-04-01T10:31:50.144Z</time>
      </trkpt>
      <trkpt lat="47.87326" lon="6.69153">
        <ele>731.98121802449</ele>
        <time>2021-04-01T10:31:58.410Z</time>
      </trkpt>
      <trkpt lat="47.87202" lon="6.68753">
        <ele>729.55160084063</ele>
        <time>2021-04-01T10:32:06.723Z</time>
      </trkpt>
      <trkpt lat="47.87206" lon="6.68719">
        <ele>727.68470037558</ele>
        <time>2021-04-01T10:32:15.040Z</time>
      </trkpt>
      <trkpt lat="47.8726" lon="6.68531">
        <ele>725.18770791594</ele>
        <time>2021-04-01T10:32:23.379Z</time>
      </trkpt>
      <trkpt lat="47.87279" lon="6.68469">
        <ele>722.75696105215</ele>
        <time>2021-04-01T10:32:31.725Z</time>
      </trkpt>
      <trkpt lat="47.87299" lon="6.6839">
        <ele>720.48271458733</ele>
        <time>2021-04-01T10:32:40.080Z</time>
      </trkpt>
      <trkpt lat="47.8732" lon="6.68162">
        <ele>718.40565231278</ele>
        <time>2021-04-01T10:32:48.460Z</time>
      </trkpt>
      <trkpt lat="47.87247" lon="6.6803">
        <ele>716.09983808015</ele>
        <time>2021-04-01T10:32:56.859Z</time>
      </trkpt>
      <trkpt lat="47.87247" lon="6.6803">
        <ele>713.97963084869</ele>
        <time>2021-04-01T10:33:05.258Z</time>
      </trkpt>
      <trkpt lat="47.87237" lon="6.68011">
        <ele>711.85554601162</ele>
        <time>2021-04-01T10:33:13.659Z</time>
      </trkpt>
      <trkpt lat="47.87201" lon="6.67929">
        <ele>709.55554713808</ele>
        <time>2021-04-01T10:33:22.071Z</time>
      </trkpt>
      <trkpt lat="47.87147" lon="6.67751">
        <ele>707.16451488752</ele>
        <time>2021-04-01T10:33:30.504Z</time>
      </trkpt>
      <trkpt lat="47.87147" lon="6.67751">
        <ele>705.17909008664</ele>
        <time>2021-04-01T10:33:38.937Z</time>
      </trkpt>
      <trkpt lat="47.87148" lon="6.67711">
        <ele>703.37989527086</ele>
        <time>2021-04-01T10:33:47.374Z</time>
      </trkpt>
      <trkpt lat="47.87143" lon="6.67692">
        <ele>701.53098472155</ele>
        <time>2021-04-01T10:33:55.813Z</time>
      </trkpt>
      <trkpt lat="47.87073" lon="6.6759">
        <ele>699.25956341088</ele>
        <time>2021-04-01T10:34:04.268Z</time>
      </trkpt>
      <trkpt lat="47.87033" lon="6.67505">
        <ele>697.18954552157</ele>
        <time>2021-04-01T10:34:12.734Z</time>
      </trkpt>
      <trkpt lat="47.87009" lon="6.6738">
        <ele>695.46363638046</ele>
        <time>2021-04-01T10:34:21.214Z</time>
      </trkpt>
      <trkpt lat="47.87016" lon="6.67308">
        <ele>693.84789210319</ele>
        <time>2021-04-01T10:34:29.702Z</time>
      </trkpt>
      <trkpt lat="47.87052" lon="6.67253">
        <ele>692.07904614376</ele>
        <time>2021-04-01T10:34:38.198Z</time>
      </trkpt>
      <trkpt lat="47.87085" lon="6.67162">
        <ele>690.74042631836</ele>
        <time>2021-04-01T10:34:46.706Z</time>
      </trkpt>
      <trkpt lat="47.87093" lon="6.6712">
        <ele>689.5599885482</ele>
        <time>2021-04-01T10:34:55.218Z</time>
      </trkpt>
      <trkpt lat="47.87098" lon="6.66954">
        <ele>688.3051651992</ele>
        <time>2021-04-01T10:35:03.748Z</time>
      </trkpt>
      <trkpt lat="47.87098" lon="6.66895">
        <ele>687.12518161424</ele>
        <time>2021-04-01T10:35:12.285Z</time>
      </trkpt>
      <trkpt lat="47.8711" lon="6.66772">
        <ele>685.86297131612</ele>
        <time>2021-04-01T10:35:20.835Z</time>
      </trkpt>
      <trkpt lat="47.87105" lon="6.66715">
        <ele>684.7342773563</ele>
        <time>2021-04-01T10:35:29.391Z</time>
      </trkpt>
      <trkpt lat="47.87081" lon="6.66648">
        <ele>683.67947038678</ele>
        <time>2021-04-01T10:35:37.955Z</time>
      </trkpt>
      <trkpt lat="47.87052" lon="6.66625">
        <ele>682.73794583377</ele>
        <time>2021-04-01T10:35:46.524Z</time>
      </trkpt>
      <trkpt lat="47.86974" lon="6.66692">
        <ele>682.07872929338</ele>
        <time>2021-04-01T10:35:55.108Z</time>
      </trkpt>
      <trkpt lat="47.86934" lon="6.66706">
        <ele>681.28007568889</ele>
        <time>2021-04-01T10:36:03.698Z</time>
      </trkpt>
      <trkpt lat="47.86858" lon="6.66715">
        <ele>680.2132432218</ele>
        <time>2021-04-01T10:36:12.301Z</time>
      </trkpt>
      <trkpt lat="47.86837" lon="6.66691">
        <ele>679.15350551153</ele>
        <time>2021-04-01T10:36:20.908Z</time>
      </trkpt>
      <trkpt lat="47.86827" lon="6.66668">
        <ele>678.02303988559</ele>
        <time>2021-04-01T10:36:29.518Z</time>
      </trkpt>
      <trkpt lat="47.868" lon="6.66656">
        <ele>676.77199597366</ele>
        <time>2021-04-01T10:36:38.132Z</time>
      </trkpt>
      <trkpt lat="47.86749" lon="6.66664">
        <ele>675.51964682801</ele>
        <time>2021-04-01T10:36:46.755Z</time>
      </trkpt>
      <trkpt lat="47.86734" lon="6.66676">
        <ele>674.26401780927</ele>
        <time>2021-04-01T10:36:55.380Z</time>
      </trkpt>
      <trkpt lat="47.86712" lon="6.66719">
        <ele>672.8979726917</ele>
        <time>2021-04-01T10:37:04.011Z</time>
      </trkpt>
      <trkpt lat="47.867" lon="6.66769">
        <ele>671.52812260528</ele>
        <time>2021-04-01T10:37:12.648Z</time>
      </trkpt>
      <trkpt lat="47.867" lon="6.66769">
        <ele>669.99929572803</ele>
        <time>2021-04-01T10:37:21.285Z</time>
      </trkpt>
      <trkpt lat="47.86625" lon="6.67089">
        <ele>667.81081944895</ele>
        <time>2021-04-01T10:37:29.958Z</time>
      </trkpt>
      <trkpt lat="47.86613" lon="6.67228">
        <ele>665.7199887407</ele>
        <time>2021-04-01T10:37:38.647Z</time>
      </trkpt>
      <trkpt lat="47.86619" lon="6.67305">
        <ele>663.82764436674</ele>
        <time>2021-04-01T10:37:47.344Z</time>
      </trkpt>
      <trkpt lat="47.86613" lon="6.67359">
        <ele>661.92407727209</ele>
        <time>2021-04-01T10:37:56.047Z</time>
      </trkpt>
      <trkpt lat="47.86615" lon="6.67394">
        <ele>659.80057655316</ele>
        <time>2021-04-01T10:38:04.753Z</time>
      </trkpt>
      <trkpt lat="47.86625" lon="6.67417">
        <ele>657.49065516584</ele>
        <time>2021-04-01T10:38:13.462Z</time>
      </trkpt>
      <trkpt lat="47.86646" lon="6.67431">
        <ele>655.0686898407</ele>
        <time>2021-04-01T10:38:22.175Z</time>
      </trkpt>
      <trkpt lat="47.867" lon="6.67438">
        <ele>652.60701151607</ele>
        <time>2021-04-01T10:38:30.897Z</time>
      </trkpt>
      <trkpt lat="47.86716" lon="6.67462">
        <ele>650.18270677622</ele>
        <time>2021-04-01T10:38:39.622Z</time>
      </trkpt>
      <trkpt lat="47.86726" lon="6.67501">
        <ele>647.56821692175</ele>
        <time>2021-04-01T10:38:48.352Z</time>
      </trkpt>
      <trkpt lat="47.86735" lon="6.67564">
        <ele>644.79694112101</ele>
        <time>2021-04-01T10:38:57.089Z</time>
      </trkpt>
      <trkpt lat="47.86732" lon="6.6764">
        <ele>641.93912856098</ele>
        <time>2021-04-01T10:39:05.834Z</time>
      </trkpt>
      <trkpt lat="47.86717" lon="6.67668">
        <ele>639.08297664902</ele>
        <time>2021-04-01T10:39:14.583Z</time>
      </trkpt>
      <trkpt lat="47.86703" lon="6.67675">
        <ele>636.19681977166</ele>
        <time>2021-04-01T10:39:23.334Z</time>
      </trkpt>
      <trkpt lat="47.86703" lon="6.67675">
        <ele>633.38640063222</ele>
        <time>2021-04-01T10:39:32.085Z</time>
      </trkpt>
      <trkpt lat="47.86566" lon="6.67714">
        <ele>630.48516226482</ele>
        <time>2021-04-01T10:39:40.859Z</time>
      </trkpt>
      <trkpt lat="47.86471" lon="6.67844">
        <ele>626.55458098283</ele>
        <time>2021-04-01T10:39:49.653Z</time>
      </trkpt>
      <trkpt lat="47.86427" lon="6.67837">
        <ele>623.49587246126</ele>
        <time>2021-04-01T10:39:58.455Z</time>
      </trkpt>
      <trkpt lat="47.86414" lon="6.67843">
        <ele>620.66880038925</ele>
        <time>2021-04-01T10:40:07.259Z</time>
      </trkpt>
      <trkpt lat="47.86361" lon="6.67931">
        <ele>617.64546199044</ele>
        <time>2021-04-01T10:40:16.075Z</time>
      </trkpt>
      <trkpt lat="47.86349" lon="6.67932">
        <ele>615.04177977257</ele>
        <time>2021-04-01T10:40:24.893Z</time>
      </trkpt>
      <trkpt lat="47.86349" lon="6.67932">
        <ele>612.55875680688</ele>
        <time>2021-04-01T10:40:33.711Z</time>
      </trkpt>
      <trkpt lat="47.86343" lon="6.67933">
        <ele>610.16531067892</ele>
        <time>2021-04-01T10:40:42.530Z</time>
      </trkpt>
      <trkpt lat="47.86338" lon="6.67928">
        <ele>607.87296816092</ele>
        <time>2021-04-01T10:40:51.350Z</time>
      </trkpt>
      <trkpt lat="47.86318" lon="6.67872">
        <ele>605.52188684997</ele>
        <time>2021-04-01T10:41:00.177Z</time>
      </trkpt>
      <trkpt lat="47.8626" lon="6.67819">
        <ele>603.23441780072</ele>
        <time>2021-04-01T10:41:09.015Z</time>
      </trkpt>
      <trkpt lat="47.8626" lon="6.67819">
        <ele>601.26355231134</ele>
        <time>2021-04-01T10:41:17.853Z</time>
      </trkpt>
      <trkpt lat="47.86207" lon="6.67771">
        <ele>599.27316552953</ele>
        <time>2021-04-01T10:41:26.701Z</time>
      </trkpt>
      <trkpt lat="47.86153" lon="6.67689">
        <ele>597.44157992837</ele>
        <time>2021-04-01T10:41:35.561Z</time>
      </trkpt>
      <trkpt lat="47.86135" lon="6.6768">
        <ele>595.7191436603</ele>
        <time>2021-04-01T10:41:44.424Z</time>
      </trkpt>
      <trkpt lat="47.86135" lon="6.6768">
        <ele>594.12318772719</ele>
        <time>2021-04-01T10:41:53.287Z</time>
      </trkpt>
      <trkpt lat="47.86116" lon="6.6767">
        <ele>592.56379194866</ele>
        <time>2021-04-01T10:42:02.154Z</time>
      </trkpt>
      <trkpt lat="47.86116" lon="6.6767">
        <ele>591.12248070744</ele>
        <time>2021-04-01T10:42:11.021Z</time>
      </trkpt>
      <trkpt lat="47.86034" lon="6.6755">
        <ele>589.89891453472</ele>
        <time>2021-04-01T10:42:19.906Z</time>
      </trkpt>
      <trkpt lat="47.85966" lon="6.67343">
        <ele>588.66262643242</ele>
        <time>2021-04-01T10:42:28.816Z</time>
      </trkpt>
      <trkpt lat="47.8592" lon="6.67287">
        <ele>587.18419229694</ele>
        <time>2021-04-01T10:42:37.735Z</time>
      </trkpt>
      <trkpt lat="47.85877" lon="6.67274">
        <ele>585.88276764345</ele>
        <time>2021-04-01T10:42:46.661Z</time>
      </trkpt>
      <trkpt lat="47.85853" lon="6.67283">
        <ele>584.68196004982</ele>
        <time>2021-04-01T10:42:55.592Z</time>
      </trkpt>
      <trkpt lat="47.85777" lon="6.67245">
        <ele>583.45051405144</ele>
        <time>2021-04-01T10:43:04.535Z</time>
      </trkpt>
      <trkpt lat="47.85739" lon="6.67203">
        <ele>582.49577341187</ele>
        <time>2021-04-01T10:43:13.486Z</time>
      </trkpt>
      <trkpt lat="47.85692" lon="6.67157">
        <ele>581.49943576232</ele>
        <time>2021-04-01T10:43:22.446Z</time>
      </trkpt>
      <trkpt lat="47.85584" lon="6.67102">
        <ele>580.77234755236</ele>
        <time>2021-04-01T10:43:31.424Z</time>
      </trkpt>
      <trkpt lat="47.8548" lon="6.67019">
        <ele>579.99357347222</ele>
        <time>2021-04-01T10:43:40.421Z</time>
      </trkpt>
      <trkpt lat="47.85421" lon="6.66932">
        <ele>579.49695123846</ele>
        <time>2021-04-01T10:43:49.431Z</time>
      </trkpt>
      <trkpt lat="47.85406" lon="6.66926">
        <ele>579.17201146217</ele>
        <time>2021-04-01T10:43:58.444Z</time>
      </trkpt>
      <trkpt lat="47.85378" lon="6.66977">
        <ele>579.20603106993</ele>
        <time>2021-04-01T10:44:07.464Z</time>
      </trkpt>
      <trkpt lat="47.85375" lon="6.66985">
        <ele>579.46644541151</ele>
        <time>2021-04-01T10:44:16.485Z</time>
      </trkpt>
      <trkpt lat="47.85365" lon="6.66996">
        <ele>579.9671395263</ele>
        <time>2021-04-01T10:44:25.508Z</time>
      </trkpt>
      <trkpt lat="47.85317" lon="6.66965">
        <ele>580.49081290406</ele>
        <time>2021-04-01T10:44:34.539Z</time>
      </trkpt>
      <trkpt lat="47.85286" lon="6.66958">
        <ele>581.14440713918</ele>
        <time>2021-04-01T10:44:43.575Z</time>
      </trkpt>
      <trkpt lat="47.85222" lon="6.66978">
        <ele>582.75643534512</ele>
        <time>2021-04-01T10:44:52.622Z</time>
      </trkpt>
      <trkpt lat="47.85198" lon="6.66975">
        <ele>584.46559213832</ele>
        <time>2021-04-01T10:45:01.673Z</time>
      </trkpt>
      <trkpt lat="47.85146" lon="6.66826">
        <ele>584.90968861284</ele>
        <time>2021-04-01T10:45:10.742Z</time>
      </trkpt>
      <trkpt lat="47.85122" lon="6.66788">
        <ele>586.04543325068</ele>
        <time>2021-04-01T10:45:19.816Z</time>
      </trkpt>
      <trkpt lat="47.85086" lon="6.66777">
        <ele>587.64113812391</ele>
        <time>2021-04-01T10:45:28.896Z</time>
      </trkpt>
      <trkpt lat="47.85034" lon="6.66776">
        <ele>589.43949762036</ele>
        <time>2021-04-01T10:45:37.985Z</time>
      </trkpt>
      <trkpt lat="47.84989" lon="6.66717">
        <ele>590.92679363757</ele>
        <time>2021-04-01T10:45:47.083Z</time>
      </trkpt>
      <trkpt lat="47.84907" lon="6.66679">
        <ele>593.3345492236</ele>
        <time>2021-04-01T10:45:56.195Z</time>
      </trkpt>
      <trkpt lat="47.84895" lon="6.66664">
        <ele>594.99701782178</ele>
        <time>2021-04-01T10:46:05.309Z</time>
      </trkpt>
      <trkpt lat="47.84885" lon="6.66621">
        <ele>596.54612834607</ele>
        <time>2021-04-01T10:46:14.428Z</time>
      </trkpt>
      <trkpt lat="47.84886" lon="6.66395">
        <ele>597.59872507282</ele>
        <time>2021-04-01T10:46:23.572Z</time>
      </trkpt>
      <trkpt lat="47.84871" lon="6.66304">
        <ele>598.44826040766</ele>
        <time>2021-04-01T10:46:32.726Z</time>
      </trkpt>
      <trkpt lat="47.84843" lon="6.66231">
        <ele>599.21128095478</ele>
        <time>2021-04-01T10:46:41.889Z</time>
      </trkpt>
      <trkpt lat="47.84831" lon="6.66215">
        <ele>600.34600236526</ele>
        <time>2021-04-01T10:46:51.054Z</time>
      </trkpt>
      <trkpt lat="47.84831" lon="6.66215">
        <ele>601.43390165693</ele>
        <time>2021-04-01T10:47:00.219Z</time>
      </trkpt>
      <trkpt lat="47.84808" lon="6.66193">
        <ele>602.55945726391</ele>
        <time>2021-04-01T10:47:09.389Z</time>
      </trkpt>
      <trkpt lat="47.84777" lon="6.66205">
        <ele>603.47871755343</ele>
        <time>2021-04-01T10:47:18.564Z</time>
      </trkpt>
      <trkpt lat="47.84767" lon="6.66201">
        <ele>604.52943742476</ele>
        <time>2021-04-01T10:47:27.741Z</time>
      </trkpt>
      <trkpt lat="47.8476" lon="6.66187">
        <ele>605.63721342784</ele>
        <time>2021-04-01T10:47:36.919Z</time>
      </trkpt>
      <trkpt lat="47.8476" lon="6.66153">
        <ele>606.8592118596</ele>
        <time>2021-04-01T10:47:46.101Z</time>
      </trkpt>
      <trkpt lat="47.84754" lon="6.66127">
        <ele>608.0103877281</ele>
        <time>2021-04-01T10:47:55.286Z</time>
      </trkpt>
      <trkpt lat="47.8471" lon="6.66076">
        <ele>609.24708605023</ele>
        <time>2021-04-01T10:48:04.480Z</time>
      </trkpt>
      <trkpt lat="47.8469" lon="6.66073">
        <ele>610.48231202684</ele>
        <time>2021-04-01T10:48:13.677Z</time>
      </trkpt>
      <trkpt lat="47.84618" lon="6.66099">
        <ele>611.79338812008</ele>
        <time>2021-04-01T10:48:22.886Z</time>
      </trkpt>
      <trkpt lat="47.84578" lon="6.66094">
        <ele>613.11363246748</ele>
        <time>2021-04-01T10:48:32.102Z</time>
      </trkpt>
      <trkpt lat="47.84558" lon="6.66108">
        <ele>616.62156845013</ele>
        <time>2021-04-01T10:48:41.321Z</time>
      </trkpt>
      <trkpt lat="47.84551" lon="6.66104">
        <ele>617.79121984162</ele>
        <time>2021-04-01T10:48:50.541Z</time>
      </trkpt>
      <trkpt lat="47.84554" lon="6.6599">
        <ele>619.17375455492</ele>
        <time>2021-04-01T10:48:59.774Z</time>
      </trkpt>
      <trkpt lat="47.84529" lon="6.65897">
        <ele>620.55840594287</ele>
        <time>2021-04-01T10:49:09.017Z</time>
      </trkpt>
      <trkpt lat="47.8448" lon="6.65849">
        <ele>621.75237415539</ele>
        <time>2021-04-01T10:49:18.270Z</time>
      </trkpt>
      <trkpt lat="47.8445" lon="6.65972">
        <ele>622.66359876968</ele>
        <time>2021-04-01T10:49:27.537Z</time>
      </trkpt>
      <trkpt lat="47.84438" lon="6.65986">
        <ele>623.50864782811</ele>
        <time>2021-04-01T10:49:36.806Z</time>
      </trkpt>
      <trkpt lat="47.84412" lon="6.65986">
        <ele>624.33773930662</ele>
        <time>2021-04-01T10:49:46.080Z</time>
      </trkpt>
      <trkpt lat="47.84391" lon="6.66001">
        <ele>625.20911004261</ele>
        <time>2021-04-01T10:49:55.357Z</time>
      </trkpt>
      <trkpt lat="47.84322" lon="6.66144">
        <ele>626.32202407628</ele>
        <time>2021-04-01T10:50:04.653Z</time>
      </trkpt>
      <trkpt lat="47.84237" lon="6.66224">
        <ele>627.24332839659</ele>
        <time>2021-04-01T10:50:13.965Z</time>
      </trkpt>
      <trkpt lat="47.84145" lon="6.66281">
        <ele>628.09538668671</ele>
        <time>2021-04-01T10:50:23.293Z</time>
      </trkpt>
      <trkpt lat="47.84145" lon="6.66281">
        <ele>629.14566839153</ele>
        <time>2021-04-01T10:50:32.621Z</time>
      </trkpt>
      <trkpt lat="47.84097" lon="6.66274">
        <ele>630.16492043848</ele>
        <time>2021-04-01T10:50:41.957Z</time>
      </trkpt>
      <trkpt lat="47.84074" lon="6.66288">
        <ele>631.33425751074</ele>
        <time>2021-04-01T10:50:51.297Z</time>
      </trkpt>
      <trkpt lat="47.84034" lon="6.66295">
        <ele>632.67695652718</ele>
        <time>2021-04-01T10:51:00.643Z</time>
      </trkpt>
      <trkpt lat="47.84003" lon="6.66309">
        <ele>634.12220899778</ele>
        <time>2021-04-01T10:51:09.995Z</time>
      </trkpt>
      <trkpt lat="47.83959" lon="6.66347">
        <ele>635.6859503224</ele>
        <time>2021-04-01T10:51:19.355Z</time>
      </trkpt>
      <trkpt lat="47.83945" lon="6.66344">
        <ele>637.09779302299</ele>
        <time>2021-04-01T10:51:28.717Z</time>
      </trkpt>
      <trkpt lat="47.83921" lon="6.66307">
        <ele>638.54291020378</ele>
        <time>2021-04-01T10:51:38.084Z</time>
      </trkpt>
      <trkpt lat="47.83913" lon="6.66303">
        <ele>639.96265889386</ele>
        <time>2021-04-01T10:51:47.453Z</time>
      </trkpt>
      <trkpt lat="47.83901" lon="6.66313">
        <ele>641.42498892956</ele>
        <time>2021-04-01T10:51:56.824Z</time>
      </trkpt>
      <trkpt lat="47.83894" lon="6.66345">
        <ele>642.85491214045</ele>
        <time>2021-04-01T10:52:06.199Z</time>
      </trkpt>
      <trkpt lat="47.83926" lon="6.66472">
        <ele>644.48435349667</ele>
        <time>2021-04-01T10:52:15.588Z</time>
      </trkpt>
      <trkpt lat="47.8395" lon="6.66521">
        <ele>645.66505656726</ele>
        <time>2021-04-01T10:52:24.984Z</time>
      </trkpt>
      <trkpt lat="47.8395" lon="6.66543">
        <ele>646.83843260453</ele>
        <time>2021-04-01T10:52:34.382Z</time>
      </trkpt>
      <trkpt lat="47.8393" lon="6.66571">
        <ele>647.95591182017</ele>
        <time>2021-04-01T10:52:43.785Z</time>
      </trkpt>
      <trkpt lat="47.83906" lon="6.66576">
        <ele>648.85365132932</ele>
        <time>2021-04-01T10:52:53.192Z</time>
      </trkpt>
      <trkpt lat="47.83894" lon="6.66592">
        <ele>649.66103984866</ele>
        <time>2021-04-01T10:53:02.601Z</time>
      </trkpt>
      <trkpt lat="47.83846" lon="6.66671">
        <ele>650.48204837946</ele>
        <time>2021-04-01T10:53:12.022Z</time>
      </trkpt>
      <trkpt lat="47.83822" lon="6.66697">
        <ele>650.95098417489</ele>
        <time>2021-04-01T10:53:21.448Z</time>
      </trkpt>
      <trkpt lat="47.83822" lon="6.66697">
        <ele>651.11340506773</ele>
        <time>2021-04-01T10:53:30.874Z</time>
      </trkpt>
      <trkpt lat="47.83737" lon="6.66735">
        <ele>650.81269924281</ele>
        <time>2021-04-01T10:53:40.314Z</time>
      </trkpt>
      <trkpt lat="47.83726" lon="6.66755">
        <ele>650.53990959225</ele>
        <time>2021-04-01T10:53:49.756Z</time>
      </trkpt>
      <trkpt lat="47.83712" lon="6.66812">
        <ele>650.01516029488</ele>
        <time>2021-04-01T10:53:59.205Z</time>
      </trkpt>
      <trkpt lat="47.83703" lon="6.66831">
        <ele>649.0016860003</ele>
        <time>2021-04-01T10:54:08.657Z</time>
      </trkpt>
      <trkpt lat="47.83683" lon="6.66847">
        <ele>647.60998820358</ele>
        <time>2021-04-01T10:54:18.112Z</time>
      </trkpt>
      <trkpt lat="47.83683" lon="6.66847">
        <ele>646.056289462</ele>
        <time>2021-04-01T10:54:27.567Z</time>
      </trkpt>
      <trkpt lat="47.83658" lon="6.66856">
        <ele>644.11779206263</ele>
        <time>2021-04-01T10:54:37.026Z</time>
      </trkpt>
      <trkpt lat="47.8358" lon="6.66843">
        <ele>641.508059736</ele>
        <time>2021-04-01T10:54:46.498Z</time>
      </trkpt>
      <trkpt lat="47.83522" lon="6.66871">
        <ele>638.70160773203</ele>
        <time>2021-04-01T10:54:55.980Z</time>
      </trkpt>
      <trkpt lat="47.83505" lon="6.66913">
        <ele>635.72387825623</ele>
        <time>2021-04-01T10:55:05.467Z</time>
      </trkpt>
      <trkpt lat="47.83502" lon="6.66971">
        <ele>632.35502127493</ele>
        <time>2021-04-01T10:55:14.960Z</time>
      </trkpt>
      <trkpt lat="47.83511" lon="6.6705">
        <ele>628.58283599744</ele>
        <time>2021-04-01T10:55:24.462Z</time>
      </trkpt>
      <trkpt lat="47.83504" lon="6.67113">
        <ele>624.61184367869</ele>
        <time>2021-04-01T10:55:33.971Z</time>
      </trkpt>
      <trkpt lat="47.83491" lon="6.67154">
        <ele>620.37191305416</ele>
        <time>2021-04-01T10:55:43.484Z</time>
      </trkpt>
      <trkpt lat="47.83447" lon="6.67154">
        <ele>615.65821510689</ele>
        <time>2021-04-01T10:55:53.005Z</time>
      </trkpt>
      <trkpt lat="47.83434" lon="6.67164">
        <ele>611.01506744705</ele>
        <time>2021-04-01T10:56:02.528Z</time>
      </trkpt>
      <trkpt lat="47.83409" lon="6.67218">
        <ele>606.1492145839</ele>
        <time>2021-04-01T10:56:12.058Z</time>
      </trkpt>
      <trkpt lat="47.83369" lon="6.6715">
        <ele>600.92684929517</ele>
        <time>2021-04-01T10:56:21.598Z</time>
      </trkpt>
      <trkpt lat="47.83353" lon="6.67137">
        <ele>595.55730552604</ele>
        <time>2021-04-01T10:56:31.141Z</time>
      </trkpt>
      <trkpt lat="47.83303" lon="6.67156">
        <ele>589.92115792794</ele>
        <time>2021-04-01T10:56:40.692Z</time>
      </trkpt>
      <trkpt lat="47.83284" lon="6.67149">
        <ele>584.20924759369</ele>
        <time>2021-04-01T10:56:50.246Z</time>
      </trkpt>
      <trkpt lat="47.83243" lon="6.67098">
        <ele>577.85306274524</ele>
        <time>2021-04-01T10:56:59.808Z</time>
      </trkpt>
      <trkpt lat="47.83222" lon="6.67089">
        <ele>571.75890899096</ele>
        <time>2021-04-01T10:57:09.374Z</time>
      </trkpt>
      <trkpt lat="47.83092" lon="6.67117">
        <ele>564.7755448409</ele>
        <time>2021-04-01T10:57:18.961Z</time>
      </trkpt>
      <trkpt lat="47.8307" lon="6.67106">
        <ele>558.56928749755</ele>
        <time>2021-04-01T10:57:28.552Z</time>
      </trkpt>
      <trkpt lat="47.83018" lon="6.67042">
        <ele>552.01718189068</ele>
        <time>2021-04-01T10:57:38.154Z</time>
      </trkpt>
      <trkpt lat="47.8299" lon="6.67026">
        <ele>545.63322346603</ele>
        <time>2021-04-01T10:57:47.760Z</time>
      </trkpt>
      <trkpt lat="47.8299" lon="6.67026">
        <ele>539.4481783975</ele>
        <time>2021-04-01T10:57:57.366Z</time>
      </trkpt>
      <trkpt lat="47.82969" lon="6.67025">
        <ele>533.0630852508</ele>
        <time>2021-04-01T10:58:06.976Z</time>
      </trkpt>
      <trkpt lat="47.82918" lon="6.67">
        <ele>526.43098671055</ele>
        <time>2021-04-01T10:58:16.594Z</time>
      </trkpt>
      <trkpt lat="47.82884" lon="6.67021">
        <ele>519.95466211125</ele>
        <time>2021-04-01T10:58:26.218Z</time>
      </trkpt>
      <trkpt lat="47.8285" lon="6.6706">
        <ele>513.45979203144</ele>
        <time>2021-04-01T10:58:35.849Z</time>
      </trkpt>
      <trkpt lat="47.82817" lon="6.67137">
        <ele>506.59492860246</ele>
        <time>2021-04-01T10:58:45.490Z</time>
      </trkpt>
      <trkpt lat="47.82817" lon="6.67137">
        <ele>500.9181250444</ele>
        <time>2021-04-01T10:58:55.131Z</time>
      </trkpt>
      <trkpt lat="47.82801" lon="6.67176">
        <ele>495.11036575112</ele>
        <time>2021-04-01T10:59:04.777Z</time>
      </trkpt>
      <trkpt lat="47.82773" lon="6.67208">
        <ele>489.58212476716</ele>
        <time>2021-04-01T10:59:14.428Z</time>
      </trkpt>
      <trkpt lat="47.82774" lon="6.67208">
        <ele>484.56931188997</ele>
        <time>2021-04-01T10:59:24.079Z</time>
      </trkpt>
      <trkpt lat="47.82645" lon="6.67287">
        <ele>479.11363322873</ele>
        <time>2021-04-01T10:59:33.753Z</time>
      </trkpt>
      <trkpt lat="47.82621" lon="6.67307">
        <ele>474.59424648895</ele>
        <time>2021-04-01T10:59:43.431Z</time>
      </trkpt>
      <trkpt lat="47.82607" lon="6.6733">
        <ele>470.23189181985</ele>
        <time>2021-04-01T10:59:53.113Z</time>
      </trkpt>
      <trkpt lat="47.82606" lon="6.6735">
        <ele>466.21417058922</ele>
        <time>2021-04-01T11:00:02.797Z</time>
      </trkpt>
      <trkpt lat="47.82631" lon="6.67434">
        <ele>462.174108823</ele>
        <time>2021-04-01T11:00:12.491Z</time>
      </trkpt>
      <trkpt lat="47.82649" lon="6.67545">
        <ele>458.62470839571</ele>
        <time>2021-04-01T11:00:22.197Z</time>
      </trkpt>
      <trkpt lat="47.82657" lon="6.67725">
        <ele>455.1943256172</ele>
        <time>2021-04-01T11:00:31.922Z</time>
      </trkpt>
      <trkpt lat="47.82646" lon="6.67767">
        <ele>452.44682390288</ele>
        <time>2021-04-01T11:00:41.652Z</time>
      </trkpt>
      <trkpt lat="47.82633" lon="6.67785">
        <ele>450.27489509153</ele>
        <time>2021-04-01T11:00:51.385Z</time>
      </trkpt>
      <trkpt lat="47.82587" lon="6.67792">
        <ele>448.57025109299</ele>
        <time>2021-04-01T11:01:01.125Z</time>
      </trkpt>
      <trkpt lat="47.82571" lon="6.67806">
        <ele>447.06032795556</ele>
        <time>2021-04-01T11:01:10.868Z</time>
      </trkpt>
      <trkpt lat="47.82549" lon="6.67863">
        <ele>445.50889565373</ele>
        <time>2021-04-01T11:01:20.618Z</time>
      </trkpt>
      <trkpt lat="47.82547" lon="6.67874">
        <ele>444.50526413172</ele>
        <time>2021-04-01T11:01:30.370Z</time>
      </trkpt>
      <trkpt lat="47.82529" lon="6.6799">
        <ele>443.7183189016</ele>
        <time>2021-04-01T11:01:40.135Z</time>
      </trkpt>
      <trkpt lat="47.82519" lon="6.68034">
        <ele>443.36961911488</ele>
        <time>2021-04-01T11:01:49.905Z</time>
      </trkpt>
      <trkpt lat="47.82511" lon="6.68049">
        <ele>443.13665108522</ele>
        <time>2021-04-01T11:01:59.677Z</time>
      </trkpt>
      <trkpt lat="47.82441" lon="6.68097">
        <ele>443.35353027476</ele>
        <time>2021-04-01T11:02:09.461Z</time>
      </trkpt>
      <trkpt lat="47.82392" lon="6.68081">
        <ele>443.26446349887</ele>
        <time>2021-04-01T11:02:19.253Z</time>
      </trkpt>
      <trkpt lat="47.82319" lon="6.68033">
        <ele>442.96514963035</ele>
        <time>2021-04-01T11:02:29.058Z</time>
      </trkpt>
      <trkpt lat="47.8225" lon="6.68043">
        <ele>442.75068360564</ele>
        <time>2021-04-01T11:02:38.874Z</time>
      </trkpt>
      <trkpt lat="47.82166" lon="6.68013">
        <ele>442.4094224694</ele>
        <time>2021-04-01T11:02:48.704Z</time>
      </trkpt>
      <trkpt lat="47.82123" lon="6.67987">
        <ele>441.76961506905</ele>
        <time>2021-04-01T11:02:58.541Z</time>
      </trkpt>
      <trkpt lat="47.82075" lon="6.67982">
        <ele>441.4133989779</ele>
        <time>2021-04-01T11:03:08.386Z</time>
      </trkpt>
      <trkpt lat="47.82035" lon="6.67998">
        <ele>441.03318204673</ele>
        <time>2021-04-01T11:03:18.237Z</time>
      </trkpt>
      <trkpt lat="47.81992" lon="6.68057">
        <ele>440.74170230748</ele>
        <time>2021-04-01T11:03:28.098Z</time>
      </trkpt>
      <trkpt lat="47.81966" lon="6.68114">
        <ele>440.54279300998</ele>
        <time>2021-04-01T11:03:37.966Z</time>
      </trkpt>
      <trkpt lat="47.81957" lon="6.68161">
        <ele>440.20176027543</ele>
        <time>2021-04-01T11:03:47.840Z</time>
      </trkpt>
      <trkpt lat="47.81957" lon="6.68214">
        <ele>439.97029937471</ele>
        <time>2021-04-01T11:03:57.719Z</time>
      </trkpt>
      <trkpt lat="47.81966" lon="6.6831">
        <ele>439.76709884406</ele>
        <time>2021-04-01T11:04:07.609Z</time>
      </trkpt>
      <trkpt lat="47.8199" lon="6.68417">
        <ele>439.00871547289</ele>
        <time>2021-04-01T11:04:17.511Z</time>
      </trkpt>
      <trkpt lat="47.82003" lon="6.68523">
        <ele>437.39913720225</ele>
        <time>2021-04-01T11:04:27.425Z</time>
      </trkpt>
      <trkpt lat="47.82001" lon="6.68543">
        <ele>435.98820468342</ele>
        <time>2021-04-01T11:04:37.341Z</time>
      </trkpt>
      <trkpt lat="47.82001" lon="6.68543">
        <ele>434.8075979437</ele>
        <time>2021-04-01T11:04:47.257Z</time>
      </trkpt>
      <trkpt lat="47.81989" lon="6.68547">
        <ele>433.25360559941</ele>
        <time>2021-04-01T11:04:57.175Z</time>
      </trkpt>
      <trkpt lat="47.81965" lon="6.68521">
        <ele>431.82884131604</ele>
        <time>2021-04-01T11:05:07.097Z</time>
      </trkpt>
      <trkpt lat="47.8195" lon="6.68517">
        <ele>430.21121265742</ele>
        <time>2021-04-01T11:05:17.022Z</time>
      </trkpt>
      <trkpt lat="47.81915" lon="6.6852">
        <ele>428.33714695547</ele>
        <time>2021-04-01T11:05:26.952Z</time>
      </trkpt>
      <trkpt lat="47.81915" lon="6.6852">
        <ele>426.75599966294</ele>
        <time>2021-04-01T11:05:36.882Z</time>
      </trkpt>
      <trkpt lat="47.81903" lon="6.68521">
        <ele>425.04509722108</ele>
        <time>2021-04-01T11:05:46.814Z</time>
      </trkpt>
      <trkpt lat="47.8186" lon="6.68542">
        <ele>423.02109405867</ele>
        <time>2021-04-01T11:05:56.754Z</time>
      </trkpt>
      <trkpt lat="47.81819" lon="6.68491">
        <ele>421.40598765893</ele>
        <time>2021-04-01T11:06:06.702Z</time>
      </trkpt>
      <trkpt lat="47.81819" lon="6.68491">
        <ele>419.76240918442</ele>
        <time>2021-04-01T11:06:16.650Z</time>
      </trkpt>
      <trkpt lat="47.81788" lon="6.6846">
        <ele>418.21546358461</ele>
        <time>2021-04-01T11:06:26.604Z</time>
      </trkpt>
      <trkpt lat="47.81683" lon="6.68405">
        <ele>416.48696857501</ele>
        <time>2021-04-01T11:06:36.576Z</time>
      </trkpt>
      <trkpt lat="47.81635" lon="6.68358">
        <ele>414.9595189222</ele>
        <time>2021-04-01T11:06:46.557Z</time>
      </trkpt>
      <trkpt lat="47.81635" lon="6.68358">
        <ele>413.37590193991</ele>
        <time>2021-04-01T11:06:56.538Z</time>
      </trkpt>
      <trkpt lat="47.81598" lon="6.68306">
        <ele>411.97926498999</ele>
        <time>2021-04-01T11:07:06.527Z</time>
      </trkpt>
      <trkpt lat="47.81576" lon="6.6829">
        <ele>410.30625710123</ele>
        <time>2021-04-01T11:07:16.520Z</time>
      </trkpt>
      <trkpt lat="47.8152" lon="6.6827">
        <ele>408.81515783261</ele>
        <time>2021-04-01T11:07:26.522Z</time>
      </trkpt>
      <trkpt lat="47.81476" lon="6.68253">
        <ele>407.39740154713</ele>
        <time>2021-04-01T11:07:36.532Z</time>
      </trkpt>
      <trkpt lat="47.81358" lon="6.68166">
        <ele>405.77778520125</ele>
        <time>2021-04-01T11:07:46.563Z</time>
      </trkpt>
      <trkpt lat="47.81321" lon="6.68134">
        <ele>404.2944128956</ele>
        <time>2021-04-01T11:07:56.601Z</time>
      </trkpt>
      <trkpt lat="47.8131" lon="6.68125">
        <ele>403.04601579998</ele>
        <time>2021-04-01T11:08:06.641Z</time>
      </trkpt>
      <trkpt lat="47.8131" lon="6.68125">
        <ele>401.95488272862</ele>
        <time>2021-04-01T11:08:16.681Z</time>
      </trkpt>
      <trkpt lat="47.81281" lon="6.681">
        <ele>400.93565100816</ele>
        <time>2021-04-01T11:08:26.726Z</time>
      </trkpt>
      <trkpt lat="47.81235" lon="6.68084">
        <ele>400.00036671073</ele>
        <time>2021-04-01T11:08:36.779Z</time>
      </trkpt>
      <trkpt lat="47.81233" lon="6.6803">
        <ele>399.36072761829</ele>
        <time>2021-04-01T11:08:46.837Z</time>
      </trkpt>
      <trkpt lat="47.81263" lon="6.67998">
        <ele>399.05881651954</ele>
        <time>2021-04-01T11:08:56.901Z</time>
      </trkpt>
      <trkpt lat="47.81279" lon="6.67984">
        <ele>398.96708786534</ele>
        <time>2021-04-01T11:09:06.968Z</time>
      </trkpt>
      <trkpt lat="47.81291" lon="6.67969">
        <ele>399.18090276762</ele>
        <time>2021-04-01T11:09:17.038Z</time>
      </trkpt>
      <trkpt lat="47.8129" lon="6.6794">
        <ele>399.58773101603</ele>
        <time>2021-04-01T11:09:27.111Z</time>
      </trkpt>
      <trkpt lat="47.81264" lon="6.67873">
        <ele>399.7305288187</ele>
        <time>2021-04-01T11:09:37.192Z</time>
      </trkpt>
      <trkpt lat="47.81239" lon="6.67831">
        <ele>400.38262183303</ele>
        <time>2021-04-01T11:09:47.279Z</time>
      </trkpt>
      <trkpt lat="47.81231" lon="6.67821">
        <ele>401.50086639445</ele>
        <time>2021-04-01T11:09:57.368Z</time>
      </trkpt>
      <trkpt lat="47.81219" lon="6.67795">
        <ele>402.93969568715</ele>
        <time>2021-04-01T11:10:07.460Z</time>
      </trkpt>
      <trkpt lat="47.81181" lon="6.67705">
        <ele>404.75711750225</ele>
        <time>2021-04-01T11:10:17.564Z</time>
      </trkpt>
      <trkpt lat="47.81177" lon="6.67695">
        <ele>407.01458335141</ele>
        <time>2021-04-01T11:10:27.669Z</time>
      </trkpt>
      <trkpt lat="47.81175" lon="6.67688">
        <ele>409.64546562495</ele>
        <time>2021-04-01T11:10:37.775Z</time>
      </trkpt>
      <trkpt lat="47.81209" lon="6.67522">
        <ele>412.87994212363</ele>
        <time>2021-04-01T11:10:47.900Z</time>
      </trkpt>
      <trkpt lat="47.81224" lon="6.67475">
        <ele>416.48695078359</ele>
        <time>2021-04-01T11:10:58.030Z</time>
      </trkpt>
      <trkpt lat="47.81231" lon="6.67454">
        <ele>424.53317413125</ele>
        <time>2021-04-01T11:11:08.163Z</time>
      </trkpt>
      <trkpt lat="47.8129" lon="6.67345">
        <ele>429.67853654674</ele>
        <time>2021-04-01T11:11:18.311Z</time>
      </trkpt>
      <trkpt lat="47.81374" lon="6.67253">
        <ele>435.11163530325</ele>
        <time>2021-04-01T11:11:28.476Z</time>
      </trkpt>
      <trkpt lat="47.81409" lon="6.67195">
        <ele>440.61650889744</ele>
        <time>2021-04-01T11:11:38.649Z</time>
      </trkpt>
      <trkpt lat="47.8143" lon="6.6714">
        <ele>446.18027154531</ele>
        <time>2021-04-01T11:11:48.829Z</time>
      </trkpt>
      <trkpt lat="47.81454" lon="6.6708">
        <ele>452.00679045644</ele>
        <time>2021-04-01T11:11:59.016Z</time>
      </trkpt>
      <trkpt lat="47.81489" lon="6.67024">
        <ele>457.66734056348</ele>
        <time>2021-04-01T11:12:09.212Z</time>
      </trkpt>
      <trkpt lat="47.81516" lon="6.66939">
        <ele>463.64549468402</ele>
        <time>2021-04-01T11:12:19.418Z</time>
      </trkpt>
      <trkpt lat="47.81535" lon="6.66903">
        <ele>469.83421451737</ele>
        <time>2021-04-01T11:12:29.629Z</time>
      </trkpt>
      <trkpt lat="47.81559" lon="6.66852">
        <ele>476.15250353984</ele>
        <time>2021-04-01T11:12:39.846Z</time>
      </trkpt>
      <trkpt lat="47.81595" lon="6.66702">
        <ele>482.98317718551</ele>
        <time>2021-04-01T11:12:50.081Z</time>
      </trkpt>
      <trkpt lat="47.81591" lon="6.66673">
        <ele>488.75631122561</ele>
        <time>2021-04-01T11:13:00.319Z</time>
      </trkpt>
      <trkpt lat="47.81565" lon="6.66603">
        <ele>495.12388395054</ele>
        <time>2021-04-01T11:13:10.565Z</time>
      </trkpt>
      <trkpt lat="47.8157" lon="6.66559">
        <ele>500.31545457059</ele>
        <time>2021-04-01T11:13:20.816Z</time>
      </trkpt>
      <trkpt lat="47.81586" lon="6.66509">
        <ele>505.2331831721</ele>
        <time>2021-04-01T11:13:31.073Z</time>
      </trkpt>
      <trkpt lat="47.81623" lon="6.66468">
        <ele>509.8716260828</ele>
        <time>2021-04-01T11:13:41.338Z</time>
      </trkpt>
      <trkpt lat="47.81627" lon="6.6645">
        <ele>514.20630900458</ele>
        <time>2021-04-01T11:13:51.605Z</time>
      </trkpt>
      <trkpt lat="47.81616" lon="6.66389">
        <ele>518.43246325943</ele>
        <time>2021-04-01T11:14:01.878Z</time>
      </trkpt>
      <trkpt lat="47.81606" lon="6.66357">
        <ele>522.05761532464</ele>
        <time>2021-04-01T11:14:12.155Z</time>
      </trkpt>
      <trkpt lat="47.81606" lon="6.66357">
        <ele>525.3193067323</ele>
        <time>2021-04-01T11:14:22.432Z</time>
      </trkpt>
      <trkpt lat="47.81588" lon="6.66298">
        <ele>528.2108840198</ele>
        <time>2021-04-01T11:14:32.716Z</time>
      </trkpt>
      <trkpt lat="47.81579" lon="6.66238">
        <ele>530.73549790456</ele>
        <time>2021-04-01T11:14:43.007Z</time>
      </trkpt>
      <trkpt lat="47.81576" lon="6.6607">
        <ele>533.11839187457</ele>
        <time>2021-04-01T11:14:53.316Z</time>
      </trkpt>
      <trkpt lat="47.81589" lon="6.66025">
        <ele>535.31992537809</ele>
        <time>2021-04-01T11:15:03.630Z</time>
      </trkpt>
      <trkpt lat="47.8159" lon="6.65996">
        <ele>537.36423759216</ele>
        <time>2021-04-01T11:15:13.947Z</time>
      </trkpt>
      <trkpt lat="47.81578" lon="6.65924">
        <ele>539.09003380841</ele>
        <time>2021-04-01T11:15:24.272Z</time>
      </trkpt>
      <trkpt lat="47.8155" lon="6.6587">
        <ele>541.10023467011</ele>
        <time>2021-04-01T11:15:34.605Z</time>
      </trkpt>
      <trkpt lat="47.8154" lon="6.65819">
        <ele>543.26993658689</ele>
        <time>2021-04-01T11:15:44.943Z</time>
      </trkpt>
      <trkpt lat="47.81536" lon="6.65803">
        <ele>545.17877905441</ele>
        <time>2021-04-01T11:15:55.283Z</time>
      </trkpt>
      <trkpt lat="47.81527" lon="6.6574">
        <ele>547.4037550877</ele>
        <time>2021-04-01T11:16:05.630Z</time>
      </trkpt>
      <trkpt lat="47.81525" lon="6.65591">
        <ele>550.07177717745</ele>
        <time>2021-04-01T11:16:15.993Z</time>
      </trkpt>
      <trkpt lat="47.8153" lon="6.65542">
        <ele>551.48176691229</ele>
        <time>2021-04-01T11:16:26.362Z</time>
      </trkpt>
      <trkpt lat="47.81549" lon="6.65493">
        <ele>552.98070919563</ele>
        <time>2021-04-01T11:16:36.737Z</time>
      </trkpt>
      <trkpt lat="47.8155" lon="6.65438">
        <ele>554.17263813098</ele>
        <time>2021-04-01T11:16:47.118Z</time>
      </trkpt>
      <trkpt lat="47.81549" lon="6.65363">
        <ele>555.05361423507</ele>
        <time>2021-04-01T11:16:57.507Z</time>
      </trkpt>
      <trkpt lat="47.81575" lon="6.65274">
        <ele>555.81045474382</ele>
        <time>2021-04-01T11:17:07.906Z</time>
      </trkpt>
      <trkpt lat="47.81576" lon="6.65235">
        <ele>556.49057689993</ele>
        <time>2021-04-01T11:17:18.309Z</time>
      </trkpt>
      <trkpt lat="47.81551" lon="6.65151">
        <ele>556.88854538467</ele>
        <time>2021-04-01T11:17:28.722Z</time>
      </trkpt>
      <trkpt lat="47.81532" lon="6.65111">
        <ele>557.34976105142</ele>
        <time>2021-04-01T11:17:39.141Z</time>
      </trkpt>
      <trkpt lat="47.81532" lon="6.65111">
        <ele>557.39518995182</ele>
        <time>2021-04-01T11:17:49.560Z</time>
      </trkpt>
      <trkpt lat="47.81513" lon="6.65071">
        <ele>557.36844466453</ele>
        <time>2021-04-01T11:17:59.984Z</time>
      </trkpt>
      <trkpt lat="47.81505" lon="6.65038">
        <ele>557.04453011005</ele>
        <time>2021-04-01T11:18:10.412Z</time>
      </trkpt>
      <trkpt lat="47.81496" lon="6.64913">
        <ele>556.67281522072</ele>
        <time>2021-04-01T11:18:20.853Z</time>
      </trkpt>
      <trkpt lat="47.81497" lon="6.64735">
        <ele>555.56580665092</ele>
        <time>2021-04-01T11:18:31.313Z</time>
      </trkpt>
      <trkpt lat="47.81484" lon="6.6467">
        <ele>554.50356856341</ele>
        <time>2021-04-01T11:18:41.781Z</time>
      </trkpt>
      <trkpt lat="47.81484" lon="6.6467">
        <ele>553.22280757718</ele>
        <time>2021-04-01T11:18:52.249Z</time>
      </trkpt>
      <trkpt lat="47.8143" lon="6.64389">
        <ele>551.90413577455</ele>
        <time>2021-04-01T11:19:02.748Z</time>
      </trkpt>
      <trkpt lat="47.81435" lon="6.64326">
        <ele>549.92246411803</ele>
        <time>2021-04-01T11:19:13.254Z</time>
      </trkpt>
      <trkpt lat="47.81423" lon="6.64248">
        <ele>547.94465507698</ele>
        <time>2021-04-01T11:19:23.769Z</time>
      </trkpt>
      <trkpt lat="47.81422" lon="6.6419">
        <ele>545.75636878067</ele>
        <time>2021-04-01T11:19:34.290Z</time>
      </trkpt>
      <trkpt lat="47.81427" lon="6.64144">
        <ele>543.199387236</ele>
        <time>2021-04-01T11:19:44.816Z</time>
      </trkpt>
      <trkpt lat="47.81444" lon="6.64091">
        <ele>540.69835618305</ele>
        <time>2021-04-01T11:19:55.348Z</time>
      </trkpt>
      <trkpt lat="47.81446" lon="6.64086">
        <ele>538.37271060314</ele>
        <time>2021-04-01T11:20:05.881Z</time>
      </trkpt>
      <trkpt lat="47.81446" lon="6.64086">
        <ele>536.03133289832</ele>
        <time>2021-04-01T11:20:16.414Z</time>
      </trkpt>
      <trkpt lat="47.81454" lon="6.64056">
        <ele>533.71742915744</ele>
        <time>2021-04-01T11:20:26.950Z</time>
      </trkpt>
      <trkpt lat="47.81445" lon="6.63931">
        <ele>531.02608736115</ele>
        <time>2021-04-01T11:20:37.500Z</time>
      </trkpt>
      <trkpt lat="47.81467" lon="6.63673">
        <ele>528.46898040028</ele>
        <time>2021-04-01T11:20:48.078Z</time>
      </trkpt>
      <trkpt lat="47.81388" lon="6.63502">
        <ele>526.49543009857</ele>
        <time>2021-04-01T11:20:58.678Z</time>
      </trkpt>
      <trkpt lat="47.81377" lon="6.63455">
        <ele>524.05572903712</ele>
        <time>2021-04-01T11:21:09.284Z</time>
      </trkpt>
      <trkpt lat="47.81381" lon="6.63237">
        <ele>521.42963047992</ele>
        <time>2021-04-01T11:21:19.913Z</time>
      </trkpt>
      <trkpt lat="47.81352" lon="6.63152">
        <ele>519.45568429762</ele>
        <time>2021-04-01T11:21:30.553Z</time>
      </trkpt>
      <trkpt lat="47.81334" lon="6.62868">
        <ele>518.14818994518</ele>
        <time>2021-04-01T11:21:41.223Z</time>
      </trkpt>
      <trkpt lat="47.81283" lon="6.62795">
        <ele>516.48916072583</ele>
        <time>2021-04-01T11:21:51.905Z</time>
      </trkpt>
      <trkpt lat="47.81255" lon="6.62714">
        <ele>515.06884798725</ele>
        <time>2021-04-01T11:22:02.596Z</time>
      </trkpt>
      <trkpt lat="47.81277" lon="6.62624">
        <ele>513.85452038996</ele>
        <time>2021-04-01T11:22:13.298Z</time>
      </trkpt>
      <trkpt lat="47.81277" lon="6.62624">
        <ele>513.09227118034</ele>
        <time>2021-04-01T11:22:24.000Z</time>
      </trkpt>
      <trkpt lat="47.81274" lon="6.62501">
        <ele>512.58529181176</ele>
        <time>2021-04-01T11:22:34.715Z</time>
      </trkpt>
      <trkpt lat="47.81279" lon="6.62477">
        <ele>512.29445638961</ele>
        <time>2021-04-01T11:22:45.433Z</time>
      </trkpt>
      <trkpt lat="47.81324" lon="6.62408">
        <ele>511.977663065</ele>
        <time>2021-04-01T11:22:56.161Z</time>
      </trkpt>
      <trkpt lat="47.81343" lon="6.62335">
        <ele>512.12083777463</ele>
        <time>2021-04-01T11:23:06.897Z</time>
      </trkpt>
      <trkpt lat="47.81359" lon="6.62299">
        <ele>512.42590017776</ele>
        <time>2021-04-01T11:23:17.638Z</time>
      </trkpt>
      <trkpt lat="47.81429" lon="6.62231">
        <ele>513.33015744842</ele>
        <time>2021-04-01T11:23:28.393Z</time>
      </trkpt>
      <trkpt lat="47.81459" lon="6.622">
        <ele>513.89662836434</ele>
        <time>2021-04-01T11:23:39.153Z</time>
      </trkpt>
      <trkpt lat="47.81494" lon="6.62124">
        <ele>514.12328583605</ele>
        <time>2021-04-01T11:23:49.923Z</time>
      </trkpt>
      <trkpt lat="47.81498" lon="6.62113">
        <ele>514.53291970963</ele>
        <time>2021-04-01T11:24:00.695Z</time>
      </trkpt>
      <trkpt lat="47.81532" lon="6.62017">
        <ele>514.87215470071</ele>
        <time>2021-04-01T11:24:11.478Z</time>
      </trkpt>
      <trkpt lat="47.81609" lon="6.61919">
        <ele>515.78606471798</ele>
        <time>2021-04-01T11:24:22.278Z</time>
      </trkpt>
      <trkpt lat="47.81646" lon="6.61847">
        <ele>516.14496408324</ele>
        <time>2021-04-01T11:24:33.087Z</time>
      </trkpt>
      <trkpt lat="47.81646" lon="6.61847">
        <ele>516.39495653401</ele>
        <time>2021-04-01T11:24:43.896Z</time>
      </trkpt>
      <trkpt lat="47.81659" lon="6.61803">
        <ele>516.73217746524</ele>
        <time>2021-04-01T11:24:54.710Z</time>
      </trkpt>
      <trkpt lat="47.81657" lon="6.61776">
        <ele>516.77408629971</ele>
        <time>2021-04-01T11:25:05.527Z</time>
      </trkpt>
      <trkpt lat="47.81613" lon="6.61682">
        <ele>516.1476767944</ele>
        <time>2021-04-01T11:25:16.357Z</time>
      </trkpt>
      <trkpt lat="47.81589" lon="6.61607">
        <ele>515.51667358</ele>
        <time>2021-04-01T11:25:27.196Z</time>
      </trkpt>
      <trkpt lat="47.81558" lon="6.61468">
        <ele>515.01982490877</ele>
        <time>2021-04-01T11:25:38.050Z</time>
      </trkpt>
      <trkpt lat="47.81556" lon="6.61428">
        <ele>514.29055898314</ele>
        <time>2021-04-01T11:25:48.909Z</time>
      </trkpt>
      <trkpt lat="47.81573" lon="6.61291">
        <ele>513.39018127964</ele>
        <time>2021-04-01T11:25:59.783Z</time>
      </trkpt>
      <trkpt lat="47.81583" lon="6.61155">
        <ele>511.92376054252</ele>
        <time>2021-04-01T11:26:10.672Z</time>
      </trkpt>
      <trkpt lat="47.81583" lon="6.61155">
        <ele>510.58434638179</ele>
        <time>2021-04-01T11:26:21.561Z</time>
      </trkpt>
      <trkpt lat="47.81585" lon="6.6113">
        <ele>509.04318349292</ele>
        <time>2021-04-01T11:26:32.452Z</time>
      </trkpt>
      <trkpt lat="47.81585" lon="6.6113">
        <ele>507.36103756737</ele>
        <time>2021-04-01T11:26:43.343Z</time>
      </trkpt>
      <trkpt lat="47.8159" lon="6.61056">
        <ele>505.24365294217</ele>
        <time>2021-04-01T11:26:54.242Z</time>
      </trkpt>
      <trkpt lat="47.81594" lon="6.61023">
        <ele>503.23122414588</ele>
        <time>2021-04-01T11:27:05.145Z</time>
      </trkpt>
      <trkpt lat="47.81629" lon="6.60953">
        <ele>500.69722281095</ele>
        <time>2021-04-01T11:27:16.057Z</time>
      </trkpt>
      <trkpt lat="47.81632" lon="6.60936">
        <ele>498.46845317574</ele>
        <time>2021-04-01T11:27:26.971Z</time>
      </trkpt>
      <trkpt lat="47.81626" lon="6.60906">
        <ele>496.25124573629</ele>
        <time>2021-04-01T11:27:37.889Z</time>
      </trkpt>
      <trkpt lat="47.81616" lon="6.60891">
        <ele>494.06444736505</ele>
        <time>2021-04-01T11:27:48.809Z</time>
      </trkpt>
      <trkpt lat="47.81607" lon="6.60886">
        <ele>491.87369464003</ele>
        <time>2021-04-01T11:27:59.730Z</time>
      </trkpt>
      <trkpt lat="47.81589" lon="6.60894">
        <ele>489.84133446124</ele>
        <time>2021-04-01T11:28:10.654Z</time>
      </trkpt>
      <trkpt lat="47.81578" lon="6.60882">
        <ele>487.75652857535</ele>
        <time>2021-04-01T11:28:21.581Z</time>
      </trkpt>
      <trkpt lat="47.81583" lon="6.60832">
        <ele>485.36026455154</ele>
        <time>2021-04-01T11:28:32.513Z</time>
      </trkpt>
      <trkpt lat="47.81585" lon="6.60823">
        <ele>483.35524549031</ele>
        <time>2021-04-01T11:28:43.446Z</time>
      </trkpt>
      <trkpt lat="47.81585" lon="6.60823">
        <ele>481.60048324414</ele>
        <time>2021-04-01T11:28:54.379Z</time>
      </trkpt>
      <trkpt lat="47.81592" lon="6.608">
        <ele>479.77894916696</ele>
        <time>2021-04-01T11:29:05.315Z</time>
      </trkpt>
      <trkpt lat="47.81635" lon="6.6072">
        <ele>477.50490356814</ele>
        <time>2021-04-01T11:29:16.262Z</time>
      </trkpt>
      <trkpt lat="47.81639" lon="6.6069">
        <ele>476.33983755346</ele>
        <time>2021-04-01T11:29:27.212Z</time>
      </trkpt>
      <trkpt lat="47.81632" lon="6.60651">
        <ele>475.58402356327</ele>
        <time>2021-04-01T11:29:38.167Z</time>
      </trkpt>
      <trkpt lat="47.81609" lon="6.60596">
        <ele>475.16327595753</ele>
        <time>2021-04-01T11:29:49.128Z</time>
      </trkpt>
      <trkpt lat="47.81605" lon="6.60556">
        <ele>475.19178085926</ele>
        <time>2021-04-01T11:30:00.094Z</time>
      </trkpt>
      <trkpt lat="47.81615" lon="6.6051">
        <ele>475.59221889934</ele>
        <time>2021-04-01T11:30:11.065Z</time>
      </trkpt>
      <trkpt lat="47.81635" lon="6.60468">
        <ele>478.38732971414</ele>
        <time>2021-04-01T11:30:22.042Z</time>
      </trkpt>
      <trkpt lat="47.81668" lon="6.60357">
        <ele>479.42025401004</ele>
        <time>2021-04-01T11:30:33.032Z</time>
      </trkpt>
      <trkpt lat="47.81748" lon="6.60284">
        <ele>481.07290516145</ele>
        <time>2021-04-01T11:30:44.037Z</time>
      </trkpt>
      <trkpt lat="47.81748" lon="6.60284">
        <ele>482.6912637409</ele>
        <time>2021-04-01T11:30:55.042Z</time>
      </trkpt>
      <trkpt lat="47.81809" lon="6.60306">
        <ele>485.03152943997</ele>
        <time>2021-04-01T11:31:06.057Z</time>
      </trkpt>
      <trkpt lat="47.81821" lon="6.60294">
        <ele>487.4002062662</ele>
        <time>2021-04-01T11:31:17.074Z</time>
      </trkpt>
      <trkpt lat="47.81899" lon="6.60123">
        <ele>490.98010885021</ele>
        <time>2021-04-01T11:31:28.113Z</time>
      </trkpt>
      <trkpt lat="47.81903" lon="6.60066">
        <ele>493.59449668528</ele>
        <time>2021-04-01T11:31:39.159Z</time>
      </trkpt>
      <trkpt lat="47.81926" lon="6.59997">
        <ele>496.07398786077</ele>
        <time>2021-04-01T11:31:50.213Z</time>
      </trkpt>
      <trkpt lat="47.81937" lon="6.59902">
        <ele>498.52792172891</ele>
        <time>2021-04-01T11:32:01.277Z</time>
      </trkpt>
      <trkpt lat="47.8196" lon="6.59801">
        <ele>500.94156031704</ele>
        <time>2021-04-01T11:32:12.353Z</time>
      </trkpt>
      <trkpt lat="47.8197" lon="6.59726">
        <ele>503.58326262661</ele>
        <time>2021-04-01T11:32:23.437Z</time>
      </trkpt>
      <trkpt lat="47.81995" lon="6.59635">
        <ele>510.89921502626</ele>
        <time>2021-04-01T11:32:34.532Z</time>
      </trkpt>
      <trkpt lat="47.81998" lon="6.59564">
        <ele>513.20632935599</ele>
        <time>2021-04-01T11:32:45.634Z</time>
      </trkpt>
      <trkpt lat="47.82037" lon="6.59491">
        <ele>514.69622727773</ele>
        <time>2021-04-01T11:32:56.746Z</time>
      </trkpt>
      <trkpt lat="47.82083" lon="6.59439">
        <ele>516.38666930636</ele>
        <time>2021-04-01T11:33:07.867Z</time>
      </trkpt>
      <trkpt lat="47.82108" lon="6.59344">
        <ele>518.30366808671</ele>
        <time>2021-04-01T11:33:19.000Z</time>
      </trkpt>
      <trkpt lat="47.82124" lon="6.59215">
        <ele>519.82061322368</ele>
        <time>2021-04-01T11:33:30.147Z</time>
      </trkpt>
      <trkpt lat="47.82124" lon="6.59215">
        <ele>520.70810595715</ele>
        <time>2021-04-01T11:33:41.294Z</time>
      </trkpt>
      <trkpt lat="47.82125" lon="6.59197">
        <ele>521.33263920058</ele>
        <time>2021-04-01T11:33:52.443Z</time>
      </trkpt>
      <trkpt lat="47.82168" lon="6.59065">
        <ele>521.39724333277</ele>
        <time>2021-04-01T11:34:03.607Z</time>
      </trkpt>
      <trkpt lat="47.82181" lon="6.59039">
        <ele>521.67140196698</ele>
        <time>2021-04-01T11:34:14.775Z</time>
      </trkpt>
      <trkpt lat="47.82181" lon="6.59039">
        <ele>521.75597021853</ele>
        <time>2021-04-01T11:34:25.943Z</time>
      </trkpt>
      <trkpt lat="47.82212" lon="6.58978">
        <ele>521.11174470606</ele>
        <time>2021-04-01T11:34:37.119Z</time>
      </trkpt>
      <trkpt lat="47.82251" lon="6.58876">
        <ele>520.7060327721</ele>
        <time>2021-04-01T11:34:48.308Z</time>
      </trkpt>
      <trkpt lat="47.82287" lon="6.58859">
        <ele>520.32114956708</ele>
        <time>2021-04-01T11:34:59.503Z</time>
      </trkpt>
      <trkpt lat="47.82315" lon="6.58835">
        <ele>519.69413590198</ele>
        <time>2021-04-01T11:35:10.703Z</time>
      </trkpt>
      <trkpt lat="47.82351" lon="6.58728">
        <ele>516.53659776183</ele>
        <time>2021-04-01T11:35:21.916Z</time>
      </trkpt>
      <trkpt lat="47.82364" lon="6.58638">
        <ele>514.95203909469</ele>
        <time>2021-04-01T11:35:33.139Z</time>
      </trkpt>
      <trkpt lat="47.8238" lon="6.58608">
        <ele>513.33557393039</ele>
        <time>2021-04-01T11:35:44.366Z</time>
      </trkpt>
      <trkpt lat="47.82408" lon="6.58578">
        <ele>511.66235348372</ele>
        <time>2021-04-01T11:35:55.599Z</time>
      </trkpt>
      <trkpt lat="47.82489" lon="6.58505">
        <ele>510.27162860273</ele>
        <time>2021-04-01T11:36:06.847Z</time>
      </trkpt>
      <trkpt lat="47.82531" lon="6.58429">
        <ele>508.28731096101</ele>
        <time>2021-04-01T11:36:18.105Z</time>
      </trkpt>
      <trkpt lat="47.8258" lon="6.58386">
        <ele>506.19164906962</ele>
        <time>2021-04-01T11:36:29.373Z</time>
      </trkpt>
      <trkpt lat="47.82611" lon="6.58346">
        <ele>503.81683092264</ele>
        <time>2021-04-01T11:36:40.647Z</time>
      </trkpt>
      <trkpt lat="47.82677" lon="6.58227">
        <ele>500.95126952384</ele>
        <time>2021-04-01T11:36:51.938Z</time>
      </trkpt>
      <trkpt lat="47.82702" lon="6.58108">
        <ele>498.81271755034</ele>
        <time>2021-04-01T11:37:03.242Z</time>
      </trkpt>
      <trkpt lat="47.82707" lon="6.58082">
        <ele>496.5269845453</ele>
        <time>2021-04-01T11:37:14.549Z</time>
      </trkpt>
      <trkpt lat="47.82707" lon="6.58082">
        <ele>494.34388761285</ele>
        <time>2021-04-01T11:37:25.856Z</time>
      </trkpt>
      <trkpt lat="47.82734" lon="6.58038">
        <ele>492.01847594836</ele>
        <time>2021-04-01T11:37:37.169Z</time>
      </trkpt>
      <trkpt lat="47.82776" lon="6.58042">
        <ele>489.46624632986</ele>
        <time>2021-04-01T11:37:48.489Z</time>
      </trkpt>
      <trkpt lat="47.8283" lon="6.5802">
        <ele>487.15004813614</ele>
        <time>2021-04-01T11:37:59.818Z</time>
      </trkpt>
      <trkpt lat="47.82839" lon="6.5803">
        <ele>485.1744674798</ele>
        <time>2021-04-01T11:38:11.149Z</time>
      </trkpt>
      <trkpt lat="47.8291" lon="6.58032">
        <ele>482.98743158266</ele>
        <time>2021-04-01T11:38:22.491Z</time>
      </trkpt>
      <trkpt lat="47.8293" lon="6.58044">
        <ele>481.10577062808</ele>
        <time>2021-04-01T11:38:33.837Z</time>
      </trkpt>
      <trkpt lat="47.82945" lon="6.5807">
        <ele>479.38248806392</ele>
        <time>2021-04-01T11:38:45.187Z</time>
      </trkpt>
      <trkpt lat="47.82957" lon="6.58139">
        <ele>478.21568366638</ele>
        <time>2021-04-01T11:38:56.544Z</time>
      </trkpt>
      <trkpt lat="47.82968" lon="6.58151">
        <ele>476.45634315359</ele>
        <time>2021-04-01T11:39:07.903Z</time>
      </trkpt>
      <trkpt lat="47.82982" lon="6.58136">
        <ele>474.32429583032</ele>
        <time>2021-04-01T11:39:19.265Z</time>
      </trkpt>
      <trkpt lat="47.82996" lon="6.5808">
        <ele>471.47491205767</ele>
        <time>2021-04-01T11:39:30.634Z</time>
      </trkpt>
      <trkpt lat="47.83004" lon="6.58068">
        <ele>469.55993099922</ele>
        <time>2021-04-01T11:39:42.004Z</time>
      </trkpt>
      <trkpt lat="47.83028" lon="6.5807">
        <ele>467.91757621573</ele>
        <time>2021-04-01T11:39:53.378Z</time>
      </trkpt>
      <trkpt lat="47.83091" lon="6.58115">
        <ele>467.36355366374</ele>
        <time>2021-04-01T11:40:04.763Z</time>
      </trkpt>
      <trkpt lat="47.83091" lon="6.58099">
        <ele>465.51420335724</ele>
        <time>2021-04-01T11:40:16.150Z</time>
      </trkpt>
      <trkpt lat="47.83064" lon="6.58056">
        <ele>463.15869367666</ele>
        <time>2021-04-01T11:40:27.543Z</time>
      </trkpt>
      <trkpt lat="47.83063" lon="6.58031">
        <ele>461.40908873257</ele>
        <time>2021-04-01T11:40:38.939Z</time>
      </trkpt>
      <trkpt lat="47.8307" lon="6.58024">
        <ele>459.97005541464</ele>
        <time>2021-04-01T11:40:50.336Z</time>
      </trkpt>
      <trkpt lat="47.83109" lon="6.58023">
        <ele>458.61618171452</ele>
        <time>2021-04-01T11:41:01.740Z</time>
      </trkpt>
      <trkpt lat="47.83122" lon="6.58031">
        <ele>457.28219908966</ele>
        <time>2021-04-01T11:41:13.146Z</time>
      </trkpt>
      <trkpt lat="47.8315" lon="6.58076">
        <ele>456.54644683995</ele>
        <time>2021-04-01T11:41:24.559Z</time>
      </trkpt>
      <trkpt lat="47.83177" lon="6.58055">
        <ele>455.06698171229</ele>
        <time>2021-04-01T11:41:35.976Z</time>
      </trkpt>
      <trkpt lat="47.83181" lon="6.58033">
        <ele>453.41718058957</ele>
        <time>2021-04-01T11:41:47.396Z</time>
      </trkpt>
      <trkpt lat="47.83172" lon="6.57983">
        <ele>451.40434288997</ele>
        <time>2021-04-01T11:41:58.822Z</time>
      </trkpt>
      <trkpt lat="47.8317" lon="6.57941">
        <ele>449.64341625376</ele>
        <time>2021-04-01T11:42:10.252Z</time>
      </trkpt>
      <trkpt lat="47.83177" lon="6.57913">
        <ele>448.25766165345</ele>
        <time>2021-04-01T11:42:21.685Z</time>
      </trkpt>
      <trkpt lat="47.83196" lon="6.57886">
        <ele>447.15250276213</ele>
        <time>2021-04-01T11:42:33.123Z</time>
      </trkpt>
      <trkpt lat="47.83203" lon="6.57832">
        <ele>445.62930658326</ele>
        <time>2021-04-01T11:42:44.566Z</time>
      </trkpt>
      <trkpt lat="47.83203" lon="6.57832">
        <ele>444.12336244051</ele>
        <time>2021-04-01T11:42:56.009Z</time>
      </trkpt>
      <trkpt lat="47.83198" lon="6.57791">
        <ele>442.26379316476</ele>
        <time>2021-04-01T11:43:07.457Z</time>
      </trkpt>
      <trkpt lat="47.83173" lon="6.57703">
        <ele>439.89935472363</ele>
        <time>2021-04-01T11:43:18.915Z</time>
      </trkpt>
      <trkpt lat="47.8318" lon="6.57673">
        <ele>438.30219435379</ele>
        <time>2021-04-01T11:43:30.377Z</time>
      </trkpt>
      <trkpt lat="47.83189" lon="6.57665">
        <ele>436.86577087887</ele>
        <time>2021-04-01T11:43:41.840Z</time>
      </trkpt>
      <trkpt lat="47.83202" lon="6.57666">
        <ele>435.52115379072</ele>
        <time>2021-04-01T11:43:53.305Z</time>
      </trkpt>
      <trkpt lat="47.83217" lon="6.57684">
        <ele>434.26202320189</ele>
        <time>2021-04-01T11:44:04.774Z</time>
      </trkpt>
      <trkpt lat="47.83228" lon="6.57672">
        <ele>432.66708709891</ele>
        <time>2021-04-01T11:44:16.245Z</time>
      </trkpt>
      <trkpt lat="47.83228" lon="6.57647">
        <ele>430.70207601679</ele>
        <time>2021-04-01T11:44:27.719Z</time>
      </trkpt>
      <trkpt lat="47.83203" lon="6.57605">
        <ele>428.23654431777</ele>
        <time>2021-04-01T11:44:39.199Z</time>
      </trkpt>
      <trkpt lat="47.83203" lon="6.57599">
        <ele>428.09322810313</ele>
        <time>2021-04-01T11:44:50.679Z</time>
      </trkpt>
      <trkpt lat="47.83203" lon="6.57599">
        <ele>426.52288955545</ele>
        <time>2021-04-01T11:45:02.159Z</time>
      </trkpt>
      <trkpt lat="47.83205" lon="6.57569">
        <ele>426.13812361205</ele>
        <time>2021-04-01T11:45:13.643Z</time>
      </trkpt>
      <trkpt lat="47.83223" lon="6.57563">
        <ele>424.52975754501</ele>
        <time>2021-04-01T11:45:25.130Z</time>
      </trkpt>
      <trkpt lat="47.83255" lon="6.57571">
        <ele>423.22591485429</ele>
        <time>2021-04-01T11:45:36.622Z</time>
      </trkpt>
      <trkpt lat="47.83265" lon="6.57546">
        <ele>421.13736493861</ele>
        <time>2021-04-01T11:45:48.117Z</time>
      </trkpt>
      <trkpt lat="47.83262" lon="6.57476">
        <ele>418.55761762625</ele>
        <time>2021-04-01T11:45:59.619Z</time>
      </trkpt>
      <trkpt lat="47.83218" lon="6.57378">
        <ele>415.7616425683</ele>
        <time>2021-04-01T11:46:11.134Z</time>
      </trkpt>
      <trkpt lat="47.83207" lon="6.57335">
        <ele>410.04683214321</ele>
        <time>2021-04-01T11:46:22.654Z</time>
      </trkpt>
      <trkpt lat="47.83212" lon="6.57291">
        <ele>408.12811468552</ele>
        <time>2021-04-01T11:46:34.179Z</time>
      </trkpt>
      <trkpt lat="47.83247" lon="6.57205">
        <ele>406.05977093442</ele>
        <time>2021-04-01T11:46:45.715Z</time>
      </trkpt>
      <trkpt lat="47.83247" lon="6.57169">
        <ele>403.90535465195</ele>
        <time>2021-04-01T11:46:57.255Z</time>
      </trkpt>
      <trkpt lat="47.83233" lon="6.57129">
        <ele>401.72524403451</ele>
        <time>2021-04-01T11:47:08.799Z</time>
      </trkpt>
      <trkpt lat="47.83233" lon="6.57113">
        <ele>399.6847851549</ele>
        <time>2021-04-01T11:47:20.345Z</time>
      </trkpt>
      <trkpt lat="47.83235" lon="6.57102">
        <ele>397.58951657867</ele>
        <time>2021-04-01T11:47:31.892Z</time>
      </trkpt>
      <trkpt lat="47.83263" lon="6.57065">
        <ele>395.45610762203</ele>
        <time>2021-04-01T11:47:43.445Z</time>
      </trkpt>
      <trkpt lat="47.83277" lon="6.56906">
        <ele>392.89008809999</ele>
        <time>2021-04-01T11:47:55.016Z</time>
      </trkpt>
      <trkpt lat="47.8329" lon="6.56876">
        <ele>390.43939914264</ele>
        <time>2021-04-01T11:48:06.591Z</time>
      </trkpt>
      <trkpt lat="47.83352" lon="6.56871">
        <ele>388.37652415626</ele>
        <time>2021-04-01T11:48:18.176Z</time>
      </trkpt>
      <trkpt lat="47.8339" lon="6.56825">
        <ele>385.94576593726</ele>
        <time>2021-04-01T11:48:29.768Z</time>
      </trkpt>
      <trkpt lat="47.8341" lon="6.56823">
        <ele>383.80150595386</ele>
        <time>2021-04-01T11:48:41.364Z</time>
      </trkpt>
      <trkpt lat="47.83459" lon="6.56846">
        <ele>381.9939892916</ele>
        <time>2021-04-01T11:48:52.968Z</time>
      </trkpt>
      <trkpt lat="47.83485" lon="6.56841">
        <ele>379.61309470932</ele>
        <time>2021-04-01T11:49:04.576Z</time>
      </trkpt>
      <trkpt lat="47.83493" lon="6.56809">
        <ele>377.33951213203</ele>
        <time>2021-04-01T11:49:16.188Z</time>
      </trkpt>
      <trkpt lat="47.83487" lon="6.56776">
        <ele>375.22496121358</ele>
        <time>2021-04-01T11:49:27.803Z</time>
      </trkpt>
      <trkpt lat="47.83445" lon="6.56711">
        <ele>372.96710754093</ele>
        <time>2021-04-01T11:49:39.428Z</time>
      </trkpt>
      <trkpt lat="47.83438" lon="6.56668">
        <ele>371.38400301603</ele>
        <time>2021-04-01T11:49:51.058Z</time>
      </trkpt>
      <trkpt lat="47.83471" lon="6.56598">
        <ele>369.9262881711</ele>
        <time>2021-04-01T11:50:02.697Z</time>
      </trkpt>
      <trkpt lat="47.83544" lon="6.56519">
        <ele>368.75925748477</ele>
        <time>2021-04-01T11:50:14.351Z</time>
      </trkpt>
      <trkpt lat="47.83586" lon="6.56466">
        <ele>366.09122490927</ele>
        <time>2021-04-01T11:50:26.013Z</time>
      </trkpt>
      <trkpt lat="47.83593" lon="6.56431">
        <ele>365.48592395593</ele>
        <time>2021-04-01T11:50:37.679Z</time>
      </trkpt>
      <trkpt lat="47.83599" lon="6.56312">
        <ele>364.97808604089</ele>
        <time>2021-04-01T11:50:49.358Z</time>
      </trkpt>
      <trkpt lat="47.83625" lon="6.56275">
        <ele>364.79327606384</ele>
        <time>2021-04-01T11:51:01.043Z</time>
      </trkpt>
      <trkpt lat="47.83641" lon="6.56274">
        <ele>364.69878545295</ele>
        <time>2021-04-01T11:51:12.731Z</time>
      </trkpt>
      <trkpt lat="47.83667" lon="6.56288">
        <ele>364.79235421903</ele>
        <time>2021-04-01T11:51:24.423Z</time>
      </trkpt>
      <trkpt lat="47.83707" lon="6.56345">
        <ele>365.26021768264</ele>
        <time>2021-04-01T11:51:36.124Z</time>
      </trkpt>
      <trkpt lat="47.83748" lon="6.56387">
        <ele>365.43724378413</ele>
        <time>2021-04-01T11:51:47.833Z</time>
      </trkpt>
      <trkpt lat="47.8378" lon="6.56407">
        <ele>365.28667687796</ele>
        <time>2021-04-01T11:51:59.547Z</time>
      </trkpt>
      <trkpt lat="47.83836" lon="6.56425">
        <ele>365.16979036521</ele>
        <time>2021-04-01T11:52:11.270Z</time>
      </trkpt>
      <trkpt lat="47.83913" lon="6.56432">
        <ele>364.94395123079</ele>
        <time>2021-04-01T11:52:23.006Z</time>
      </trkpt>
      <trkpt lat="47.83941" lon="6.56422">
        <ele>364.61754727541</ele>
        <time>2021-04-01T11:52:34.746Z</time>
      </trkpt>
      <trkpt lat="47.83968" lon="6.56387">
        <ele>364.43156405976</ele>
        <time>2021-04-01T11:52:46.492Z</time>
      </trkpt>
      <trkpt lat="47.84019" lon="6.56389">
        <ele>364.32429385621</ele>
        <time>2021-04-01T11:52:58.246Z</time>
      </trkpt>
      <trkpt lat="47.84024" lon="6.56366">
        <ele>363.65846782553</ele>
        <time>2021-04-01T11:53:10.003Z</time>
      </trkpt>
      <trkpt lat="47.84046" lon="6.56322">
        <ele>363.05478889581</ele>
        <time>2021-04-01T11:53:21.766Z</time>
      </trkpt>
      <trkpt lat="47.84137" lon="6.56237">
        <ele>361.7411343669</ele>
        <time>2021-04-01T11:53:33.546Z</time>
      </trkpt>
      <trkpt lat="47.84136" lon="6.56188">
        <ele>360.7086290452</ele>
        <time>2021-04-01T11:53:45.331Z</time>
      </trkpt>
      <trkpt lat="47.8413" lon="6.56172">
        <ele>360.79722146883</ele>
        <time>2021-04-01T11:53:57.118Z</time>
      </trkpt>
    </trkseg>
  </trk>
</gpx>